[[{"header":{"parameterUnit":"m.s-1","parameterCategory":1,"la1":31.0,"la2":29.5877,"lo1":-88.7671,"lo2":-86.6584,"dy":0.0162,"dx":0.0185,"nx":115,"ny":88,"refTime":"2023-04-03T12:00:00:Z","depth":0,"parameterNumber":2,"parameterNumberName":"U-component_of_WINDS"},"data":[0.0,0.0,0.0,0.0,0.0,0.0,0.0,0.0,0.0,0.0,0.0,0.0,0.0,0.0,0.0,0.0,0.0,0.0,0.0,0.0,0.0,0.0,0.0,0.0,0.0,0.0,0.0,0.0,0.0,0.0,0.0,0.0,0.0,0.0,0.0,0.0,0.0,0.0,0.0,0.0,0.0,0.0,0.0,0.0,0.0,0.0,0.0,0.0,0.0,0.0,0.0,0.0,0.0,0.0,0.0,0.0,0.0,0.0,0.0,0.0,0.0,0.0,0.0,0.0,0.0,0.0,0.0,0.0,0.0,0.0,0.0,0.0,0.0,0.0,0.0,0.0,0.0,0.0,0.0,0.0,0.0,0.0,0.0,0.0,0.0,0.0,0.0,0.0,0.0,0.0,0.0,0.0,0.0,0.0,0.0,0.0,0.0,0.0,0.0,0.0,0.0,0.0,0.0,0.0,0.0,0.0,0.0,0.0,0.0,0.0,0.0,0.0,0.0,0.0,0.0,0.0,0.0,0.0,0.0,0.0,0.0,0.0,0.0,0.0,0.0,0.0,0.0,0.0,0.0,0.0,0.0,0.0,0.0,0.0,0.0,0.0,0.0,0.0,0.0,0.0,0.0,0.0,0.0,0.0,0.0,0.0,0.0,0.0,0.0,0.0,0.0,0.0,0.0,0.0,0.0,0.0,0.0,0.0,0.0,0.0,0.0,0.0,0.0,0.0,0.0,0.0,0.0,0.0,0.0,0.0,0.0,0.0,0.0,0.0,0.0,0.0,0.0,0.0,0.0,0.0,0.0,0.0,0.0,0.0,0.0,0.0,0.0,0.0,0.0,0.0,0.0,0.0,0.0,0.0,0.0,0.0,0.0,0.0,0.0,0.0,0.0,0.0,0.0,0.0,0.0,0.0,0.0,0.0,0.0,0.0,0.0,0.0,0.0,0.0,0.0,0.0,0.0,0.0,0.0,0.0,0.0,0.0,0.0,0.0,0.0,0.0,0.0,0.0,0.0,0.0,0.0,0.0,0.0,0.0,0.0,0.0,0.0,0.0,0.0,0.0,0.0,0.0,0.0,0.0,0.0,0.0,0.0,0.0,0.0,0.0,0.0,0.0,0.0,0.0,0.0,0.0,0.0,0.0,0.0,0.0,0.0,0.0,0.0,0.0,0.0,0.0,0.0,0.0,0.0,0.0,0.0,0.0,0.0,0.0,0.0,0.0,0.0,0.0,0.0,0.0,0.0,0.0,0.0,0.0,0.0,0.0,0.0,0.0,0.0,0.0,0.0,0.0,0.0,0.0,0.0,0.0,0.0,0.0,0.0,0.0,0.0,0.0,0.0,0.0,0.0,0.0,0.0,0.0,0.0,0.0,0.0,0.0,0.0,0.0,0.0,0.0,0.0,0.0,0.0,0.0,0.0,0.0,0.0,0.0,0.0,0.0,0.0,0.0,0.0,0.0,0.0,0.0,0.0,0.0,0.0,0.0,0.0,0.0,0.0,0.0,0.0,0.0,0.0,0.0,0.0,0.0,0.0,0.0,0.0,0.0,0.0,0.0,0.0,0.0,0.0,0.0,0.0,0.0,0.0,0.0,0.0,0.0,0.0,0.0,0.0,0.0,0.0,0.0,0.0,0.0,0.0,0.0,0.0,0.0,0.0,0.0,0.0,0.0,0.0,0.0,0.0,0.0,0.0,0.0,0.0,0.0,0.0,0.0,0.0,0.0,0.0,0.0,0.0,0.0,0.0,0.0,0.0,0.0,0.0,0.0,0.0,0.0,0.0,0.0,0.0,0.0,0.0,0.0,0.0,0.0,0.0,0.0,0.0,0.0,0.0,0.0,0.0,0.0,0.0,0.0,0.0,0.0,0.0,0.0,0.0,0.0,0.0,0.0,0.0,0.0,0.0,0.0,0.0,0.0,0.0,0.0,0.0,0.0,0.0,0.0,0.0,0.0,0.0,0.0,0.0,0.0,0.0,0.0,0.0,0.0,0.0,0.0,0.0,0.0,0.0,0.0,0.0,0.0,0.0,0.0,0.0,0.0,0.0,0.0,0.0,0.0,0.0,0.0,0.0,0.0,0.0,0.0,0.0,0.0,0.0,0.0,0.0,0.0,0.0,0.0,0.0,0.0,0.0,0.0,0.0,0.0,0.0,0.0,0.0,0.0,0.0,0.0,0.0,0.0,0.0,0.0,0.0,0.0,0.0,0.0,0.0,0.0,0.0,0.0,0.0,0.0,0.0,0.0,0.0,0.0,0.0,0.0,0.0,0.0,0.0,0.0,0.0,0.0,0.0,0.0,0.0,0.0,0.0,0.0,0.0,0.0,0.0,0.0,0.0,0.0,0.0,0.0,0.0,0.0,0.0,0.0,0.0,0.0,0.0,0.0,0.0,0.0,0.0,0.0,0.0,0.0,0.0,0.0,0.0,0.0,0.0,0.0,0.0,0.0,0.0,0.0,0.0,0.0,0.0,0.0,0.0,0.0,0.0,0.0,0.0,0.0,0.0,0.0,0.0,0.0,0.0,0.0,0.0,0.0,0.0,0.0,0.0,0.0,0.0,0.0,0.0,0.0,0.0,0.0,0.0,0.0,0.0,0.0,0.0,0.0,0.0,0.0,0.0,0.0,0.0,0.0,0.0,0.0,0.0,0.0,0.0,0.0,0.0,0.0,0.0,0.0,0.0,0.0,0.0,0.0,0.0,0.0,0.0,0.0,0.0,0.0,0.0,0.0,0.0,0.0,0.0,0.0,0.0,0.0,0.0,0.0,0.0,0.0,0.0,0.0,0.0,0.0,0.0,0.0,0.0,0.0,0.0,0.0,0.0,0.0,0.0,0.0,0.0,0.0,0.0,0.0,0.0,0.0,0.0,0.0,0.0,0.0,0.0,0.0,0.0,0.0,0.0,0.0,0.0,0.0,0.0,0.0,0.0,0.0,0.0,0.0,0.0,0.0,0.0,0.0,0.0,0.0,0.0,0.0,0.0,0.0,0.0,0.0,0.0,0.0,0.0,0.0,0.0,0.0,0.0,0.0,0.0,0.0,0.0,0.0,0.0,0.0,0.0,0.0,0.0,0.0,0.0,0.0,0.0,0.0,0.0,0.0,0.0,0.0,0.0,0.0,0.0,0.0,0.0,0.0,0.0,0.0,0.0,0.0,0.0,0.0,0.0,0.0,0.0,0.0,0.0,0.0,0.0,0.0,0.0,0.0,0.0,0.0,0.0,0.0,0.0,0.0,0.0,0.0,0.0,0.0,0.0,0.0,0.0,0.0,0.0,0.0,0.0,0.0,0.0,0.0,0.0,0.0,0.0,0.0,0.0,0.0,0.0,0.0,0.0,0.0,0.0,0.0,0.0,0.0,0.0,0.0,0.0,0.0,0.0,0.0,0.0,0.0,0.0,0.0,0.0,0.0,0.0,0.0,0.0,0.0,0.0,0.0,0.0,0.0,0.0,0.0,0.0,0.0,0.0,0.0,0.0,0.0,0.0,0.0,0.0,0.0,0.0,0.0,0.0,0.0,0.0,0.0,0.0,0.0,0.0,0.0,0.0,0.0,0.0,0.0,0.0,0.0,0.0,0.0,0.0,0.0,0.0,0.0,0.0,0.0,0.0,0.0,0.0,0.0,0.0,0.0,0.0,0.0,0.0,0.0,0.0,0.0,0.0,0.0,0.0,0.0,0.0,0.0,0.0,0.0,0.0,0.0,0.0,0.0,0.0,0.0,0.0,0.0,0.0,0.0,0.0,0.0,0.0,0.0,0.0,0.0,0.0,0.0,0.0,0.0,0.0,0.0,0.0,0.0,0.0,0.0,0.0,0.0,0.0,0.0,0.0,0.0,0.0,0.0,0.0,0.0,0.0,0.0,0.0,0.0,0.0,0.0,0.0,0.0,0.0,0.0,0.0,0.0,0.0,0.0,0.0,0.0,0.0,0.0,0.0,0.0,0.0,0.0,0.0,0.0,0.0,0.0,0.0,0.0,0.0,0.0,0.0,0.0,0.0,0.0,0.0,0.0,0.0,0.0,0.0,0.0,0.0,0.0,0.0,0.0,0.0,0.0,0.0,0.0,0.0,0.0,0.0,0.0,0.0,0.0,0.0,0.0,0.0,0.0,0.0,0.0,0.0,0.0,0.0,0.0,0.0,0.0,0.0,0.0,0.0,0.0,0.0,0.0,0.0,0.0,0.0,0.0,0.0,0.0,0.0,0.0,0.0,0.0,0.0,0.0,0.0,0.0,0.0,0.0,0.0,0.0,0.0,0.0,0.0,0.0,-2.9866,0.0,0.0,0.0,0.0,0.0,0.0,0.0,0.0,0.0,0.0,0.0,0.0,0.0,0.0,0.0,0.0,0.0,0.0,0.0,0.0,0.0,0.0,0.0,0.0,0.0,0.0,0.0,0.0,0.0,0.0,0.0,0.0,0.0,0.0,0.0,0.0,0.0,0.0,0.0,0.0,0.0,0.0,0.0,0.0,0.0,0.0,0.0,0.0,0.0,0.0,0.0,0.0,0.0,0.0,0.0,0.0,0.0,0.0,0.0,0.0,0.0,0.0,0.0,0.0,0.0,0.0,0.0,0.0,0.0,0.0,0.0,0.0,0.0,0.0,0.0,0.0,0.0,0.0,0.0,0.0,0.0,0.0,0.0,0.0,0.0,0.0,0.0,0.0,0.0,0.0,0.0,0.0,0.0,0.0,0.0,0.0,0.0,0.0,0.0,0.0,0.0,0.0,0.0,0.0,0.0,0.0,0.0,0.0,0.0,0.0,-3.1811,-3.1411,-3.0508,-2.9696,-2.8954,0.0,0.0,0.0,0.0,0.0,0.0,0.0,0.0,0.0,0.0,0.0,0.0,0.0,0.0,0.0,0.0,0.0,0.0,0.0,0.0,0.0,0.0,0.0,0.0,0.0,0.0,0.0,0.0,0.0,0.0,0.0,0.0,0.0,0.0,0.0,0.0,0.0,0.0,0.0,0.0,0.0,0.0,0.0,0.0,0.0,0.0,0.0,0.0,0.0,0.0,0.0,0.0,0.0,0.0,0.0,0.0,0.0,0.0,0.0,0.0,0.0,0.0,0.0,0.0,0.0,0.0,0.0,0.0,0.0,0.0,0.0,0.0,0.0,0.0,0.0,0.0,0.0,0.0,0.0,0.0,0.0,0.0,0.0,0.0,0.0,0.0,0.0,0.0,0.0,0.0,0.0,0.0,0.0,0.0,0.0,0.0,0.0,0.0,0.0,0.0,0.0,0.0,0.0,0.0,0.0,0.0,0.0,0.0,0.0,0.0,0.0,0.0,-2.9816,-2.8922,-2.8013,0.0,0.0,0.0,0.0,0.0,0.0,0.0,0.0,0.0,0.0,0.0,0.0,0.0,0.0,0.0,0.0,0.0,0.0,0.0,0.0,0.0,0.0,0.0,0.0,0.0,0.0,0.0,0.0,0.0,0.0,0.0,0.0,0.0,0.0,0.0,0.0,0.0,0.0,0.0,0.0,0.0,0.0,0.0,0.0,0.0,0.0,0.0,0.0,0.0,0.0,0.0,0.0,0.0,0.0,0.0,0.0,0.0,0.0,0.0,0.0,0.0,0.0,0.0,0.0,0.0,0.0,0.0,0.0,0.0,0.0,0.0,0.0,0.0,0.0,0.0,0.0,0.0,0.0,0.0,0.0,0.0,0.0,0.0,0.0,0.0,0.0,0.0,0.0,0.0,0.0,0.0,0.0,0.0,0.0,0.0,0.0,0.0,0.0,0.0,0.0,0.0,0.0,0.0,0.0,0.0,0.0,0.0,0.0,0.0,0.0,-3.1238,-3.0463,-2.9639,0.0,-2.7147,0.0,0.0,0.0,0.0,0.0,0.0,0.0,0.0,0.0,0.0,0.0,0.0,0.0,0.0,0.0,0.0,0.0,0.0,0.0,0.0,0.0,0.0,0.0,0.0,0.0,0.0,0.0,0.0,0.0,0.0,0.0,0.0,0.0,0.0,0.0,0.0,0.0,0.0,0.0,0.0,0.0,0.0,0.0,0.0,0.0,0.0,0.0,0.0,0.0,0.0,0.0,0.0,0.0,0.0,0.0,0.0,0.0,0.0,0.0,0.0,0.0,0.0,0.0,0.0,0.0,0.0,0.0,0.0,0.0,0.0,0.0,0.0,0.0,0.0,0.0,0.0,0.0,0.0,0.0,0.0,0.0,0.0,0.0,0.0,0.0,0.0,0.0,0.0,0.0,0.0,0.0,0.0,0.0,0.0,0.0,0.0,0.0,0.0,0.0,0.0,0.0,0.0,0.0,0.0,0.0,0.0,0.0,0.0,0.0,0.0,-3.0956,-2.9724,-2.8476,-2.7504,0.0,0.0,0.0,0.0,0.0,0.0,0.0,0.0,0.0,0.0,0.0,0.0,0.0,0.0,0.0,0.0,0.0,0.0,0.0,0.0,0.0,0.0,0.0,0.0,0.0,0.0,0.0,0.0,0.0,0.0,0.0,0.0,0.0,0.0,0.0,0.0,0.0,0.0,0.0,0.0,0.0,0.0,0.0,0.0,0.0,0.0,0.0,0.0,0.0,0.0,0.0,0.0,0.0,0.0,0.0,0.0,0.0,0.0,0.0,0.0,0.0,0.0,0.0,0.0,0.0,0.0,0.0,0.0,0.0,0.0,0.0,0.0,0.0,0.0,0.0,0.0,0.0,0.0,0.0,0.0,0.0,0.0,0.0,0.0,0.0,0.0,0.0,0.0,0.0,0.0,0.0,0.0,0.0,0.0,0.0,0.0,0.0,0.0,0.0,0.0,0.0,0.0,0.0,0.0,0.0,0.0,0.0,0.0,0.0,0.0,-3.1443,-3.0708,-2.9191,-2.7641,-2.6792,-2.6691,0.0,0.0,0.0,0.0,0.0,0.0,0.0,0.0,0.0,0.0,0.0,0.0,0.0,0.0,0.0,0.0,0.0,0.0,0.0,0.0,0.0,0.0,0.0,0.0,0.0,0.0,0.0,0.0,0.0,0.0,0.0,0.0,0.0,0.0,0.0,0.0,0.0,0.0,0.0,0.0,0.0,0.0,0.0,0.0,0.0,0.0,0.0,0.0,0.0,0.0,0.0,0.0,0.0,0.0,0.0,0.0,0.0,0.0,0.0,0.0,0.0,0.0,0.0,0.0,0.0,0.0,0.0,0.0,0.0,0.0,0.0,0.0,0.0,0.0,0.0,0.0,0.0,0.0,0.0,0.0,0.0,0.0,0.0,0.0,0.0,0.0,0.0,0.0,0.0,0.0,0.0,0.0,0.0,0.0,0.0,0.0,0.0,0.0,0.0,0.0,0.0,0.0,0.0,0.0,0.0,0.0,0.0,0.0,-3.1332,-3.1295,-3.0561,-2.9062,-2.752,-2.6708,0.0,0.0,0.0,0.0,0.0,0.0,0.0,0.0,0.0,0.0,0.0,0.0,0.0,0.0,0.0,0.0,0.0,0.0,0.0,0.0,0.0,0.0,0.0,0.0,0.0,0.0,0.0,0.0,0.0,0.0,0.0,0.0,0.0,0.0,0.0,0.0,0.0,0.0,0.0,0.0,0.0,0.0,0.0,0.0,0.0,0.0,0.0,0.0,0.0,0.0,0.0,0.0,0.0,0.0,0.0,0.0,0.0,0.0,0.0,0.0,0.0,0.0,0.0,0.0,0.0,0.0,0.0,0.0,0.0,0.0,0.0,0.0,0.0,0.0,0.0,0.0,0.0,0.0,0.0,0.0,0.0,0.0,0.0,0.0,0.0,0.0,0.0,0.0,0.0,0.0,0.0,0.0,0.0,0.0,0.0,0.0,0.0,0.0,0.0,0.0,0.0,0.0,0.0,0.0,0.0,0.0,0.0,0.0,0.0,-3.1215,-3.0792,-3.0281,-2.9685,-2.8177,-2.7349,0.0,0.0,0.0,0.0,0.0,0.0,0.0,0.0,0.0,0.0,0.0,0.0,0.0,0.0,0.0,0.0,0.0,0.0,0.0,0.0,0.0,0.0,0.0,0.0,0.0,0.0,0.0,0.0,0.0,0.0,0.0,0.0,0.0,0.0,0.0,0.0,0.0,0.0,0.0,0.0,0.0,0.0,0.0,0.0,0.0,0.0,0.0,0.0,0.0,0.0,0.0,0.0,0.0,0.0,0.0,0.0,0.0,0.0,0.0,0.0,0.0,0.0,0.0,0.0,0.0,0.0,0.0,0.0,0.0,0.0,0.0,0.0,0.0,0.0,0.0,0.0,0.0,0.0,0.0,0.0,0.0,0.0,0.0,0.0,0.0,0.0,0.0,0.0,0.0,0.0,0.0,0.0,0.0,0.0,0.0,0.0,0.0,0.0,0.0,0.0,0.0,0.0,0.0,0.0,0.0,0.0,0.0,0.0,0.0,-3.1157,0.0,-3.0089,-3.0,-2.8747,-2.7934,0.0,0.0,0.0,0.0,0.0,0.0,0.0,0.0,0.0,0.0,0.0,0.0,0.0,0.0,0.0,0.0,0.0,0.0,0.0,0.0,0.0,0.0,0.0,0.0,0.0,0.0,0.0,0.0,0.0,0.0,0.0,0.0,0.0,0.0,0.0,0.0,0.0,0.0,0.0,0.0,0.0,0.0,0.0,0.0,0.0,0.0,0.0,0.0,0.0,0.0,0.0,0.0,0.0,0.0,0.0,0.0,0.0,0.0,0.0,0.0,0.0,0.0,0.0,0.0,0.0,0.0,0.0,0.0,0.0,0.0,0.0,0.0,0.0,0.0,0.0,0.0,0.0,0.0,0.0,0.0,0.0,0.0,0.0,0.0,0.0,0.0,0.0,0.0,0.0,0.0,0.0,0.0,0.0,0.0,0.0,0.0,0.0,0.0,0.0,0.0,0.0,0.0,0.0,0.0,0.0,0.0,0.0,0.0,-3.1224,-3.1173,-3.0495,-3.0085,-2.9888,-2.9196,-2.8401,0.0,0.0,0.0,0.0,0.0,0.0,0.0,0.0,0.0,0.0,0.0,0.0,0.0,0.0,0.0,0.0,0.0,0.0,0.0,0.0,0.0,0.0,0.0,0.0,0.0,0.0,0.0,0.0,0.0,0.0,0.0,0.0,0.0,0.0,0.0,0.0,0.0,0.0,0.0,0.0,0.0,0.0,0.0,0.0,0.0,0.0,0.0,0.0,0.0,0.0,0.0,0.0,0.0,0.0,0.0,0.0,0.0,0.0,0.0,0.0,0.0,0.0,0.0,0.0,0.0,0.0,0.0,0.0,0.0,0.0,0.0,0.0,0.0,0.0,0.0,0.0,0.0,0.0,0.0,0.0,0.0,0.0,0.0,0.0,0.0,0.0,0.0,0.0,0.0,0.0,0.0,0.0,0.0,0.0,0.0,0.0,0.0,0.0,0.0,0.0,0.0,0.0,0.0,0.0,0.0,0.0,0.0,0.0,0.0,-3.1072,-3.0793,-3.0636,-3.0563,-2.978,-2.9221,0.0,0.0,0.0,0.0,0.0,0.0,0.0,0.0,0.0,0.0,0.0,0.0,0.0,0.0,0.0,0.0,0.0,0.0,0.0,0.0,0.0,0.0,0.0,0.0,0.0,0.0,0.0,0.0,0.0,0.0,0.0,0.0,0.0,0.0,0.0,0.0,0.0,0.0,0.0,0.0,0.0,0.0,0.0,0.0,0.0,0.0,0.0,0.0,0.0,0.0,0.0,0.0,0.0,0.0,0.0,0.0,0.0,0.0,0.0,0.0,0.0,0.0,0.0,0.0,0.0,0.0,0.0,0.0,0.0,0.0,0.0,0.0,0.0,0.0,0.0,0.0,0.0,0.0,0.0,0.0,0.0,0.0,0.0,0.0,0.0,0.0,0.0,0.0,0.0,0.0,0.0,0.0,0.0,0.0,0.0,0.0,0.0,0.0,0.0,0.0,0.0,0.0,0.0,0.0,0.0,0.0,0.0,0.0,0.0,-3.1746,-3.1696,-3.1654,-3.165,-3.0808,-3.0211,-2.9875,0.0,0.0,0.0,0.0,0.0,0.0,0.0,0.0,0.0,0.0,0.0,0.0,0.0,0.0,0.0,0.0,0.0,0.0,0.0,0.0,0.0,0.0,0.0,0.0,0.0,0.0,0.0,0.0,0.0,0.0,0.0,0.0,0.0,0.0,0.0,0.0,0.0,0.0,0.0,0.0,0.0,0.0,0.0,0.0,0.0,0.0,0.0,0.0,0.0,0.0,0.0,0.0,0.0,0.0,0.0,0.0,0.0,0.0,0.0,0.0,0.0,0.0,0.0,0.0,0.0,0.0,0.0,0.0,0.0,0.0,0.0,0.0,0.0,0.0,0.0,0.0,0.0,0.0,0.0,0.0,0.0,0.0,0.0,0.0,0.0,0.0,0.0,0.0,0.0,0.0,0.0,0.0,0.0,0.0,0.0,0.0,0.0,0.0,0.0,0.0,0.0,0.0,0.0,0.0,0.0,0.0,0.0,0.0,-3.2979,-3.3072,-3.3022,-3.2868,-3.2006,-3.1219,0.0,0.0,0.0,0.0,0.0,0.0,0.0,0.0,0.0,0.0,0.0,0.0,0.0,0.0,0.0,0.0,0.0,0.0,0.0,0.0,0.0,0.0,0.0,0.0,0.0,0.0,0.0,0.0,0.0,0.0,0.0,0.0,0.0,0.0,0.0,0.0,0.0,0.0,0.0,0.0,0.0,0.0,0.0,0.0,0.0,0.0,0.0,0.0,0.0,0.0,0.0,0.0,0.0,0.0,0.0,0.0,0.0,0.0,0.0,0.0,0.0,0.0,0.0,0.0,0.0,0.0,0.0,0.0,0.0,0.0,0.0,0.0,0.0,0.0,0.0,0.0,0.0,0.0,0.0,0.0,0.0,0.0,0.0,0.0,0.0,0.0,0.0,0.0,0.0,0.0,0.0,0.0,0.0,0.0,0.0,0.0,0.0,0.0,0.0,0.0,0.0,0.0,0.0,0.0,0.0,0.0,0.0,0.0,0.0,-3.4209,-3.4155,-3.3627,-3.264,-3.1714,-3.1138,0.0,0.0,0.0,0.0,0.0,0.0,0.0,0.0,0.0,0.0,0.0,0.0,0.0,0.0,0.0,0.0,0.0,0.0,0.0,0.0,0.0,0.0,0.0,0.0,0.0,0.0,0.0,0.0,0.0,0.0,0.0,0.0,0.0,0.0,0.0,0.0,0.0,0.0,0.0,0.0,0.0,0.0,0.0,0.0,0.0,0.0,0.0,0.0,0.0,0.0,0.0,0.0,0.0,0.0,0.0,0.0,0.0,0.0,0.0,0.0,0.0,0.0,0.0,0.0,0.0,0.0,0.0,0.0,0.0,0.0,0.0,0.0,0.0,0.0,0.0,0.0,0.0,0.0,0.0,0.0,0.0,0.0,0.0,0.0,0.0,0.0,0.0,0.0,0.0,0.0,0.0,0.0,0.0,0.0,0.0,0.0,0.0,0.0,0.0,0.0,0.0,0.0,0.0,0.0,0.0,0.0,0.0,0.0,-3.4603,-3.4955,-3.5125,-3.4642,-3.3453,-3.2438,-3.1702,0.0,0.0,0.0,0.0,0.0,0.0,0.0,0.0,0.0,0.0,0.0,0.0,0.0,0.0,0.0,0.0,0.0,0.0,0.0,0.0,0.0,0.0,0.0,0.0,0.0,0.0,0.0,0.0,0.0,0.0,0.0,0.0,0.0,0.0,0.0,0.0,0.0,0.0,0.0,0.0,0.0,0.0,0.0,0.0,0.0,0.0,0.0,0.0,0.0,0.0,0.0,0.0,0.0,0.0,0.0,0.0,0.0,0.0,0.0,0.0,0.0,0.0,0.0,0.0,0.0,0.0,0.0,0.0,0.0,0.0,0.0,0.0,0.0,0.0,0.0,0.0,0.0,0.0,0.0,0.0,0.0,0.0,0.0,0.0,0.0,0.0,0.0,0.0,0.0,0.0,0.0,0.0,0.0,0.0,0.0,0.0,0.0,0.0,0.0,0.0,0.0,0.0,0.0,0.0,0.0,0.0,0.0,0.0,-3.5459,-3.537,-3.5871,-3.5669,-3.4675,-3.36,-3.2563,0.0,0.0,0.0,0.0,0.0,0.0,0.0,0.0,0.0,0.0,0.0,0.0,0.0,0.0,0.0,0.0,0.0,0.0,0.0,0.0,0.0,0.0,0.0,0.0,0.0,0.0,0.0,0.0,0.0,0.0,0.0,0.0,0.0,0.0,0.0,0.0,0.0,0.0,0.0,0.0,0.0,0.0,0.0,0.0,0.0,0.0,0.0,0.0,0.0,0.0,0.0,0.0,0.0,0.0,0.0,0.0,0.0,0.0,0.0,0.0,0.0,0.0,0.0,0.0,0.0,0.0,0.0,0.0,0.0,0.0,0.0,0.0,0.0,0.0,0.0,0.0,0.0,0.0,0.0,0.0,0.0,0.0,0.0,0.0,0.0,0.0,0.0,0.0,0.0,0.0,0.0,0.0,0.0,0.0,0.0,0.0,0.0,0.0,0.0,0.0,0.0,0.0,0.0,0.0,0.0,0.0,0.0,0.0,-3.5314,-3.5819,-3.5721,-3.5231,-3.4413,-3.3657,-3.2574,0.0,0.0,0.0,0.0,0.0,0.0,0.0,0.0,0.0,0.0,0.0,0.0,0.0,0.0,0.0,0.0,0.0,0.0,0.0,0.0,0.0,0.0,0.0,0.0,0.0,0.0,0.0,0.0,0.0,0.0,0.0,0.0,0.0,0.0,0.0,0.0,0.0,0.0,0.0,0.0,0.0,0.0,0.0,0.0,0.0,0.0,0.0,0.0,-2.2455,0.0,0.0,0.0,0.0,0.0,0.0,0.0,0.0,0.0,0.0,0.0,0.0,0.0,0.0,0.0,0.0,0.0,0.0,0.0,0.0,0.0,0.0,0.0,0.0,0.0,0.0,0.0,0.0,0.0,0.0,0.0,0.0,0.0,0.0,0.0,0.0,0.0,0.0,0.0,0.0,0.0,0.0,0.0,0.0,0.0,0.0,0.0,0.0,0.0,0.0,0.0,0.0,0.0,0.0,0.0,0.0,0.0,0.0,0.0,-3.5516,-3.6031,-3.6194,-3.5679,-3.4451,-3.4048,-3.3037,0.0,0.0,0.0,0.0,0.0,0.0,0.0,0.0,0.0,0.0,0.0,0.0,0.0,0.0,0.0,0.0,0.0,0.0,0.0,0.0,0.0,0.0,0.0,0.0,0.0,0.0,0.0,0.0,0.0,0.0,0.0,0.0,0.0,0.0,0.0,0.0,0.0,0.0,0.0,0.0,0.0,0.0,0.0,0.0,0.0,0.0,0.0,0.0,0.0,0.0,0.0,0.0,0.0,0.0,0.0,0.0,0.0,0.0,0.0,0.0,0.0,0.0,0.0,0.0,0.0,0.0,0.0,0.0,0.0,0.0,0.0,0.0,0.0,0.0,0.0,0.0,0.0,0.0,0.0,0.0,0.0,0.0,0.0,0.0,0.0,0.0,0.0,0.0,0.0,0.0,0.0,0.0,0.0,0.0,0.0,0.0,0.0,0.0,0.0,0.0,0.0,0.0,0.0,0.0,0.0,0.0,0.0,-3.5284,-3.5824,-3.6195,-3.679,-3.6238,-3.4506,-3.4431,-3.3495,-3.1562,0.0,0.0,0.0,0.0,0.0,0.0,0.0,0.0,0.0,0.0,0.0,0.0,0.0,0.0,0.0,0.0,0.0,0.0,0.0,0.0,0.0,0.0,0.0,0.0,0.0,0.0,0.0,0.0,0.0,0.0,0.0,0.0,0.0,0.0,0.0,0.0,0.0,0.0,-2.3678,-2.4235,0.0,0.0,0.0,0.0,0.0,0.0,0.0,0.0,-2.2757,0.0,0.0,0.0,0.0,0.0,0.0,0.0,0.0,0.0,0.0,0.0,0.0,0.0,0.0,0.0,0.0,0.0,0.0,0.0,0.0,0.0,0.0,0.0,0.0,0.0,0.0,0.0,0.0,0.0,0.0,0.0,0.0,0.0,0.0,0.0,0.0,0.0,0.0,0.0,0.0,0.0,0.0,0.0,0.0,0.0,0.0,0.0,0.0,0.0,0.0,0.0,0.0,0.0,0.0,0.0,0.0,-3.4989,-3.5553,-3.6094,-3.6583,-3.6616,-3.586,-3.4329,-3.4134,-3.3346,-3.1806,0.0,0.0,0.0,0.0,0.0,0.0,0.0,0.0,0.0,0.0,0.0,0.0,0.0,0.0,0.0,0.0,0.0,0.0,0.0,0.0,0.0,0.0,0.0,0.0,0.0,0.0,0.0,0.0,0.0,0.0,0.0,0.0,0.0,0.0,0.0,0.0,0.0,0.0,0.0,-2.4547,-2.4563,0.0,0.0,0.0,0.0,0.0,0.0,0.0,0.0,-2.3027,0.0,0.0,0.0,0.0,0.0,0.0,0.0,0.0,0.0,0.0,0.0,0.0,0.0,0.0,0.0,0.0,0.0,0.0,0.0,0.0,0.0,0.0,0.0,0.0,0.0,0.0,0.0,0.0,0.0,0.0,0.0,0.0,0.0,0.0,0.0,0.0,0.0,0.0,0.0,0.0,0.0,0.0,0.0,0.0,0.0,0.0,0.0,0.0,0.0,0.0,0.0,0.0,0.0,0.0,0.0,-3.4603,-3.5226,-3.5799,-3.6321,-3.6258,-3.5522,-3.4076,-3.3925,-3.3185,0.0,0.0,0.0,0.0,0.0,0.0,0.0,0.0,0.0,0.0,0.0,0.0,0.0,0.0,0.0,0.0,0.0,0.0,0.0,0.0,0.0,0.0,0.0,0.0,0.0,0.0,0.0,0.0,0.0,0.0,0.0,0.0,0.0,0.0,0.0,0.0,0.0,0.0,0.0,0.0,-2.4804,-2.4943,-2.5268,0.0,0.0,0.0,0.0,0.0,0.0,-2.4554,-2.3975,0.0,0.0,0.0,0.0,0.0,0.0,0.0,0.0,0.0,0.0,0.0,0.0,0.0,0.0,0.0,0.0,0.0,0.0,0.0,0.0,0.0,0.0,0.0,0.0,0.0,0.0,0.0,0.0,0.0,0.0,0.0,0.0,0.0,0.0,0.0,0.0,0.0,0.0,0.0,0.0,0.0,0.0,0.0,0.0,0.0,0.0,0.0,0.0,0.0,0.0,0.0,0.0,0.0,0.0,0.0,-3.4179,-3.4958,-3.5551,-3.5911,-3.5941,-3.5318,-3.3984,-3.3818,-3.3081,0.0,0.0,0.0,0.0,0.0,0.0,0.0,0.0,0.0,0.0,0.0,0.0,0.0,0.0,0.0,0.0,0.0,0.0,0.0,0.0,0.0,0.0,0.0,0.0,0.0,0.0,0.0,0.0,0.0,0.0,0.0,0.0,0.0,0.0,0.0,0.0,0.0,0.0,0.0,0.0,0.0,-2.5394,-2.5917,-2.5993,0.0,0.0,0.0,0.0,-2.5985,-2.5394,0.0,0.0,0.0,0.0,0.0,0.0,0.0,0.0,0.0,0.0,0.0,0.0,0.0,0.0,0.0,0.0,0.0,0.0,0.0,0.0,0.0,0.0,0.0,0.0,0.0,0.0,0.0,0.0,0.0,0.0,0.0,0.0,0.0,0.0,0.0,0.0,0.0,0.0,0.0,0.0,0.0,0.0,0.0,0.0,0.0,0.0,0.0,0.0,0.0,0.0,0.0,0.0,0.0,0.0,0.0,0.0,-3.406,-3.5292,-3.5866,-3.5752,-3.572,-3.5324,-3.443,-3.383,-3.3095,0.0,0.0,0.0,0.0,0.0,0.0,0.0,0.0,0.0,0.0,0.0,0.0,0.0,0.0,0.0,0.0,0.0,0.0,0.0,0.0,0.0,0.0,0.0,0.0,0.0,0.0,0.0,0.0,0.0,0.0,0.0,0.0,0.0,0.0,0.0,0.0,0.0,0.0,0.0,0.0,0.0,-2.5917,-2.5993,-2.5993,-2.5947,0.0,0.0,-2.597,-2.5854,-2.5259,0.0,0.0,0.0,0.0,0.0,0.0,0.0,0.0,0.0,0.0,0.0,0.0,0.0,0.0,0.0,0.0,0.0,0.0,0.0,0.0,0.0,0.0,0.0,0.0,0.0,0.0,0.0,0.0,0.0,0.0,0.0,0.0,0.0,0.0,0.0,0.0,0.0,0.0,0.0,0.0,0.0,0.0,0.0,0.0,0.0,0.0,0.0,0.0,0.0,0.0,0.0,0.0,0.0,0.0,0.0,-3.3789,-3.3743,-3.5038,-3.5683,-3.5604,-3.5572,-3.5177,-3.436,-3.3719,-3.2986,0.0,0.0,0.0,0.0,0.0,0.0,0.0,0.0,0.0,0.0,0.0,0.0,0.0,0.0,0.0,0.0,0.0,0.0,0.0,0.0,0.0,0.0,0.0,0.0,0.0,0.0,0.0,0.0,0.0,0.0,0.0,0.0,0.0,0.0,0.0,0.0,0.0,0.0,0.0,0.0,0.0,0.0,-2.6862,-2.6907,0.0,0.0,0.0,-2.6883,-2.6834,0.0,0.0,0.0,0.0,0.0,0.0,0.0,0.0,0.0,0.0,0.0,0.0,0.0,0.0,0.0,0.0,0.0,0.0,0.0,0.0,0.0,0.0,0.0,0.0,0.0,0.0,0.0,0.0,0.0,0.0,0.0,0.0,0.0,0.0,0.0,0.0,0.0,0.0,0.0,0.0,0.0,0.0,0.0,0.0,0.0,0.0,0.0,0.0,0.0,0.0,0.0,0.0,0.0,0.0,0.0,0.0,0.0,-3.3754,-3.4906,-3.5472,-3.5439,-3.5439,-3.5088,-3.4392,-3.3815,0.0,0.0,0.0,0.0,0.0,0.0,0.0,0.0,0.0,0.0,0.0,0.0,0.0,0.0,0.0,0.0,0.0,0.0,0.0,0.0,0.0,0.0,0.0,0.0,0.0,0.0,0.0,-2.3821,0.0,0.0,0.0,0.0,0.0,0.0,0.0,0.0,0.0,0.0,0.0,0.0,0.0,0.0,-2.7031,-2.7525,-2.7585,-2.7585,0.0,0.0,-2.7585,-2.7585,-2.7046,-2.6422,0.0,0.0,0.0,0.0,0.0,0.0,0.0,0.0,0.0,0.0,0.0,0.0,0.0,0.0,0.0,0.0,0.0,0.0,0.0,0.0,0.0,0.0,0.0,0.0,0.0,0.0,0.0,0.0,0.0,0.0,0.0,0.0,0.0,0.0,0.0,0.0,0.0,0.0,0.0,0.0,0.0,0.0,0.0,0.0,0.0,0.0,0.0,0.0,0.0,0.0,0.0,0.0,0.0,0.0,0.0,-3.4444,-3.513,-3.5407,-3.5213,-3.5213,-3.51,-3.4861,-3.4274,-3.3576,0.0,0.0,0.0,0.0,0.0,0.0,0.0,0.0,0.0,0.0,0.0,0.0,0.0,0.0,0.0,0.0,0.0,0.0,0.0,0.0,0.0,0.0,0.0,0.0,0.0,0.0,0.0,0.0,0.0,0.0,0.0,0.0,0.0,0.0,0.0,0.0,0.0,0.0,0.0,0.0,0.0,-2.754,-2.7585,-2.7585,-2.7585,0.0,0.0,-2.7585,-2.7585,-2.7046,-2.6572,-2.6527,0.0,0.0,0.0,0.0,0.0,0.0,0.0,0.0,0.0,0.0,0.0,0.0,0.0,0.0,0.0,0.0,0.0,0.0,0.0,0.0,0.0,0.0,0.0,0.0,0.0,0.0,0.0,0.0,0.0,0.0,0.0,0.0,0.0,0.0,0.0,0.0,0.0,0.0,0.0,0.0,0.0,0.0,0.0,0.0,0.0,0.0,0.0,0.0,0.0,0.0,0.0,0.0,0.0,-3.3752,-3.4316,-3.4984,-3.5213,-3.5034,-3.5016,-3.4935,-3.4783,-3.4138,-3.3618,0.0,0.0,0.0,0.0,0.0,0.0,0.0,0.0,0.0,0.0,0.0,0.0,0.0,0.0,0.0,0.0,0.0,0.0,0.0,0.0,0.0,0.0,0.0,0.0,0.0,0.0,0.0,0.0,-2.5236,-2.5307,-2.5387,0.0,0.0,0.0,0.0,0.0,0.0,0.0,0.0,0.0,0.0,-2.7361,-2.7361,-2.7361,0.0,0.0,-2.7437,-2.7488,-2.7463,-2.733,-2.7091,-2.6686,-2.6168,0.0,0.0,0.0,0.0,0.0,0.0,0.0,0.0,0.0,0.0,0.0,0.0,0.0,0.0,0.0,0.0,0.0,0.0,0.0,0.0,0.0,0.0,0.0,0.0,0.0,0.0,0.0,0.0,0.0,0.0,0.0,0.0,0.0,0.0,0.0,0.0,0.0,0.0,0.0,0.0,0.0,0.0,0.0,0.0,0.0,0.0,0.0,0.0,0.0,0.0,0.0,0.0,-3.3973,-3.45,-3.491,-3.5016,-3.485,-3.485,-3.4769,-3.4582,-3.413,-3.3777,0.0,0.0,0.0,0.0,0.0,0.0,0.0,0.0,0.0,0.0,0.0,0.0,0.0,0.0,0.0,0.0,0.0,0.0,0.0,0.0,0.0,0.0,0.0,0.0,0.0,0.0,0.0,0.0,-2.5996,-2.5982,-2.5947,0.0,0.0,0.0,0.0,0.0,0.0,0.0,0.0,0.0,0.0,-2.7782,-2.7782,-2.7756,-2.7782,-2.7768,-2.7672,-2.7591,-2.7606,-2.7531,-2.7309,-2.6862,0.0,0.0,0.0,0.0,0.0,0.0,0.0,0.0,0.0,0.0,0.0,0.0,0.0,0.0,0.0,0.0,0.0,0.0,0.0,0.0,0.0,0.0,0.0,0.0,0.0,0.0,0.0,0.0,0.0,0.0,-3.3283,0.0,0.0,0.0,0.0,0.0,0.0,0.0,0.0,0.0,0.0,0.0,0.0,0.0,0.0,0.0,0.0,0.0,0.0,0.0,0.0,0.0,0.0,-3.45,-3.5136,-3.4986,-3.485,-3.4698,-3.4698,-3.4631,-3.4399,-3.4399,-3.4095,-3.3518,0.0,0.0,0.0,0.0,0.0,0.0,0.0,0.0,0.0,0.0,0.0,0.0,0.0,0.0,0.0,0.0,0.0,0.0,0.0,0.0,0.0,0.0,0.0,0.0,0.0,0.0,-2.7478,-2.7744,-2.7642,0.0,0.0,0.0,0.0,0.0,0.0,0.0,0.0,0.0,0.0,-2.8655,-2.9053,-2.9039,-2.9039,-2.8982,-2.8996,-2.8481,-2.8098,-2.8098,-2.7609,-2.7192,0.0,0.0,0.0,0.0,0.0,0.0,0.0,0.0,0.0,0.0,0.0,0.0,0.0,0.0,0.0,0.0,0.0,0.0,0.0,0.0,0.0,0.0,0.0,0.0,0.0,0.0,0.0,-3.5897,-3.5274,0.0,0.0,0.0,0.0,0.0,0.0,0.0,0.0,0.0,0.0,0.0,-3.5516,-3.5668,0.0,0.0,0.0,0.0,0.0,0.0,0.0,0.0,0.0,0.0,0.0,0.0,-3.4319,-3.4868,-3.4798,-3.4683,-3.4515,-3.4481,-3.4481,-3.4414,-3.438,-3.4109,-3.3518,0.0,0.0,0.0,0.0,0.0,0.0,0.0,0.0,0.0,0.0,0.0,0.0,0.0,0.0,0.0,0.0,0.0,0.0,0.0,0.0,0.0,0.0,0.0,0.0,0.0,-2.7882,0.0,0.0,0.0,0.0,0.0,0.0,0.0,0.0,0.0,0.0,0.0,-2.8638,-2.8638,-2.8731,-2.8849,-2.8849,-2.8849,-2.8834,0.0,0.0,0.0,0.0,0.0,0.0,0.0,0.0,0.0,0.0,0.0,0.0,0.0,0.0,-2.4665,-2.4665,-2.4502,-2.4369,-2.4354,0.0,0.0,0.0,0.0,0.0,0.0,0.0,0.0,0.0,0.0,0.0,0.0,0.0,0.0,-3.6491,0.0,-3.6109,0.0,0.0,0.0,0.0,0.0,0.0,0.0,0.0,-3.6289,-3.6422,-3.6301,-3.6422,-3.626,0.0,-3.5531,-3.497,0.0,0.0,0.0,0.0,0.0,0.0,0.0,0.0,-3.4405,-3.4683,-3.485,-3.4898,-3.4748,-3.4748,-3.4748,-3.4733,-3.4462,-3.411,-3.3705,-3.344,-3.2901,0.0,0.0,0.0,0.0,0.0,0.0,0.0,0.0,0.0,0.0,0.0,0.0,0.0,0.0,0.0,0.0,0.0,0.0,0.0,0.0,0.0,0.0,0.0,-2.8927,0.0,0.0,0.0,0.0,0.0,0.0,0.0,0.0,0.0,-2.8975,-2.9067,-2.9128,-2.9128,-2.9275,-2.9363,-2.9363,0.0,0.0,0.0,0.0,0.0,0.0,0.0,-2.8974,-2.8974,-2.8946,-2.8799,-2.8389,-2.7627,-2.707,-2.707,0.0,0.0,-2.5335,-2.5202,-2.5202,-2.5202,-2.5202,-2.5202,-2.5202,-2.5202,-2.5226,0.0,0.0,0.0,0.0,0.0,0.0,0.0,0.0,-3.6652,-3.6531,0.0,-3.6522,0.0,0.0,0.0,0.0,0.0,-3.6387,0.0,0.0,-3.6373,-3.6373,-3.6373,-3.6402,-3.6359,-3.6344,-3.633,-3.6286,-3.6141,-3.4164,0.0,0.0,0.0,0.0,0.0,0.0,-3.4756,-3.4766,-3.5199,-3.5436,-3.5436,-3.5421,-3.5421,-3.5378,-3.4591,-3.4122,-3.4065,-3.3336,-3.2939,-3.2882,-3.1721,0.0,0.0,0.0,0.0,0.0,0.0,0.0,0.0,0.0,0.0,0.0,0.0,0.0,0.0,0.0,0.0,0.0,0.0,0.0,0.0,-2.9276,0.0,0.0,0.0,0.0,0.0,0.0,0.0,0.0,0.0,0.0,-2.8898,-2.9276,-2.9624,-2.9624,0.0,0.0,0.0,0.0,-3.0598,-3.0583,-3.0045,-2.9624,-2.9624,-2.9145,-2.8796,-2.8796,0.0,0.0,-2.8738,-2.8709,-2.8636,-2.8694,-2.81,-2.7224,-2.5683,-2.5369,-2.5296,-2.532,-2.5325,-2.5252,-2.5252,-2.5345,-2.534,-3.908,0.0,0.0,0.0,0.0,-3.7798,-3.7761,-3.7754,-3.7725,-3.747,-3.7027,-3.7063,0.0,0.0,0.0,0.0,0.0,0.0,-3.7027,-3.7041,-3.7462,-3.7651,-3.7665,-3.7665,-3.7433,-3.7041,-3.7027,-3.678,-3.6286,-3.568,-3.535,-3.5365,0.0,0.0,0.0,0.0,-3.5848,-3.5848,-3.5988,-3.604,-3.604,-3.604,-3.5787,-3.5183,-3.4926,-3.4554,-3.4,-3.3745,-3.3382,-3.2925,-3.2549,0.0,0.0,0.0,0.0,0.0,0.0,0.0,0.0,0.0,0.0,0.0,0.0,0.0,0.0,0.0,0.0,0.0,0.0,0.0,-3.0473,-3.0719,-3.0809,0.0,0.0,0.0,0.0,0.0,0.0,0.0,0.0,0.0,-3.0089,-3.022,-3.0336,0.0,0.0,-3.0612,-3.0612,-3.0612,-3.0612,-3.0612,-3.0408,0.0,-3.0292,-3.0176,-3.006,-3.006,-2.9653,-2.9363,-2.9348,-2.8985,-2.8694,-2.8709,-2.855,-2.8229,-2.7775,-2.6928,-2.6374,-2.6331,-2.6331,-2.6331,-2.6345,-2.6345,-2.6342,-4.0887,-4.0307,-3.977,-3.9334,-3.8957,-3.8957,-3.8957,-3.8957,-3.8957,-3.8754,-3.8391,-3.8159,-3.7839,-3.7447,-3.7172,0.0,0.0,0.0,-3.7665,-3.768,-3.8043,-3.8202,-3.8202,-3.8202,-3.8014,-3.768,-3.7665,-3.7447,-3.7056,-3.7056,-3.7056,-3.7041,0.0,0.0,-3.6286,-3.6286,-3.6286,-3.6315,-3.6577,-3.6693,-3.6707,-3.6621,-3.6209,-3.5467,-3.5311,-3.4882,-3.4177,-3.4044,-3.3711,-3.3087,-3.2817,-3.2539,0.0,0.0,0.0,0.0,0.0,0.0,0.0,0.0,0.0,0.0,0.0,-2.9117,-2.9416,0.0,0.0,0.0,-3.033,-3.0707,-3.1481,-3.1553,0.0,0.0,0.0,0.0,0.0,0.0,0.0,-3.1337,-3.1337,-3.1235,-3.0988,-3.0945,-3.0858,-3.0641,-3.0612,-3.0612,-3.0612,0.0,-3.0612,-3.0612,-3.0612,-3.0612,-3.0612,-3.0612,-3.0612,-3.0612,-3.0307,-3.0016,-2.9987,-2.9711,-2.9464,-2.9435,-2.9261,-2.9044,-2.9044,-2.8216,-2.7561,-2.7547,-2.7316,-2.7171,-2.7157,-2.6968,-2.682,-4.276,-4.2136,-4.0858,-4.0234,-4.0104,-4.0104,-4.0089,-4.0104,-4.0089,-4.0104,-4.0046,-3.9509,-3.9276,-3.9233,-3.8623,0.0,-3.8347,-3.8347,-3.8362,-3.8347,-3.8347,-3.8347,-3.8362,-3.8362,-3.8318,-3.8289,-3.8289,-3.8246,-3.8188,-3.8188,-3.8202,-3.8173,-3.7041,-3.646,-3.646,-3.646,-3.6446,-3.6475,-3.707,-3.7389,-3.7353,-3.7139,-3.6726,-3.6064,-3.5664,-3.5198,-3.4568,-3.4339,-3.395,-3.3375,-3.2806,-3.2537,-3.2631,0.0,0.0,0.0,0.0,0.0,0.0,0.0,0.0,0.0,0.0,0.0,0.0,0.0,0.0,0.0,-3.1885,0.0,-3.1956,-3.1956,0.0,0.0,0.0,-3.2313,-3.2431,-3.2449,-3.2449,-3.2449,0.0,0.0,-3.1608,-3.1536,-3.1335,-3.0727,-3.0611,-3.0612,-3.0612,-3.0612,-3.0612,-3.0612,-3.0612,-3.0612,-3.0612,-3.0612,-3.0612,-3.0612,-3.0612,-3.0569,-3.0569,-3.0554,-3.0583,-3.0525,-3.0074,-2.9668,-2.9668,-2.9218,-2.8869,-2.8854,-2.826,-2.7782,-2.7781,-2.7403,-2.7041,-4.3674,-4.3471,-4.2644,-4.1453,-4.0104,-4.0104,-4.0104,-4.0104,-4.0104,-4.0104,-4.0075,-3.9944,-3.9871,-3.9871,-3.9726,-3.9639,-3.9639,-3.9654,-3.9639,-3.9639,-3.9654,-3.9654,-3.9654,-3.9639,-3.9392,-3.8986,-3.8957,-3.8696,-3.8217,-3.8202,-3.8202,-3.8188,-3.7897,-3.7752,-3.7752,-3.7752,-3.7767,-3.7752,-3.7912,-3.7924,-3.7751,-3.7562,-3.7096,-3.6319,-3.6244,-3.5835,-3.508,-3.4492,-3.4133,-3.3978,-3.3403,-3.3101,-3.3122,-3.2653,0.0,0.0,0.0,0.0,0.0,0.0,0.0,0.0,0.0,-3.1535,-3.1545,0.0,-3.1663,0.0,-3.1584,-3.1834,-3.2468,-3.2525,0.0,0.0,-3.2716,-3.2544,-3.209,-3.2047,-3.2047,-3.2047,-3.2047,-3.199,-3.1833,-3.1947,-3.1812,-3.1224,-3.0826,-3.0612,-3.0612,-3.0612,-3.0612,-3.0627,-3.0641,-3.0612,-3.0627,-3.0612,-3.0627,-3.0612,-3.0612,-3.0612,-3.0612,-3.0612,-3.0612,-3.0612,-3.0496,-3.035,-3.0365,-3.0205,-3.0162,-3.0075,-2.9261,-2.8448,-2.8448,-2.8331,-2.8071,-4.4385,-4.4327,-4.3703,-4.2818,-4.1787,-4.1221,-4.0989,-4.0989,-4.0989,-4.0989,-4.096,-4.067,-4.0365,-4.0104,-4.0104,-4.0104,-4.0104,-4.0104,-4.0104,-4.0104,-4.0104,-4.0104,-4.0104,-4.0104,-3.9915,-3.9596,-3.9596,-3.9421,-3.9059,-3.9044,-3.902,-3.8905,-3.8905,-3.8722,-3.8318,-3.8234,-3.8165,-3.8066,-3.7991,-3.7863,-3.7777,-3.7572,-3.7248,-3.6807,-3.6717,-3.6344,-3.5625,-3.5236,-3.4927,-3.4646,-3.4309,-3.4,-3.3697,-3.3466,-3.3119,0.0,0.0,0.0,0.0,0.0,0.0,0.0,0.0,0.0,0.0,0.0,-3.2173,-3.2272,-3.2314,-3.2475,-3.2915,-3.2958,-3.3012,-3.3169,-3.3218,-3.3109,-3.2835,-3.2792,-3.2792,-3.2792,-3.2792,-3.2692,-3.2406,-3.2415,-3.2252,-3.165,-3.1343,-3.1036,-3.0684,-3.0612,-3.0699,-3.0945,-3.0988,-3.0988,-3.1003,-3.1003,-3.0932,-3.067,-3.0612,-3.0612,-3.0612,-3.0612,-3.0612,-3.0612,-3.0612,-3.0612,-3.0612,-3.0612,-3.0612,-3.051,-3.0045,-2.9493,-2.916,-2.8898,-2.8578,-4.501,-4.4951,-4.4356,-4.411,-4.4023,-4.2832,-4.2295,-4.2194,-4.2121,-4.2092,-4.2063,-4.1482,-4.0902,-4.0365,-4.035,-4.035,-4.035,-4.0365,-4.035,-4.035,-4.035,-4.035,-4.035,-4.035,-4.0307,-4.022,-4.022,-4.0176,-4.0064,-4.0064,-3.996,-3.9776,-3.975,-3.9384,-3.8628,-3.8472,-3.8202,-3.7868,-3.7663,-3.7572,-3.7534,-3.7394,-3.7264,-3.7264,-3.7095,-3.6778,-3.6258,-3.6145,-3.5864,-3.5344,-3.5231,-3.495,-3.4379,-3.4245,-3.3783,0.0,-3.273,0.0,0.0,0.0,0.0,0.0,0.0,0.0,0.0,-3.2525,-3.275,-3.3248,-3.3276,-3.3276,-3.3276,-3.3276,-3.3396,-3.3536,-3.3585,-3.3654,-3.3779,-3.3827,-3.3813,-3.3813,-3.3827,-3.3599,-3.3024,-3.2958,-3.273,-3.2127,-3.2017,-3.1736,-3.0966,-3.0841,-3.1013,-3.149,-3.1579,-3.1579,-3.1594,-3.1625,-3.1438,-3.0872,-3.0772,-3.0685,-3.0627,-3.0612,-3.0612,-3.0612,-3.0612,-3.0612,-3.0612,-3.0612,-3.0612,-3.0598,-3.0539,-3.0351,-2.9856,-2.9392,-2.8927,-4.5706,-4.5634,-4.498,-4.4719,-4.4647,-4.3935,-4.3311,-4.2789,-4.2295,-4.2092,-4.2078,-4.1961,-4.1845,-4.1729,-4.1715,-4.1715,-4.1715,-4.1729,-4.1715,-4.1729,-4.1715,-4.1715,-4.1715,-4.1729,-4.1439,-4.0916,-4.0902,-4.0546,-3.9841,-3.9841,-3.9736,-3.9565,-3.9565,-3.9467,-3.9313,0.0,0.0,0.0,-3.7471,-3.7341,-3.7341,-3.7187,-3.707,-3.7056,-3.7017,0.0,-3.6835,-3.637,-3.6061,-3.5934,-3.5456,0.0,0.0,0.0,0.0,0.0,0.0,0.0,0.0,0.0,0.0,0.0,-3.3065,-3.3051,-3.3129,-3.3108,-3.315,-3.3276,-3.3276,-3.3276,-3.3276,-3.3276,-3.3326,-3.3361,-3.3347,-3.3361,-3.341,-3.3431,-3.3431,-3.3396,-3.3396,-3.3388,-3.3248,-3.3352,-3.32,-3.2605,-3.2592,-3.2406,-3.1758,-3.1647,-3.1672,-3.1815,-3.2019,-3.2083,-3.2054,-3.2197,-3.206,-3.1526,-3.1337,-3.1134,-3.0743,-3.0612,-3.0612,-3.0612,-3.0612,-3.0612,-3.0612,-3.0612,-3.0598,-3.0612,-3.0612,-3.0569,-3.0452,-3.0336,-3.0104,-4.588,0.0,-4.5518,-4.5387,0.0,-4.4705,-4.4066,-4.3442,-4.2818,-4.2368,-4.2092,-4.2092,-4.2092,-4.2092,-4.2092,-4.2092,-4.2092,-4.1953,-4.1883,-4.1897,-4.1787,-4.176,-4.176,-4.176,-4.1587,-4.1256,-4.1256,-4.1027,-4.0603,-4.0603,-4.0465,-4.0245,-4.0259,-4.0035,-3.9655,-3.9357,-3.8916,-3.8396,-3.7887,-3.76,-3.7585,-3.7225,-3.6978,-3.6978,-3.6978,0.0,0.0,0.0,0.0,0.0,0.0,0.0,0.0,0.0,0.0,-3.4702,-3.4393,-3.4225,-3.4225,-3.4116,-3.4044,-3.4044,-3.3656,-3.3386,-3.3304,-3.3276,-3.3276,-3.3276,-3.3276,-3.3276,-3.3276,-3.3276,-3.3276,-3.3276,-3.3276,-3.3276,-3.3276,-3.3276,-3.3276,-3.3276,-3.3276,-3.3276,-3.3276,-3.3396,-3.3304,-3.3008,-3.3041,-3.2948,-3.2622,-3.2203,-3.1989,-3.2364,-3.2787,-3.2911,-3.261,-3.2717,-3.263,-3.2006,-3.1635,-3.1379,-3.1105,-3.0771,-3.0612,-3.0612,-3.0612,-3.0612,-3.0612,-3.0612,-3.0582,-3.0463,-3.0447,-3.0447,-3.0477,-3.0507,-3.0525,-4.588,-4.588,-4.588,-4.588,-4.5837,-4.5285,-4.4647,-4.3935,0.0,0.0,0.0,-4.2092,-4.2092,-4.2092,-4.2092,-4.2065,-4.2009,-4.18,-4.1702,-4.1619,-4.1465,-4.141,-4.141,-4.141,-4.141,-4.141,-4.141,-4.1396,-4.1339,-4.1297,-4.1198,-4.0958,-4.0958,-4.0633,-3.9985,-3.9437,-3.9308,-3.9403,-3.8535,-3.8018,-3.7892,-3.74,-3.7091,-3.6993,-3.6978,-3.6978,-3.6978,-3.6978,-3.6978,-3.6978,-3.6978,-3.6768,-3.63,-3.6174,-3.5855,-3.534,-3.5222,-3.5129,-3.5078,-3.4854,-3.4742,-3.4742,-3.4136,-3.3633,-3.3381,-3.3241,-3.3206,-3.3171,-3.3241,-3.3241,-3.3241,-3.3276,-3.3276,-3.3276,-3.3276,-3.3276,-3.3276,-3.3276,-3.3276,-3.3276,-3.3276,-3.3276,-3.3276,-3.3326,-3.3276,-3.3312,-3.3269,-3.3276,-3.3199,-3.2659,-3.2397,-3.2871,-3.3337,-3.3605,-3.3206,-3.3197,-3.3039,-3.2464,-3.2014,-3.1691,-3.1404,-3.0998,-3.0696,-3.0506,-3.0522,-3.0492,-3.0522,-3.0492,-3.0447,-3.0296,-3.0266,-3.0266,-3.0296,-3.0417,-3.0523,-4.588,-4.588,-4.588,-4.588,-4.588,-4.5779,-4.5082,-4.3921,-4.2745,-4.2179,-4.2092,-4.2092,-4.2092,-4.2092,-4.2092,-4.1995,-4.1744,-4.1729,-4.1619,-4.1438,-4.1396,-4.141,-4.141,-4.141,-4.141,-4.141,-4.141,-4.1297,-4.11,-4.1043,-4.093,-4.0773,-4.073,-4.0688,-4.0575,-4.0477,-4.0491,-4.0449,-3.9352,-3.8468,-3.792,-3.7807,-3.7512,-3.7021,-3.6993,-3.6978,-3.6978,-3.6978,-3.6978,-3.6978,-3.6978,-3.6936,-3.6838,-3.636,-3.5999,-3.5687,-3.5161,-3.478,-3.463,-3.454,-3.454,-3.454,-3.4434,-3.413,-3.361,-3.3093,-3.2775,-3.2789,-3.3022,-3.3023,-3.3058,-3.3234,-3.3319,-3.3276,-3.3276,-3.3276,-3.3276,-3.3276,-3.3276,-3.3276,-3.3276,-3.3276,-3.3276,-3.3276,-3.3276,-3.3276,-3.3276,-3.3276,-3.3283,-3.3185,-3.3136,-3.3241,-3.3465,-3.3597,-3.347,-3.3671,-3.3473,-3.2916,-3.2734,-3.2295,-3.1403,-3.1045,-3.079,-3.0287,-3.0232,-3.0203,-3.0172,-3.0172,-3.0158,-3.0127,-3.0127,-3.0142,-3.0127,-3.0249,-3.0417,-4.588,-4.588,-4.588,-4.588,-4.5866,-4.5503,-4.5024,-4.44,-4.3529,-4.2731,-4.2107,-4.2092,-4.2092,-4.2092,-4.1939,-4.1841,-4.1688,-4.1437,-4.1269,-4.1184,-4.1086,-4.1015,-4.1001,-4.1015,-4.1001,-4.1043,-4.1001,-4.0958,-4.0845,-4.0845,-4.0773,-4.0702,-4.0702,-4.0702,-4.0702,-4.0702,-4.0702,-4.0688,-3.9831,-3.9268,-3.8917,-3.8635,-3.8131,-3.7498,-3.7484,-3.7316,-3.6993,-3.6978,-3.6978,-3.6978,-3.6875,-3.685,-3.685,-3.6468,-3.6211,-3.6133,-3.5845,-3.564,-3.551,-3.5432,-3.5315,-3.5171,-3.4831,-3.4544,-3.4285,-3.3908,-3.3661,-3.3675,-3.3771,-3.3706,-3.3523,-3.3589,-3.3549,-3.3304,-3.3276,-3.3276,-3.3276,-3.3276,-3.3276,-3.3276,-3.3276,-3.3276,-3.3276,-3.3276,-3.3276,-3.3276,-3.3276,-3.3276,-3.3276,-3.3276,-3.3276,-3.3312,-3.3361,-3.3431,-3.3466,-3.3605,-3.3581,-3.3297,-3.3072,-3.2678,-3.2021,-3.1579,-3.0951,-3.0637,-3.0337,-3.0109,-3.0095,-3.008,-3.0036,-2.996,-2.9929,-2.9929,-2.996,-3.0144,-3.0357,-4.588,-4.588,-4.588,-4.588,-4.5837,-4.5329,-4.5024,-4.4835,-4.4385,-4.3558,-4.2586,-4.2368,-4.2223,-4.2092,-4.1841,-4.166,-4.1577,-4.1184,-4.1015,-4.093,-4.0773,-4.0702,-4.0702,-4.0702,-4.0702,-4.0702,-4.0702,-4.0702,-4.0702,-4.0702,-4.0702,-4.0702,-4.0702,-4.0702,-4.0702,-4.0702,-4.0702,-4.0674,-4.0224,-3.9929,-3.9774,-3.9352,-3.8804,-3.8173,-3.7962,-3.7681,-3.7217,-3.7063,-3.6978,-3.6915,-3.6786,-3.6668,-3.6642,-3.6484,-3.6405,-3.6312,-3.6325,-3.6325,-3.6232,-3.6112,-3.5898,-3.571,-3.5303,-3.4992,-3.5004,-3.4883,-3.4626,-3.442,-3.4348,-3.4282,-3.4021,-3.4071,-3.3999,-3.3682,-3.3697,-3.3683,-3.3529,-3.3487,-3.3417,-3.3333,-3.3276,-3.3276,-3.3276,-3.3276,-3.3276,-3.3276,-3.3276,-3.3276,-3.3276,-3.3276,-3.3276,-3.3276,-3.3276,-3.3312,-3.3326,-3.3445,-3.3486,-3.3536,-3.3257,-3.2942,-3.2601,-3.1862,-3.1308,-3.1091,-3.0597,-3.0284,-3.0202,-3.0059,-2.9941,-2.9806,-2.9761,-2.9761,-2.9808,-2.9976,-3.0237,-4.588,-4.588,-4.588,-4.588,-4.5866,-4.5808,-4.5445,-4.4937,-4.4835,-4.4443,-4.3761,-4.3181,-4.2615,-4.2094,-4.1856,-4.1619,-4.1423,-4.1128,-4.0887,-4.0744,-4.0702,-4.0702,-4.0702,-4.0702,-4.0702,-4.0702,-4.073,-4.0744,-4.0702,-4.0702,-4.0702,-4.0702,-4.0702,-4.0702,-4.0702,-4.0702,-4.0702,-4.0702,-4.0645,-4.035,-3.9816,-3.9732,-3.9409,-3.8832,-3.8215,-3.7878,-3.7779,-3.7288,-3.6929,-3.6747,-3.6707,-3.6628,-3.6431,-3.6391,-3.6325,-3.6126,-3.6112,-3.6032,-3.5804,-3.575,-3.575,-3.571,-3.5655,-3.5601,-3.5601,-3.5601,-3.5112,-3.4324,-3.4178,-3.4292,-3.4207,-3.4471,-3.4641,-3.4548,-3.4747,-3.4809,-3.4231,-3.4104,-3.3908,-3.3333,-3.3466,-3.329,-3.3375,-3.3319,-3.3276,-3.3276,-3.3276,-3.3276,-3.3276,-3.3276,-3.3276,-3.3276,-3.3276,-3.3276,-3.3276,-3.3312,-3.3347,-3.3347,-3.3318,-3.3058,-3.267,-3.2416,-3.2143,-3.1533,-3.0946,-3.0584,-3.0312,-3.0056,-2.9676,-2.9665,-2.9651,-2.9651,-2.9761,-2.9853,-2.9993,-4.588,-4.588,-4.588,-4.588,-4.588,-4.588,-4.5735,-4.5474,-4.5474,-4.5111,-4.4531,-4.4226,-4.3558,-4.2573,-4.1847,-4.1465,-4.1396,-4.1001,-4.0773,-4.0702,-4.0702,-4.0702,-4.0702,-4.0702,-4.0702,-4.0744,-4.1067,-4.1053,-4.0758,-4.0702,-4.0702,-4.0702,-4.0702,-4.0702,-4.0702,-4.0702,-4.0702,-4.0702,-4.0702,-4.0575,-4.035,-4.0322,-4.0041,-3.9451,-3.9142,-3.8636,-3.7976,-3.7639,-3.7293,-3.6749,-3.6603,-3.6445,-3.6232,-3.6058,-3.5924,-3.5858,-3.5858,-3.5804,-3.571,-3.571,-3.571,-3.571,-3.571,-3.571,-3.571,-3.571,-3.5453,-3.5113,-3.503,-3.4986,-3.4801,-3.4901,-3.4941,-3.4839,-3.4892,-3.4906,-3.4829,-3.4809,-3.4697,-3.4472,-3.4393,-3.4225,-3.3866,-3.3501,-3.3304,-3.3276,-3.3276,-3.3276,-3.3276,-3.3276,-3.3276,-3.3276,-3.3276,-3.3276,-3.3276,-3.3276,-3.3276,-3.3276,-3.3276,-3.3122,-3.3002,-3.2595,-3.2286,-3.2061,-3.1499,-3.0951,-3.0544,-3.0329,-3.0048,-2.9827,-2.9602,-2.9634,-2.9682,-2.9744,-2.9915,-4.588,-4.588,-4.588,-4.588,-4.588,-4.588,-4.588,-4.588,-4.588,-4.5605,-4.5169,-4.4966,-4.4385,-4.3443,-4.2209,-4.1567,-4.1354,-4.0915,-4.0702,-4.0702,-4.0702,-4.0702,-4.0702,-4.0884,-4.0955,-4.1053,-4.1587,-4.1643,-4.1221,-4.1011,-4.094,-4.094,-4.0786,-4.0702,-4.0702,-4.0702,-4.0702,-4.0702,-4.0702,-4.0702,-4.0702,-4.0702,-4.0491,-4.0055,-3.9859,-3.9269,-3.8215,-3.7964,-3.7426,-3.6684,-3.6431,-3.6192,-3.5992,-3.5804,-3.571,-3.571,-3.571,-3.571,-3.571,-3.571,-3.571,-3.571,-3.571,-3.571,-3.571,-3.571,-3.571,-3.5683,-3.571,-3.5519,-3.5339,-3.5309,-3.5313,-3.5235,-3.5294,-3.539,-3.5447,-3.5442,-3.5372,-3.5231,-3.5062,-3.5034,-3.452,-3.4,-3.3571,-3.3585,-3.3403,-3.3276,-3.3276,-3.3276,-3.3276,-3.3276,-3.3276,-3.3276,-3.3276,-3.3276,-3.3276,-3.3276,-3.3276,-3.3276,-3.3276,-3.289,-3.2679,-3.2609,-3.2089,-3.1682,-3.1302,-3.0975,-3.0315,-2.9841,-2.9631,-2.9645,-2.9634,-2.9682,-2.9837,-4.588,-4.588,-4.588,-4.588,-4.588,-4.588,-4.588,-4.588,-4.588,-4.5851,-4.5706,-4.5184,-4.485,-4.4647,-4.3056,-4.1938,-4.1425,-4.0915,-4.0702,-4.0702,-4.0702,-4.0702,-4.073,-4.1278,-4.1573,-4.1629,-4.2233,-4.25,-4.2416,-4.1868,-4.1587,-4.1531,-4.1025,-4.073,-4.0702,-4.0702,-4.0702,-4.0702,-4.0702,-4.0702,-4.0702,-4.0702,-4.0674,-4.0575,-4.0097,-3.9507,-3.8847,-3.8067,-3.7254,-3.6458,-3.6246,-3.5992,-3.5764,-3.571,-3.571,-3.571,-3.571,-3.571,-3.571,-3.571,-3.571,-3.571,-3.571,-3.571,-3.571,-3.571,-3.571,-3.571,-3.571,-3.5669,-3.5682,-3.5788,-3.6015,-3.6198,-3.6397,-3.6328,-3.6093,-3.6075,-3.578,-3.5414,-3.5302,-3.5245,-3.5147,-3.4576,-3.4217,-3.4048,-3.3669,-3.3333,-3.3375,-3.3333,-3.3276,-3.3276,-3.3276,-3.3276,-3.3276,-3.3276,-3.3276,-3.3276,-3.3276,-3.3276,-3.3276,-3.3248,-3.3255,-3.3143,-3.2693,-3.2342,-3.2103,-3.1485,-3.0526,-3.0024,-2.9813,-2.9743,-2.9645,-2.9617,-2.9727,-4.588,-4.588,-4.588,-4.588,-4.588,-4.588,-4.588,-4.588,-4.588,-4.588,-4.5851,-4.5634,-4.5285,-4.485,-4.4122,-4.3113,-4.1981,-4.1242,-4.0802,-4.0702,-4.0702,-4.0912,-4.1292,-4.1531,-4.1868,-4.2275,-4.2879,-4.3174,-4.309,-4.2542,-4.2008,-4.1643,-4.1404,-4.1109,-4.0772,-4.0702,-4.0702,-4.0702,-4.0702,-4.0702,-4.0702,-4.0702,-4.0702,-4.0702,-4.0491,-4.0069,-3.9507,-3.8614,-3.781,-3.7013,-3.6426,-3.5978,-3.5764,-3.571,-3.571,-3.571,-3.571,-3.571,-3.571,-3.571,-3.571,-3.571,-3.571,-3.571,-3.571,-3.571,-3.571,-3.571,-3.571,-3.571,-3.571,-3.5804,-3.6018,-3.6351,-3.647,-3.6584,-3.6648,-3.6694,-3.6595,-3.6356,-3.6061,-3.578,-3.5667,-3.5245,-3.4843,-3.4773,-3.4295,-3.3922,-3.3796,-3.3585,-3.3319,-3.329,-3.3276,-3.3276,-3.3276,-3.3276,-3.3276,-3.3276,-3.3276,-3.3276,-3.3276,-3.3276,-3.3269,-3.3269,-3.2988,-3.2736,-3.2412,-3.185,-3.0923,-3.0417,-3.0207,-3.0052,-2.9655,-2.9883,-2.9879,-4.588,-4.588,-4.588,-4.588,-4.588,-4.588,-4.588,-4.588,-4.588,-4.588,-4.588,-4.588,-4.5619,-4.5213,-4.4877,-4.4121,-4.3012,-4.208,-4.1552,-4.1408,-4.1335,-4.1531,-4.1896,-4.2121,-4.2444,-4.2921,-4.3497,-4.3793,-4.3722,-4.3174,-4.2669,-4.2247,-4.2036,-4.1615,-4.1095,-4.0983,-4.0926,-4.0758,-4.0702,-4.0702,-4.0702,-4.0702,-4.0702,-4.0702,-4.0702,-4.0421,-3.9802,-3.9062,-3.8353,-3.7606,-3.6729,-3.6102,-3.575,-3.571,-3.571,-3.571,-3.571,-3.571,-3.571,-3.571,-3.571,-3.571,-3.571,-3.571,-3.571,-3.571,-3.571,-3.571,-3.571,-3.571,-3.571,-3.571,-3.5884,-3.6312,-3.6405,-3.6589,-3.6915,-3.6978,-3.6964,-3.688,-3.6638,-3.6427,-3.629,-3.5836,-3.5555,-3.5484,-3.4913,-3.4548,-3.4464,-3.3992,-3.3571,-3.3543,-3.3417,-3.3319,-3.329,-3.329,-3.329,-3.329,-3.3276,-3.3276,-3.3276,-3.3276,-3.3276,-3.3276,-3.3164,-3.296,-3.2595,-3.2089,-3.1555,-3.0993,-3.0839,-3.0755,-3.0502,-3.0319,-3.0415,-4.588,-4.588,-4.588,-4.588,-4.588,-4.588,-4.588,-4.588,-4.588,-4.588,-4.588,-4.588,-4.5851,-4.5721,-4.5242,-4.4775,-4.4381,-4.3407,-4.2814,-4.2671,-4.2535,-4.2472,-4.2643,-4.3062,-4.3357,-4.3526,-4.4102,-4.4369,-4.4298,-4.3778,-4.3455,-4.3329,-4.2809,-4.2261,-4.1629,-4.1601,-4.1334,-4.0912,-4.0814,-4.0758,-4.0702,-4.0702,-4.0702,-4.0702,-4.0702,-4.0435,-3.9845,-3.9339,-3.8809,-3.8172,-3.7235,-3.6347,-3.5954,-3.5873,-3.5805,-3.5873,-3.5805,-3.5778,-3.5764,-3.5778,-3.5805,-3.571,-3.571,-3.571,-3.571,-3.571,-3.571,-3.571,-3.571,-3.571,-3.571,-3.571,-3.5884,-3.6312,-3.6405,-3.6589,-3.6875,-3.6978,-3.6978,-3.6978,-3.6894,-3.6964,-3.6852,-3.6483,-3.6131,-3.6005,-3.5597,-3.5189,-3.5147,-3.4632,-3.4259,-3.4119,-3.3972,-3.3789,-3.355,-3.3319,-3.3319,-3.3304,-3.329,-3.3276,-3.3276,-3.3276,-3.3276,-3.3276,-3.3276,-3.3066,-3.2904,-3.244,-3.2159,-3.171,-3.1612,-3.1387,-3.112,-3.0937,-3.1157,-4.588,-4.588,-4.588,-4.588,-4.588,-4.588,-4.588,-4.588,-4.588,-4.588,-4.588,-4.588,-4.588,-4.5851,-4.5648,-4.5516,-4.5427,-4.4731,-4.3856,-4.3041,-4.2733,-4.2851,-4.3188,-4.3413,-4.3722,-4.4088,-4.4312,-4.4425,-4.4383,-4.4214,-4.3933,-4.3526,-4.3315,-4.2879,-4.2317,-4.2247,-4.1966,-4.1404,-4.1334,-4.1137,-4.0758,-4.0702,-4.0702,-4.0702,-4.0702,-4.0589,-4.0421,-3.9745,-3.9227,-3.8808,-3.7991,-3.7315,-3.6999,-3.693,-3.6916,-3.693,-3.693,-3.6754,-3.6375,-3.6307,-3.6144,-3.5832,-3.5737,-3.571,-3.571,-3.5723,-3.571,-3.571,-3.571,-3.571,-3.571,-3.571,-3.5924,-3.6351,-3.6405,-3.6549,-3.6915,-3.6978,-3.6978,-3.6978,-3.6978,-3.6978,-3.6964,-3.6712,-3.6694,-3.6638,-3.6188,-3.5836,-3.5723,-3.5287,-3.4885,-3.4829,-3.4612,-3.4309,-3.4084,-3.3888,-3.3803,-3.3543,-3.3375,-3.329,-3.3276,-3.3276,-3.3276,-3.3276,-3.3276,-3.3206,-3.301,-3.2862,-3.2581,-3.237,-3.2174,-3.1893,-3.1583,-3.1631,-3.1833,-4.588,-4.588,-4.588,-4.588,-4.588,-4.588,-4.588,-4.588,-4.588,-4.588,-4.588,-4.588,-4.588,-4.588,-4.588,-4.588,-4.5835,-4.5353,-4.4619,-4.3769,-4.3381,-4.3497,-4.3821,-4.3835,-4.4003,-4.434,-4.4411,-4.4425,-4.4425,-4.4411,-4.4214,-4.3891,-4.3835,-4.3526,-4.2992,-4.2907,-4.2612,-4.2036,-4.1727,-4.1418,-4.1067,-4.0814,-4.0702,-4.0702,-4.0702,-4.0702,-4.0674,-4.0181,-3.9772,-3.9333,-3.8552,-3.7913,-3.7582,-3.7472,-3.7499,-3.7499,-3.7472,-3.7338,-3.6985,-3.6931,-3.6822,-3.6442,-3.6171,-3.6062,-3.6008,-3.59,-3.571,-3.571,-3.571,-3.571,-3.5723,-3.5817,-3.6018,-3.6365,-3.6405,-3.6575,-3.6915,-3.6978,-3.6978,-3.6978,-3.6978,-3.6978,-3.6978,-3.6978,-3.6978,-3.6922,-3.6708,-3.6441,-3.6328,-3.592,-3.5681,-3.5442,-3.5161,-3.4871,-3.4646,-3.4464,-3.4295,-3.3902,-3.3473,-3.3361,-3.3276,-3.3276,-3.3276,-3.3276,-3.3276,-3.3276,-3.3122,-3.3164,-3.301,-3.2876,-3.2679,-3.2609,-3.2426,-3.2356,-3.2503,-4.588,-4.588,-4.588,-4.588,-4.588,-4.588,-4.588,-4.588,-4.588,-4.588,-4.588,-4.588,-4.588,-4.588,-4.588,-4.588,-4.5805,-4.5367,-4.5049,-4.4766,-4.4489,-4.4284,-4.4298,-4.4298,-4.434,-4.4411,-4.4425,-4.4425,-4.4425,-4.4425,-4.4425,-4.434,-4.4298,-4.413,-4.3638,-4.354,-4.3231,-4.264,-4.2093,-4.1812,-4.1657,-4.1081,-4.08,-4.08,-4.0744,-4.0702,-4.0688,-4.0589,-4.0388,-3.9913,-3.9027,-3.8304,-3.7799,-3.7607,-3.7716,-3.7756,-3.7634,-3.7634,-3.7567,-3.7526,-3.7458,-3.7282,-3.6904,-3.6619,-3.6483,-3.613,-3.5818,-3.5723,-3.571,-3.571,-3.5764,-3.5898,-3.6152,-3.6365,-3.6484,-3.6654,-3.6915,-3.6978,-3.6978,-3.6978,-3.6978,-3.6978,-3.6978,-3.6978,-3.6978,-3.6964,-3.6922,-3.6866,-3.6782,-3.6445,-3.6244,-3.6019,-3.5822,-3.5555,-3.5307,-3.518,-3.4983,-3.4478,-3.4014,-3.3747,-3.3424,-3.329,-3.3276,-3.3276,-3.3276,-3.3276,-3.3276,-3.3276,-3.3276,-3.3122,-3.3108,-3.3248,-3.3164,-3.2988,-3.2904,-4.588,-4.588,-4.588,-4.588,-4.588,-4.588,-4.588,-4.588,-4.588,-4.588,-4.588,-4.588,-4.588,-4.588,-4.5895,-4.5805,-4.5564,-4.5276,-4.5,-4.483,-4.4551,-4.4411,-4.4425,-4.4425,-4.4425,-4.4425,-4.4425,-4.4425,-4.4425,-4.4425,-4.4425,-4.4425,-4.4411,-4.434,-4.4186,-4.4144,-4.3849,-4.3329,-4.3104,-4.2725,-4.2275,-4.1699,-4.139,-4.1334,-4.0955,-4.0744,-4.0673,-4.0544,-4.0328,-4.0009,-3.9623,-3.921,-3.879,-3.8762,-3.8722,-3.8735,-3.8762,-3.8613,-3.8274,-3.8149,-3.796,-3.754,-3.739,-3.7094,-3.6632,-3.6469,-3.6144,-3.5859,-3.571,-3.571,-3.5764,-3.5938,-3.6246,-3.6563,-3.6733,-3.6836,-3.694,-3.6978,-3.6978,-3.6978,-3.6978,-3.6978,-3.6978,-3.6978,-3.6978,-3.6978,-3.6978,-3.6978,-3.6908,-3.688,-3.6624,-3.6697,-3.6557,-3.6262,-3.6061,-3.592,-3.5639,-3.5147,-3.4697,-3.4317,-3.3817,-3.3333,-3.3304,-3.3276,-3.3276,-3.3276,-3.3276,-3.3276,-3.3276,-3.3276,-3.3276,-3.3276,-3.3276,-3.315,-3.3136,-4.588,-4.588,-4.588,-4.588,-4.588,-4.588,-4.588,-4.588,-4.588,-4.588,-4.588,-4.588,-4.5835,-4.5745,-4.5745,-4.5595,-4.5307,-4.5092,-4.4922,-4.4783,-4.4504,-4.4425,-4.4425,-4.4425,-4.4425,-4.4425,-4.4425,-4.4425,-4.4425,-4.4425,-4.4425,-4.4425,-4.4425,-4.4425,-4.4397,-4.4411,-4.4256,-4.3891,-4.3638,-4.3287,-4.2935,-4.2345,-4.2064,-4.1896,-4.1418,-4.0997,-4.0715,-4.0587,-4.0371,-4.0053,-3.9804,-3.9554,-3.9349,-3.9305,-3.9305,-3.9305,-3.9305,-3.9115,-3.8884,-3.879,-3.864,-3.8271,-3.8055,-3.7758,-3.7351,-3.6958,-3.6388,-3.6171,-3.5886,-3.5737,-3.5764,-3.6032,-3.6391,-3.6733,-3.6915,-3.6978,-3.6978,-3.6978,-3.6978,-3.6978,-3.6978,-3.6978,-3.6978,-3.6978,-3.6978,-3.6978,-3.6978,-3.6978,-3.6964,-3.6978,-3.6978,-3.6978,-3.6978,-3.6669,-3.6515,-3.6416,-3.6202,-3.5723,-3.5217,-3.4837,-3.4281,-3.3627,-3.3375,-3.3347,-3.3304,-3.3276,-3.3276,-3.3276,-3.3276,-3.3276,-3.3276,-3.3276,-3.3276,-3.3276,-3.3276,-4.5822,-4.588,-4.5808,-4.5822,-4.5866,-4.588,-4.588,-4.588,-4.588,-4.588,-4.588,-4.588,-4.5745,-4.5504,-4.5549,-4.5353,-4.5078,-4.4922,-4.4783,-4.469,-4.4518,-4.4425,-4.4425,-4.4425,-4.4425,-4.4425,-4.4425,-4.4425,-4.4425,-4.4425,-4.4425,-4.4425,-4.4425,-4.4425,-4.4425,-4.4425,-4.4425,-4.427,-4.3919,-4.3694,-4.3483,-4.3006,-4.2683,-4.2584,-4.205,-4.1432,-4.1025,-4.0799,-4.0598,-4.0097,-3.9848,-3.9628,-3.9407,-3.9363,-3.9305,-3.9305,-3.9305,-3.9278,-3.9278,-3.9224,-3.9264,-3.9088,-3.8722,-3.8464,-3.8152,-3.7473,-3.6863,-3.651,-3.6103,-3.5927,-3.5884,-3.6192,-3.6549,-3.6875,-3.6978,-3.6978,-3.6978,-3.6978,-3.6978,-3.6978,-3.6978,-3.6978,-3.6978,-3.6978,-3.6978,-3.6978,-3.6978,-3.6978,-3.6978,-3.6978,-3.6978,-3.6978,-3.6978,-3.6978,-3.6922,-3.6908,-3.6652,-3.6272,-3.5709,-3.5259,-3.4787,-3.4239,-3.3683,-3.3445,-3.3431,-3.3361,-3.3276,-3.3276,-3.3276,-3.3276,-3.3276,-3.3276,-3.3276,-3.3276,-3.3276,-4.5416,-4.5851,-4.5329,-4.5401,-4.5837,-4.588,-4.588,-4.588,-4.588,-4.588,-4.588,-4.588,-4.573,-4.5504,-4.5458,-4.5276,-4.4876,-4.4783,-4.4705,-4.4518,-4.4472,-4.4425,-4.4425,-4.4425,-4.4425,-4.4425,-4.4425,-4.4425,-4.4425,-4.4425,-4.4425,-4.4425,-4.4425,-4.4425,-4.4425,-4.4425,-4.4425,-4.4397,-4.4256,-4.4186,-4.4059,-4.3624,-4.3287,-4.3202,-4.2683,-4.2064,-4.1559,-4.1418,-4.1063,-4.0467,-4.0095,-3.9873,-3.9612,-3.9394,-3.9305,-3.9305,-3.9305,-3.9305,-3.9305,-3.9305,-3.9305,-3.9278,-3.9142,-3.8925,-3.845,-3.8206,-3.7514,-3.689,-3.6469,-3.6348,-3.6261,-3.6484,-3.6707,-3.6915,-3.6978,-3.6978,-3.6978,-3.6978,-3.6978,-3.6978,-3.6978,-3.6978,-3.6978,-3.6978,-3.6978,-3.6978,-3.6978,-3.6978,-3.6978,-3.6978,-3.6978,-3.6978,-3.6978,-3.6978,-3.6978,-3.6978,-3.6838,-3.668,-3.6216,-3.5892,-3.5433,-3.4843,-3.4337,-3.388,-3.3571,-3.3473,-3.3361,-3.3276,-3.3276,-3.3276,-3.3276,-3.3276,-3.3276,-3.3276,-3.3276,-4.5097,-4.5372,-4.5039,-4.5271,-4.5822,-4.588,-4.588,-4.588,-4.588,-4.588,-4.588,-4.579,-4.5549,-4.5307,-4.5184,-4.4968,-4.469,-4.4597,-4.4565,-4.4425,-4.4425,-4.4425,-4.4425,-4.4425,-4.4425,-4.4425,-4.4425,-4.4425,-4.4425,-4.4425,-4.4425,-4.4425,-4.4425,-4.4425,-4.4425,-4.4425,-4.4425,-4.4425,-4.4425,-4.4425,-4.434,-4.4116,-4.3722,-4.354,-4.316,-4.2711,-4.2149,-4.2064,-4.1697,-4.1102,-4.0614,-4.0211,-3.9741,-3.9452,-3.9319,-3.9305,-3.9305,-3.9305,-3.9305,-3.9305,-3.9305,-3.9305,-3.9305,-3.9142,-3.8817,-3.8627,-3.8179,-3.7501,-3.7069,-3.6702,-3.6567,-3.6603,-3.6772,-3.6954,-3.6978,-3.6978,-3.6978,-3.6978,-3.6978,-3.6978,-3.6978,-3.6978,-3.6978,-3.6978,-3.6978,-3.6978,-3.6978,-3.6978,-3.6978,-3.6978,-3.6978,-3.6978,-3.6978,-3.6978,-3.6978,-3.6978,-3.6978,-3.6852,-3.6722,-3.6553,-3.6332,-3.5658,-3.4969,-3.4506,-3.3978,-3.3585,-3.3459,-3.3375,-3.329,-3.3276,-3.3276,-3.3276,-3.3276,-3.3276,-3.3276,-4.4806,-4.4879,-4.4879,-4.5271,-4.5837,-4.588,-4.588,-4.588,-4.588,-4.588,-4.5805,-4.5595,-4.5367,-4.5092,-4.4922,-4.4644,-4.4457,-4.4425,-4.4425,-4.4425,-4.4425,-4.4425,-4.4425,-4.4425,-4.4425,-4.4425,-4.4425,-4.4425,-4.4425,-4.4425,-4.4425,-4.4425,-4.4425,-4.4425,-4.4425,-4.4425,-4.4425,-4.4425,-4.4425,-4.4425,-4.4425,-4.4355,-4.4102,-4.3807,-4.3666,-4.3329,-4.2851,-4.2669,-4.243,-4.1767,-4.1357,-4.0683,-4.0004,-3.9479,-3.9305,-3.9305,-3.9305,-3.9305,-3.9305,-3.9305,-3.9305,-3.9305,-3.9305,-3.9305,-3.9169,-3.8884,-3.8545,-3.8143,-3.7671,-3.7194,-3.6976,-3.6998,-3.7074,-3.7108,-3.7091,-3.6993,-3.6978,-3.6978,-3.6978,-3.6978,-3.6978,-3.6978,-3.6978,-3.6978,-3.6978,-3.6978,-3.6978,-3.6978,-3.6978,-3.6978,-3.6978,-3.6978,-3.6978,-3.6978,-3.6978,-3.6978,-3.6978,-3.6964,-3.6922,-3.6908,-3.6933,-3.6431,-3.57,-3.4941,-3.4399,-3.3992,-3.3599,-3.3431,-3.3361,-3.3304,-3.3276,-3.3276,-3.3276,-3.3276,-3.3276,-4.4429,-4.4879,-4.4879,-4.5271,-4.5822,-4.588,-4.588,-4.588,-4.588,-4.579,-4.5564,-4.5518,-4.523,-4.4922,-4.4844,-4.4658,-4.4472,-4.4425,-4.4425,-4.4425,-4.4425,-4.4425,-4.4425,-4.4425,-4.4425,-4.4425,-4.4425,-4.4425,-4.4425,-4.4425,-4.4425,-4.4425,-4.4425,-4.4425,-4.4425,-4.4425,-4.4425,-4.4425,-4.4425,-4.4425,-4.4425,-4.4411,-4.4383,-4.4172,-4.4158,-4.3877,-4.3497,-4.3315,-4.3048,-4.25,-4.2178,-4.1546,-4.0749,-3.9868,-3.9472,-3.9305,-3.9305,-3.9305,-3.9305,-3.9305,-3.9305,-3.9305,-3.9305,-3.9305,-3.9278,-3.9169,-3.8857,-3.8485,-3.8236,-3.8007,-3.8212,-3.7872,-3.7714,-3.7653,-3.74,-3.7105,-3.7063,-3.7063,-3.7021,-3.6993,-3.6993,-3.6978,-3.6978,-3.6978,-3.6978,-3.6978,-3.6978,-3.6978,-3.6978,-3.6978,-3.6978,-3.6978,-3.6978,-3.6978,-3.6978,-3.6978,-3.6978,-3.6978,-3.6964,-3.6964,-3.695,-3.695,-3.6431,-3.5714,-3.4969,-3.4357,-3.3992,-3.3627,-3.3403,-3.3347,-3.3319,-3.329,-3.3276,-3.3276,-3.3276,-4.4342,-4.4879,-4.4879,-4.5271,-4.5808,-4.588,-4.588,-4.588,-4.5759,-4.5654,-4.5458,-4.5244,-4.5014,-4.4797,-4.4658,-4.4518,-4.4425,-4.4425,-4.4425,-4.4425,-4.4425,-4.4425,-4.4425,-4.4425,-4.4425,-4.4425,-4.4425,-4.4425,-4.4425,-4.4425,-4.4425,-4.4425,-4.4425,-4.4425,-4.4425,-4.4425,-4.4425,-4.4425,-4.4425,-4.4425,-4.4425,-4.4425,-4.4425,-4.4425,-4.4411,-4.4242,-4.4074,-4.3961,-4.3666,-4.3143,-4.2838,-4.2203,-4.1473,-4.0831,-4.0092,-3.954,-3.9346,-3.9305,-3.9305,-3.9305,-3.9305,-3.9305,-3.9305,-3.9305,-3.9305,-3.9251,-3.9135,-3.8892,-3.8719,-3.8686,-3.8683,-3.8525,-3.844,-3.841,-3.8128,-3.7793,-3.7555,-3.747,-3.7316,-3.7119,-3.7049,-3.7035,-3.6978,-3.6978,-3.6978,-3.6978,-3.6978,-3.6978,-3.6978,-3.6978,-3.6978,-3.6978,-3.6978,-3.6978,-3.6978,-3.6978,-3.6978,-3.6978,-3.6978,-3.6978,-3.6978,-3.6964,-3.6908,-3.6543,-3.577,-3.5012,-3.4315,-3.3936,-3.3655,-3.3389,-3.3333,-3.329,-3.329,-3.3276,-3.3276,-4.4342,-4.4893,-4.5024,-4.5387,-4.5837,-4.588,-4.588,-4.579,-4.5609,-4.5458,-4.5321,-4.5014,-4.4797,-4.4658,-4.4518,-4.4425,-4.4425,-4.4425,-4.4425,-4.4425,-4.4425,-4.4425,-4.4425,-4.4425,-4.4425,-4.4425,-4.4425,-4.4425,-4.4425,-4.4425,-4.4425,-4.4425,-4.4425,-4.4425,-4.4425,-4.4425,-4.4425,-4.4425,-4.4425,-4.4425,-4.4425,-4.4425,-4.4425,-4.4425,-4.4425,-4.4397,-4.434,-4.4326,-4.413,-4.376,-4.3412,-4.2944,-4.2155,-4.1828,-4.1105,-3.992,-3.9563,-3.9441,-3.9305,-3.9305,-3.9305,-3.9305,-3.9305,-3.9305,-3.9305,-3.9322,-3.9261,-3.9229,-3.9277,-3.9281,-3.9285,-3.9142,-3.9058,-3.9029,-3.893,-3.8678,-3.8271,-3.8018,-3.7765,-3.754,-3.7259,-3.7105,-3.7077,-3.6978,-3.6978,-3.6978,-3.6978,-3.6978,-3.6978,-3.6978,-3.6978,-3.6978,-3.6978,-3.6978,-3.6978,-3.6978,-3.6978,-3.6978,-3.6978,-3.6978,-3.6978,-3.6978,-3.6908,-3.6852,-3.6652,-3.5855,-3.5082,-3.4287,-3.3964,-3.3683,-3.3445,-3.3304,-3.329,-3.3276,-3.3276,-4.4342,-4.4951,-4.5518,-4.5822,-4.588,-4.588,-4.5745,-4.5549,-4.5504,-4.523,-4.4936,-4.483,-4.4644,-4.4504,-4.4472,-4.4425,-4.4425,-4.4425,-4.4425,-4.4425,-4.4425,-4.4425,-4.4425,-4.4425,-4.4425,-4.4425,-4.4425,-4.4425,-4.4425,-4.4425,-4.4425,-4.4425,-4.4425,-4.4425,-4.4425,-4.4425,-4.4425,-4.4425,-4.4425,-4.4425,-4.4425,-4.4425,-4.4425,-4.4425,-4.4425,-4.4425,-4.4425,-4.4425,-4.4312,-4.4298,-4.421,-4.3696,-4.2911,-4.268,-4.2024,-4.1145,-4.0404,-3.9861,-3.9495,-3.9414,-3.9346,-3.9346,-3.9305,-3.9305,-3.9305,-3.9305,-3.9397,-3.9631,-3.9754,-3.9875,-3.9883,-3.9816,-3.9704,-3.9535,-3.9353,-3.9086,-3.8804,-3.8707,-3.848,-3.8074,-3.7835,-3.7428,-3.7203,-3.7077,-3.6978,-3.6978,-3.6978,-3.6978,-3.6978,-3.6978,-3.6978,-3.6978,-3.6978,-3.6978,-3.6978,-3.6978,-3.6978,-3.6978,-3.6954,-3.6954,-3.6915,-3.6875,-3.69,-3.683,-3.6743,-3.655,-3.5811,-3.5083,-3.4419,-3.3978,-3.3726,-3.3487,-3.329,-3.3276,-3.3276,-4.4658,-4.5474,-4.5629,-4.5685,-4.564,-4.5504,-4.5413,-4.5276,-4.5138,-4.5014,-4.4797,-4.4658,-4.4504,-4.4411,-4.4425,-4.4425,-4.4425,-4.4425,-4.4425,-4.4425,-4.4425,-4.4425,-4.4425,-4.4425,-4.4425,-4.4425,-4.4425,-4.4425,-4.4425,-4.4425,-4.4425,-4.4425,-4.4425,-4.4425,-4.4425,-4.4425,-4.4425,-4.4425,-4.4425,-4.4425,-4.4425,-4.4425,-4.4425,-4.4425,-4.4425,-4.4425,-4.4425,-4.4425,-4.4425,-4.4378,-4.427,-4.3923,-4.3405,-4.3119,-4.2616,-4.1726,-4.1394,-4.0798,-3.9997,-3.9834,-3.9631,-3.9373,-3.9319,-3.9305,-3.9305,-3.9305,-3.9407,-3.9686,-3.976,-3.9936,-4.0154,-4.0134,-4.0179,-4.0026,-3.9774,-3.9606,-3.9396,-3.9408,-3.9226,-3.8791,-3.8397,-3.7978,-3.7531,-3.7279,-3.7136,-3.6978,-3.6978,-3.6978,-3.6978,-3.6978,-3.6978,-3.6978,-3.6978,-3.6978,-3.6978,-3.6978,-3.6993,-3.6954,-3.6811,-3.6811,-3.6786,-3.6772,-3.6772,-3.6693,-3.6545,-3.6364,-3.6206,-3.5763,-3.5041,-3.4489,-3.3992,-3.3662,-3.3332,-3.3241,-3.3241,-4.4936,-4.5685,-4.5518,-4.5413,-4.5413,-4.517,-4.5078,-4.4986,-4.4876,-4.4751,-4.4644,-4.4504,-4.4411,-4.4425,-4.4425,-4.4425,-4.4425,-4.4425,-4.4425,-4.4425,-4.4425,-4.4425,-4.4425,-4.4425,-4.4425,-4.4425,-4.4425,-4.4425,-4.4425,-4.4425,-4.4425,-4.4425,-4.4425,-4.4425,-4.4425,-4.4425,-4.4425,-4.4425,-4.4425,-4.4425,-4.4425,-4.4425,-4.4425,-4.4425,-4.4425,-4.4425,-4.4425,-4.4425,-4.4425,-4.4378,-4.4176,-4.3885,-4.3545,-4.3327,-4.2965,-4.2324,-4.2141,-4.172,-4.0892,-4.039,-3.9997,-3.9644,-3.9332,-3.9305,-3.9305,-3.9305,-3.9349,-3.9554,-3.97,-3.9774,-3.9936,-4.014,-4.0172,-4.023,-4.0275,-4.0123,-3.9942,-3.9802,-3.9536,-3.9048,-3.8685,-3.8461,-3.8042,-3.7608,-3.7324,-3.7038,-3.6978,-3.6978,-3.6954,-3.6954,-3.6875,-3.6889,-3.6875,-3.6836,-3.6811,-3.6836,-3.6889,-3.685,-3.6747,-3.6628,-3.6589,-3.6563,-3.651,-3.6445,-3.6365,-3.6375,-3.63,-3.5983,-3.5633,-3.4831,-3.4088,-3.3673,-3.3366,-3.3283,-3.3171,-4.5081,-4.517,-4.5124,-4.5138,-4.5124,-4.5124,-4.5,-4.483,-4.4797,-4.4644,-4.4457,-4.4411,-4.4425,-4.4425,-4.4425,-4.4425,-4.4425,-4.4425,-4.4425,-4.4425,-4.4425,-4.4425,-4.4425,-4.4425,-4.4425,-4.4425,-4.4425,-4.4425,-4.4425,-4.4425,-4.4425,-4.4425,-4.4425,-4.4425,-4.4425,-4.4425,-4.4425,-4.4425,-4.4425,-4.4425,-4.4425,-4.4425,-4.4425,-4.4425,-4.4425,-4.4425,-4.4425,-4.4425,-4.4364,-4.4364,-4.4082,-4.3832,-4.358,-4.3355,-4.3006,-4.2821,-4.2683,-4.2317,-4.1761,-4.096,-4.0296,-3.9997,-3.9712,-3.9386,-3.9305,-3.9305,-3.9305,-3.9349,-3.9554,-3.9656,-3.9774,-3.9892,-4.0023,-4.0053,-4.014,-4.01,-3.9991,-3.9976,-3.9683,-3.928,-3.8989,-3.8894,-3.8602,-3.8185,-3.7543,-3.7233,-3.6864,-3.6797,-3.6811,-3.6772,-3.6747,-3.6707,-3.6707,-3.6628,-3.6524,-3.6563,-3.6668,-3.6628,-3.6524,-3.6431,-3.6431,-3.6365,-3.6192,-3.6192,-3.6112,-3.6246,-3.6284,-3.5818,-3.5308,-3.4696,-3.4163,-3.3761,-3.327,-3.2951,-3.2846,-4.4676,-4.4676,-4.4676,-4.4769,-4.4922,-4.4723,-4.463,-4.4565,-4.4551,-4.4518,-4.4425,-4.4425,-4.4425,-4.4425,-4.4425,-4.4425,-4.4425,-4.4425,-4.4425,-4.4425,-4.4425,-4.4425,-4.4425,-4.4425,-4.4425,-4.4425,-4.4425,-4.4425,-4.4425,-4.4425,-4.4425,-4.4425,-4.4425,-4.4425,-4.4425,-4.4425,-4.4425,-4.4425,-4.4425,-4.4425,-4.4425,-4.4425,-4.4425,-4.4425,-4.4425,-4.4425,-4.4425,-4.4425,-4.4317,-4.4115,-4.3912,-4.3675,-4.3437,-4.3211,-4.3032,-4.2935,-4.2887,-4.2738,-4.248,-4.1693,-4.1042,-4.0241,-3.9956,-3.9712,-3.9396,-3.9332,-3.9319,-3.9349,-3.9349,-3.9407,-3.9496,-3.9672,-3.9818,-3.9848,-3.9848,-3.9878,-3.9878,-3.9791,-3.9736,-3.928,-3.9341,-3.9431,-3.9127,-3.8781,-3.8076,-3.7422,-3.699,-3.6682,-3.6737,-3.6642,-3.6563,-3.6524,-3.651,-3.647,-3.6351,-3.6405,-3.6484,-3.6365,-3.6246,-3.6166,-3.6072,-3.5817,-3.5696,-3.5737,-3.5737,-3.5696,-3.5602,-3.5413,-3.5099,-3.4747,-3.4334,-3.3928,-3.3353,-3.2715,-3.2547,-4.4425,-4.4425,-4.4425,-4.4518,-4.4644,-4.4457,-4.4425,-4.4425,-4.4411,-4.4425,-4.4425,-4.4425,-4.4425,-4.4425,-4.4425,-4.4425,-4.4425,-4.4425,-4.4425,-4.4425,-4.4425,-4.4425,-4.4425,-4.4425,-4.4425,-4.4425,-4.4425,-4.4425,-4.4425,-4.4425,-4.4425,-4.4425,-4.4425,-4.4425,-4.4425,-4.4425,-4.4425,-4.4425,-4.4425,-4.4425,-4.4425,-4.4425,-4.4425,-4.4425,-4.4425,-4.4425,-4.4364,-4.4317,-4.4162,-4.3974,-4.3723,-4.3485,-4.3259,-4.3067,-4.2935,-4.2887,-4.2838,-4.279,-4.2641,-4.2229,-4.1544,-4.0703,-4.0407,-4.0055,-3.9618,-3.937,-3.9276,-3.9038,-3.9083,-3.9096,-3.9154,-3.923,-3.9288,-3.9274,-3.9319,-3.9349,-3.9349,-3.9305,-3.9394,-3.9271,-3.9376,-3.9251,-3.9049,-3.8637,-3.8307,-3.7703,-3.73,-3.6967,-3.6858,-3.6693,-3.6325,-3.6325,-3.6312,-3.6232,-3.6178,-3.6232,-3.6206,-3.5952,-3.5831,-3.5791,-3.5656,-3.544,-3.5318,-3.5399,-3.5331,-3.5154,-3.5114,-3.5156,-3.5103,-3.4921,-3.4317,-3.3537,-3.3003,-3.2376,-3.2232,-4.4425,-4.4425,-4.4425,-4.4425,-4.4425,-4.4411,-4.4425,-4.4425,-4.4425,-4.4425,-4.4425,-4.4425,-4.4425,-4.4425,-4.4425,-4.4425,-4.4425,-4.4425,-4.4425,-4.4425,-4.4425,-4.4425,-4.4425,-4.4425,-4.4425,-4.4425,-4.4425,-4.4425,-4.4425,-4.4425,-4.4425,-4.4425,-4.4425,-4.4425,-4.4425,-4.4425,-4.4425,-4.4425,-4.4425,-4.4425,-4.4425,-4.4425,-4.4425,-4.4425,-4.4378,-4.4317,-4.427,-4.4115,-4.3974,-4.3832,-4.3546,-4.3307,-4.3225,-4.3032,-4.2887,-4.2838,-4.2644,-4.2547,-4.2457,-4.2173,-4.1666,-4.1078,-4.0729,-4.0414,-3.9924,-3.9572,-3.9373,-3.9251,-3.9031,-3.8853,-3.8727,-3.8732,-3.8831,-3.8782,-3.8872,-3.8917,-3.8948,-3.8948,-3.9051,-3.9096,-3.8827,-3.8652,-3.8555,-3.8407,-3.8317,-3.7946,-3.7593,-3.7289,-3.7002,-3.6592,-3.6157,-3.5912,-3.5898,-3.5858,-3.5777,-3.5952,-3.5912,-3.5616,-3.5453,-3.5453,-3.5372,-3.5208,-3.5113,-3.5072,-3.499,-3.4853,-3.4949,-3.5059,-3.4901,-3.4594,-3.3656,-3.2881,-3.2431,-3.2201,-3.2162,-4.4425,-4.4425,-4.4425,-4.4425,-4.4425,-4.4425,-4.4425,-4.4425,-4.4425,-4.4425,-4.4425,-4.4425,-4.4425,-4.4425,-4.4425,-4.4425,-4.4425,-4.4425,-4.4425,-4.4425,-4.4425,-4.4425,-4.4425,-4.4425,-4.4425,-4.4425,-4.4425,-4.4425,-4.4425,-4.4425,-4.4425,-4.4425,-4.4425,-4.4425,-4.4425,-4.4425,-4.4425,-4.4425,-4.4425,-4.4425,-4.4425,-4.4425,-4.4425,-4.4378,-4.4223,-4.4176,-4.4115,-4.3865,-4.3723,-4.3594,-4.3321,-4.3211,-4.308,-4.2873,-4.279,-4.2693,-4.2498,-4.24,-4.2275,-4.2056,-4.1775,-4.1325,-4.1071,-4.0748,-4.0194,-4.0101,-3.9907,-3.9714,-3.9508,-3.9375,-3.9281,-3.9188,-3.9154,-3.8741,-3.8706,-3.8706,-3.8692,-3.8692,-3.8706,-3.8737,-3.8615,-3.8557,-3.8496,-3.8402,-3.8286,-3.8152,-3.7756,-3.7079,-3.6669,-3.6288,-3.5894,-3.5533,-3.5358,-3.5358,-3.5358,-3.5575,-3.5575,-3.5331,-3.5249,-3.5208,-3.5086,-3.4908,-3.4825,-3.4784,-3.4688,-3.4634,-3.4647,-3.4647,-3.4581,-3.4146,-3.3476,-3.3079,-3.293,-3.261,-3.235,-4.4425,-4.4425,-4.4425,-4.4425,-4.4425,-4.4425,-4.4425,-4.4425,-4.4425,-4.4425,-4.4425,-4.4425,-4.4425,-4.4425,-4.4425,-4.4425,-4.4425,-4.4425,-4.4425,-4.4425,-4.4425,-4.4425,-4.4425,-4.4425,-4.4425,-4.4425,-4.4425,-4.4425,-4.4425,-4.4425,-4.4425,-4.4425,-4.4425,-4.4425,-4.4425,-4.4425,-4.4425,-4.4425,-4.4425,-4.4425,-4.4425,-4.4378,-4.4378,-4.4223,-4.4082,-4.3974,-4.3818,-4.3628,-4.3437,-4.3321,-4.3177,-4.3067,-4.2935,-4.279,-4.2693,-4.2547,-4.2253,-4.2056,-4.1782,-4.162,-4.1308,-4.0999,-4.1191,-4.1095,-4.0595,-4.0354,-4.0134,-4.0042,-4.0129,-3.9831,-3.9527,-3.9468,-3.923,-3.8846,-3.8648,-3.8661,-3.8396,-3.8351,-3.8325,-3.837,-3.8344,-3.8376,-3.8408,-3.844,-3.8357,-3.8176,-3.7923,-3.72,-3.6505,-3.6253,-3.5931,-3.5562,-3.5284,-3.5367,-3.5314,-3.5195,-3.5168,-3.5044,-3.499,-3.4949,-3.4701,-3.4494,-3.4494,-3.4452,-3.4314,-3.4176,-3.4189,-3.4163,-3.4137,-3.4113,-3.3882,-3.359,-3.3423,-3.3027,-3.2537,-4.4425,-4.4425,-4.4425,-4.4425,-4.4425,-4.4425,-4.4425,-4.4425,-4.4425,-4.4425,-4.4425,-4.4425,-4.4425,-4.4425,-4.4425,-4.4425,-4.4425,-4.4425,-4.4425,-4.4425,-4.4425,-4.4425,-4.4425,-4.4425,-4.4425,-4.4425,-4.4425,-4.4425,-4.4425,-4.4425,-4.4425,-4.4425,-4.4425,-4.4425,-4.4425,-4.4425,-4.4425,-4.4425,-4.4425,-4.4425,-4.4425,-4.4378,-4.4223,-4.4082,-4.394,-4.3784,-4.358,-4.3389,-4.3307,-4.3163,-4.3018,-4.2935,-4.279,-4.2595,-4.256,-4.2315,-4.1908,-4.1448,-4.1097,-4.1047,-4.0933,-4.0741,-4.1143,-4.113,-4.0916,-4.0484,-4.0256,-4.006,-3.9982,-3.9799,-3.959,-3.9459,-3.9329,-3.9016,-3.8742,-3.8467,-3.8076,-3.7958,-3.7919,-3.7893,-3.7854,-3.7874,-3.7998,-3.8031,-3.8031,-3.788,-3.7715,-3.759,-3.6985,-3.6743,-3.6412,-3.5939,-3.5703,-3.5546,-3.54,-3.5199,-3.485,-3.4739,-3.4673,-3.4618,-3.4369,-3.4147,-3.4105,-3.4021,-3.3839,-3.3755,-3.3882,-3.3882,-3.3784,-3.3762,-3.3824,-3.3765,-3.3532,-3.309,-3.2659,-4.4425,-4.4425,-4.4425,-4.4425,-4.4425,-4.4425,-4.4425,-4.4425,-4.4425,-4.4425,-4.4425,-4.4425,-4.4425,-4.4425,-4.4425,-4.4425,-4.4425,-4.4425,-4.4425,-4.4425,-4.4425,-4.4425,-4.4425,-4.4425,-4.4425,-4.4425,-4.4425,-4.4425,-4.4425,-4.4425,-4.4425,-4.4425,-4.4425,-4.4425,-4.4453,-4.4439,-4.4481,-4.4495,-4.4509,-4.4425,-4.4317,-4.4223,-4.4129,-4.3988,-4.3703,-4.3485,-4.3307,-4.3115,-4.3018,-4.2935,-4.2741,-4.2609,-4.2609,-4.2338,-4.2141,-4.1673,-4.1298,-4.0984,-4.0694,-4.0593,-4.0555,-4.0504,-4.0744,-4.0732,-4.0601,-4.0472,-4.0345,-4.0175,-4.0109,-4.0005,-3.9824,-3.9682,-3.9437,-3.9126,-3.8881,-3.8622,-3.826,-3.8054,-3.7976,-3.7627,-3.7588,-3.7505,-3.7572,-3.7572,-3.7526,-3.7479,-3.7441,-3.7429,-3.7339,-3.7069,-3.6717,-3.6205,-3.5969,-3.5798,-3.5483,-3.5257,-3.4789,-3.447,-3.447,-3.4321,-3.4021,-3.3852,-3.3768,-3.367,-3.3586,-3.3628,-3.3713,-3.367,-3.3556,-3.367,-3.3704,-3.3694,-3.3582,-3.3189,-3.2935,-4.4425,-4.4425,-4.4425,-4.4425,-4.4425,-4.4425,-4.4425,-4.4425,-4.4425,-4.4425,-4.4425,-4.4425,-4.4425,-4.4425,-4.4425,-4.4425,-4.4425,-4.4425,-4.4425,-4.4425,-4.4425,-4.4425,-4.4425,-4.4439,-4.4425,-4.4425,-4.4439,-4.4425,-4.4467,-4.4439,-4.4425,-4.4425,-4.4425,-4.4593,-4.4734,-4.486,-4.5015,-4.4931,-4.479,-4.4509,-4.4284,-4.4143,-4.3974,-4.3784,-4.3451,-4.3211,-4.297,-4.279,-4.2741,-4.2644,-4.24,-4.2351,-4.2253,-4.1993,-4.1634,-4.1211,-4.0896,-4.0643,-4.0402,-4.0338,-4.03,-4.0198,-4.0198,-4.0198,-4.0287,-4.03,-4.0401,-4.0401,-4.0426,-4.035,-4.0145,-3.9914,-3.9556,-3.921,-3.9043,-3.8877,-3.8607,-3.8351,-3.798,-3.7544,-3.7326,-3.7219,-3.7155,-3.7108,-3.7108,-3.7201,-3.7248,-3.7209,-3.7237,-3.7123,-3.6748,-3.6313,-3.6158,-3.6015,-3.5678,-3.5384,-3.5012,-3.4667,-3.4482,-3.4294,-3.3807,-3.3556,-3.3526,-3.3471,-3.3428,-3.3471,-3.3471,-3.3441,-3.3398,-3.3471,-3.3513,-3.3433,-3.3467,-3.3427,-3.3267,-4.4425,-4.4425,-4.4425,-4.4425,-4.4425,-4.4425,-4.4425,-4.4425,-4.4425,-4.4425,-4.4425,-4.4425,-4.4425,-4.4425,-4.4425,-4.4425,-4.4425,-4.4425,-4.4425,-4.4425,-4.4425,-4.4467,-4.4593,-4.4523,-4.4762,-4.4635,-4.4678,-4.4945,-4.472,-4.4804,-4.4888,-4.4565,-4.4706,-4.4987,-4.5352,-4.5408,-4.5577,-4.5745,-4.5268,-4.4771,-4.4452,-4.4166,-4.3832,-4.3566,-4.3293,-4.3018,-4.2644,-4.2449,-4.2338,-4.2177,-4.2079,-4.2079,-4.1796,-4.1511,-4.1161,-4.0846,-4.0593,-4.0338,-4.0134,-4.0083,-3.9942,-3.9839,-3.9697,-3.98,-3.9955,-4.0096,-4.0198,-4.0249,-4.0173,-4.0173,-4.0007,-3.9944,-3.9702,-3.9499,-3.9359,-3.9092,-3.8774,-3.843,-3.7985,-3.7591,-3.7286,-3.7142,-3.6875,-3.6828,-3.6828,-3.6968,-3.6968,-3.6968,-3.6956,-3.6938,-3.6775,-3.6398,-3.6437,-3.6315,-3.5916,-3.5594,-3.5274,-3.4956,-3.4694,-3.4275,-3.3817,-3.3558,-3.3326,-3.3283,-3.327,-3.3197,-3.3197,-3.3197,-3.324,-3.324,-3.324,-3.3167,-3.3215,-3.3377,-3.3441,-4.4425,-4.4425,-4.4425,-4.4425,-4.4425,-4.4425,-4.4425,-4.4425,-4.4425,-4.4425,-4.4425,-4.4425,-4.4425,-4.4425,-4.4425,-4.4425,-4.4425,-4.4425,-4.4425,-4.4439,-4.4453,-4.4734,-4.4981,-4.5052,-4.5324,-4.5717,-4.5844,-4.5689,-4.5647,-4.5703,-4.5802,-4.5802,-4.5731,-4.5816,-4.6026,-4.6069,-4.6195,-4.6476,-4.6069,-4.5377,-4.4919,-4.4157,-4.3566,-4.3321,-4.3011,-4.2733,-4.244,-4.2253,-4.219,-4.2079,-4.1881,-4.1584,-4.1185,-4.0846,-4.0593,-4.0338,-4.0287,-4.0083,-3.9942,-3.9826,-3.9788,-3.9749,-3.9697,-3.9697,-3.9749,-3.9839,-3.989,-3.989,-3.989,-3.9942,-3.9942,-3.9929,-3.9891,-3.9778,-3.9677,-3.931,-3.8956,-3.8527,-3.8023,-3.7731,-3.7389,-3.7061,-3.677,-3.6631,-3.6593,-3.6546,-3.6546,-3.6546,-3.6593,-3.6615,-3.6849,-3.6662,-3.6819,-3.6673,-3.623,-3.5858,-3.5596,-3.5251,-3.5022,-3.4464,-3.3903,-3.3726,-3.3575,-3.3268,-3.3124,-3.3174,-3.3187,-3.3124,-3.3124,-3.3124,-3.3124,-3.3124,-3.3124,-3.3215,-3.3343,-4.4172,-4.4397,-4.4425,-4.4425,-4.4425,-4.4425,-4.4425,-4.4425,-4.4425,-4.4425,-4.4425,-4.4425,-4.4425,-4.4425,-4.4425,-4.4425,-4.4425,-4.4425,-4.4425,-4.4439,-4.4706,-4.4967,-4.5248,-4.5585,-4.5872,-4.6251,-4.6279,-4.6237,-4.6392,-4.6265,-4.6237,-4.635,-4.635,-4.6462,-4.6631,-4.6715,-4.6841,-4.7108,-4.6827,-4.6294,-4.5594,-4.4837,-4.407,-4.3674,-4.312,-4.2744,-4.2132,-4.1895,-4.1696,-4.1547,-4.1248,-4.1097,-4.0744,-4.0491,-4.0287,-4.0134,-3.9981,-3.9839,-3.9749,-3.9697,-3.9697,-3.9697,-3.9697,-3.9697,-3.9697,-3.98,-3.98,-3.9788,-3.9788,-3.98,-3.98,-3.9788,-3.9788,-3.9712,-3.9687,-3.9498,-3.9209,-3.8881,-3.8579,-3.8353,-3.7925,-3.7409,-3.7144,-3.6966,-3.6817,-3.6452,-3.6405,-3.6417,-3.6417,-3.6417,-3.6606,-3.6747,-3.6828,-3.6803,-3.6358,-3.613,-3.5945,-3.5633,-3.5342,-3.4886,-3.4431,-3.4085,-3.3822,-3.3608,-3.342,-3.3338,-3.3325,-3.325,-3.3149,-3.3124,-3.3124,-3.3124,-3.3124,-3.3124,-3.321,-4.3863,-4.4383,-4.4425,-4.4425,-4.4425,-4.4425,-4.4425,-4.4425,-4.4425,-4.4425,-4.4425,-4.4425,-4.4425,-4.4425,-4.4425,-4.4425,-4.4425,-4.4425,-4.4425,-4.4579,-4.4967,-4.5338,-4.5717,-4.6097,-4.6476,-4.6673,-4.6743,-4.6729,-4.6757,-4.6757,-4.6757,-4.656,-4.6631,-4.6799,-4.7164,-4.7375,-4.7488,-4.762,-4.7421,-4.701,-4.6425,-4.5801,-4.4842,-4.4112,-4.3471,-4.2805,-4.2024,-4.1424,-4.1187,-4.0896,-4.0694,-4.0555,-4.0402,-4.0185,-4.0083,-3.9929,-3.9826,-3.9736,-3.9697,-3.9697,-3.9697,-3.9697,-3.9697,-3.9697,-3.9697,-3.9697,-3.9697,-3.9697,-3.9697,-3.9697,-3.9697,-3.9697,-3.9697,-3.9697,-3.9685,-3.9685,-3.9433,-3.9207,-3.9044,-3.8868,-3.8404,-3.7852,-3.755,-3.7324,-3.7071,-3.6694,-3.6493,-3.6455,-3.6443,-3.6417,-3.6512,-3.6559,-3.6606,-3.6474,-3.6389,-3.6288,-3.6159,-3.6058,-3.5709,-3.5349,-3.4919,-3.4562,-3.4261,-3.411,-3.3922,-3.3784,-3.352,-3.3382,-3.3269,-3.3199,-3.3124,-3.3124,-3.3124,-3.3124,-3.3124,-4.3849,-4.4411,-4.4425,-4.4425,-4.4425,-4.4425,-4.4425,-4.4425,-4.4425,-4.4425,-4.4425,-4.4425,-4.4425,-4.4425,-4.4425,-4.4425,-4.4425,-4.4425,-4.4425,-4.4523,-4.5169,-4.5633,-4.6139,-4.6687,-4.7277,-4.7474,-4.7572,-4.7712,-4.7431,-4.7558,-4.7726,-4.7642,-4.7684,-4.7769,-4.7825,-4.7887,-4.7873,-4.7985,-4.7782,-4.7383,-4.6865,-4.6114,-4.5075,-4.4265,-4.3439,-4.2809,-4.2128,-4.1369,-4.091,-4.0593,-4.0326,-4.0185,-4.0083,-3.9942,-3.989,-3.9839,-3.9736,-3.9736,-3.9697,-3.9697,-3.9697,-3.9697,-3.9697,-3.9697,-3.9697,-3.9697,-3.9697,-3.9697,-3.9697,-3.9697,-3.9697,-3.9697,-3.9697,-3.9697,-3.9697,-3.9697,-3.9572,-3.9471,-3.9358,-3.9132,-3.8869,-3.8354,-3.7977,-3.7776,-3.76,-3.7262,-3.7023,-3.6983,-3.6593,-3.6518,-3.6468,-3.6417,-3.6417,-3.6417,-3.6392,-3.6392,-3.6314,-3.6241,-3.6107,-3.5793,-3.5403,-3.4951,-3.4688,-3.4555,-3.4487,-3.4361,-3.4073,-3.3684,-3.3458,-3.3332,-3.3199,-3.3124,-3.3124,-3.3124,-3.3124]},{"header":{"parameterUnit":"m.s-1","parameterCategory":1,"la1":31.0,"la2":29.5877,"lo1":-88.7671,"lo2":-86.6584,"dy":0.0162,"dx":0.0185,"nx":115,"ny":88,"refTime":"2023-04-03T12:00:00:Z","depth":0,"parameterNumber":3,"parameterNumberName":"V-component_of_WINDS"},"data":[0.0,0.0,0.0,0.0,0.0,0.0,0.0,0.0,0.0,0.0,0.0,0.0,0.0,0.0,0.0,0.0,0.0,0.0,0.0,0.0,0.0,0.0,0.0,0.0,0.0,0.0,0.0,0.0,0.0,0.0,0.0,0.0,0.0,0.0,0.0,0.0,0.0,0.0,0.0,0.0,0.0,0.0,0.0,0.0,0.0,0.0,0.0,0.0,0.0,0.0,0.0,0.0,0.0,0.0,0.0,0.0,0.0,0.0,0.0,0.0,0.0,0.0,0.0,0.0,0.0,0.0,0.0,0.0,0.0,0.0,0.0,0.0,0.0,0.0,0.0,0.0,0.0,0.0,0.0,0.0,0.0,0.0,0.0,0.0,0.0,0.0,0.0,0.0,0.0,0.0,0.0,0.0,0.0,0.0,0.0,0.0,0.0,0.0,0.0,0.0,0.0,0.0,0.0,0.0,0.0,0.0,0.0,0.0,0.0,0.0,0.0,0.0,0.0,0.0,0.0,0.0,0.0,0.0,0.0,0.0,0.0,0.0,0.0,0.0,0.0,0.0,0.0,0.0,0.0,0.0,0.0,0.0,0.0,0.0,0.0,0.0,0.0,0.0,0.0,0.0,0.0,0.0,0.0,0.0,0.0,0.0,0.0,0.0,0.0,0.0,0.0,0.0,0.0,0.0,0.0,0.0,0.0,0.0,0.0,0.0,0.0,0.0,0.0,0.0,0.0,0.0,0.0,0.0,0.0,0.0,0.0,0.0,0.0,0.0,0.0,0.0,0.0,0.0,0.0,0.0,0.0,0.0,0.0,0.0,0.0,0.0,0.0,0.0,0.0,0.0,0.0,0.0,0.0,0.0,0.0,0.0,0.0,0.0,0.0,0.0,0.0,0.0,0.0,0.0,0.0,0.0,0.0,0.0,0.0,0.0,0.0,0.0,0.0,0.0,0.0,0.0,0.0,0.0,0.0,0.0,0.0,0.0,0.0,0.0,0.0,0.0,0.0,0.0,0.0,0.0,0.0,0.0,0.0,0.0,0.0,0.0,0.0,0.0,0.0,0.0,0.0,0.0,0.0,0.0,0.0,0.0,0.0,0.0,0.0,0.0,0.0,0.0,0.0,0.0,0.0,0.0,0.0,0.0,0.0,0.0,0.0,0.0,0.0,0.0,0.0,0.0,0.0,0.0,0.0,0.0,0.0,0.0,0.0,0.0,0.0,0.0,0.0,0.0,0.0,0.0,0.0,0.0,0.0,0.0,0.0,0.0,0.0,0.0,0.0,0.0,0.0,0.0,0.0,0.0,0.0,0.0,0.0,0.0,0.0,0.0,0.0,0.0,0.0,0.0,0.0,0.0,0.0,0.0,0.0,0.0,0.0,0.0,0.0,0.0,0.0,0.0,0.0,0.0,0.0,0.0,0.0,0.0,0.0,0.0,0.0,0.0,0.0,0.0,0.0,0.0,0.0,0.0,0.0,0.0,0.0,0.0,0.0,0.0,0.0,0.0,0.0,0.0,0.0,0.0,0.0,0.0,0.0,0.0,0.0,0.0,0.0,0.0,0.0,0.0,0.0,0.0,0.0,0.0,0.0,0.0,0.0,0.0,0.0,0.0,0.0,0.0,0.0,0.0,0.0,0.0,0.0,0.0,0.0,0.0,0.0,0.0,0.0,0.0,0.0,0.0,0.0,0.0,0.0,0.0,0.0,0.0,0.0,0.0,0.0,0.0,0.0,0.0,0.0,0.0,0.0,0.0,0.0,0.0,0.0,0.0,0.0,0.0,0.0,0.0,0.0,0.0,0.0,0.0,0.0,0.0,0.0,0.0,0.0,0.0,0.0,0.0,0.0,0.0,0.0,0.0,0.0,0.0,0.0,0.0,0.0,0.0,0.0,0.0,0.0,0.0,0.0,0.0,0.0,0.0,0.0,0.0,0.0,0.0,0.0,0.0,0.0,0.0,0.0,0.0,0.0,0.0,0.0,0.0,0.0,0.0,0.0,0.0,0.0,0.0,0.0,0.0,0.0,0.0,0.0,0.0,0.0,0.0,0.0,0.0,0.0,0.0,0.0,0.0,0.0,0.0,0.0,0.0,0.0,0.0,0.0,0.0,0.0,0.0,0.0,0.0,0.0,0.0,0.0,0.0,0.0,0.0,0.0,0.0,0.0,0.0,0.0,0.0,0.0,0.0,0.0,0.0,0.0,0.0,0.0,0.0,0.0,0.0,0.0,0.0,0.0,0.0,0.0,0.0,0.0,0.0,0.0,0.0,0.0,0.0,0.0,0.0,0.0,0.0,0.0,0.0,0.0,0.0,0.0,0.0,0.0,0.0,0.0,0.0,0.0,0.0,0.0,0.0,0.0,0.0,0.0,0.0,0.0,0.0,0.0,0.0,0.0,0.0,0.0,0.0,0.0,0.0,0.0,0.0,0.0,0.0,0.0,0.0,0.0,0.0,0.0,0.0,0.0,0.0,0.0,0.0,0.0,0.0,0.0,0.0,0.0,0.0,0.0,0.0,0.0,0.0,0.0,0.0,0.0,0.0,0.0,0.0,0.0,0.0,0.0,0.0,0.0,0.0,0.0,0.0,0.0,0.0,0.0,0.0,0.0,0.0,0.0,0.0,0.0,0.0,0.0,0.0,0.0,0.0,0.0,0.0,0.0,0.0,0.0,0.0,0.0,0.0,0.0,0.0,0.0,0.0,0.0,0.0,0.0,0.0,0.0,0.0,0.0,0.0,0.0,0.0,0.0,0.0,0.0,0.0,0.0,0.0,0.0,0.0,0.0,0.0,0.0,0.0,0.0,0.0,0.0,0.0,0.0,0.0,0.0,0.0,0.0,0.0,0.0,0.0,0.0,0.0,0.0,0.0,0.0,0.0,0.0,0.0,0.0,0.0,0.0,0.0,0.0,0.0,0.0,0.0,0.0,0.0,0.0,0.0,0.0,0.0,0.0,0.0,0.0,0.0,0.0,0.0,0.0,0.0,0.0,0.0,0.0,0.0,0.0,0.0,0.0,0.0,0.0,0.0,0.0,0.0,0.0,0.0,0.0,0.0,0.0,0.0,0.0,0.0,0.0,0.0,0.0,0.0,0.0,0.0,0.0,0.0,0.0,0.0,0.0,0.0,0.0,0.0,0.0,0.0,0.0,0.0,0.0,0.0,0.0,0.0,0.0,0.0,0.0,0.0,0.0,0.0,0.0,0.0,0.0,0.0,0.0,0.0,0.0,0.0,0.0,0.0,0.0,0.0,0.0,0.0,0.0,0.0,0.0,0.0,0.0,0.0,0.0,0.0,0.0,0.0,0.0,0.0,0.0,0.0,0.0,0.0,0.0,0.0,0.0,0.0,0.0,0.0,0.0,0.0,0.0,0.0,0.0,0.0,0.0,0.0,0.0,0.0,0.0,0.0,0.0,0.0,0.0,0.0,0.0,0.0,0.0,0.0,0.0,0.0,0.0,0.0,0.0,0.0,0.0,0.0,0.0,0.0,0.0,0.0,0.0,0.0,0.0,0.0,0.0,0.0,0.0,0.0,0.0,0.0,0.0,0.0,0.0,0.0,0.0,0.0,0.0,0.0,0.0,0.0,0.0,0.0,0.0,0.0,0.0,0.0,0.0,0.0,0.0,0.0,0.0,0.0,0.0,0.0,0.0,0.0,0.0,0.0,0.0,0.0,0.0,0.0,0.0,0.0,0.0,0.0,0.0,0.0,0.0,0.0,0.0,0.0,0.0,0.0,0.0,0.0,0.0,0.0,0.0,0.0,0.0,0.0,0.0,0.0,0.0,0.0,0.0,0.0,0.0,0.0,0.0,0.0,0.0,0.0,0.0,0.0,0.0,0.0,0.0,0.0,0.0,0.0,0.0,0.0,0.0,0.0,0.0,0.0,0.0,0.0,0.0,0.0,0.0,0.0,0.0,0.0,0.0,0.0,0.0,0.0,0.0,0.0,0.0,0.0,0.0,0.0,0.0,0.0,0.0,0.0,0.0,0.0,0.0,0.0,0.0,0.0,0.0,0.0,0.0,0.0,0.0,0.0,0.0,0.0,0.0,0.0,0.0,0.0,0.0,0.0,0.0,0.0,0.0,0.0,0.0,0.0,0.0,0.0,0.0,0.0,0.0,0.0,0.0,0.0,0.0,0.0,0.0,0.0,0.0,0.0,0.0,0.0,0.0,0.0,0.0,0.0,0.0,0.0,0.0,0.0,0.0,0.0,0.0,0.0,0.0,0.0,0.0,0.0,0.0,0.0,0.0,0.0,0.0,0.0,0.0,0.0,1.5465,0.0,0.0,0.0,0.0,0.0,0.0,0.0,0.0,0.0,0.0,0.0,0.0,0.0,0.0,0.0,0.0,0.0,0.0,0.0,0.0,0.0,0.0,0.0,0.0,0.0,0.0,0.0,0.0,0.0,0.0,0.0,0.0,0.0,0.0,0.0,0.0,0.0,0.0,0.0,0.0,0.0,0.0,0.0,0.0,0.0,0.0,0.0,0.0,0.0,0.0,0.0,0.0,0.0,0.0,0.0,0.0,0.0,0.0,0.0,0.0,0.0,0.0,0.0,0.0,0.0,0.0,0.0,0.0,0.0,0.0,0.0,0.0,0.0,0.0,0.0,0.0,0.0,0.0,0.0,0.0,0.0,0.0,0.0,0.0,0.0,0.0,0.0,0.0,0.0,0.0,0.0,0.0,0.0,0.0,0.0,0.0,0.0,0.0,0.0,0.0,0.0,0.0,0.0,0.0,0.0,0.0,0.0,0.0,0.0,0.0,1.634,1.6134,1.6009,1.5748,1.5355,0.0,0.0,0.0,0.0,0.0,0.0,0.0,0.0,0.0,0.0,0.0,0.0,0.0,0.0,0.0,0.0,0.0,0.0,0.0,0.0,0.0,0.0,0.0,0.0,0.0,0.0,0.0,0.0,0.0,0.0,0.0,0.0,0.0,0.0,0.0,0.0,0.0,0.0,0.0,0.0,0.0,0.0,0.0,0.0,0.0,0.0,0.0,0.0,0.0,0.0,0.0,0.0,0.0,0.0,0.0,0.0,0.0,0.0,0.0,0.0,0.0,0.0,0.0,0.0,0.0,0.0,0.0,0.0,0.0,0.0,0.0,0.0,0.0,0.0,0.0,0.0,0.0,0.0,0.0,0.0,0.0,0.0,0.0,0.0,0.0,0.0,0.0,0.0,0.0,0.0,0.0,0.0,0.0,0.0,0.0,0.0,0.0,0.0,0.0,0.0,0.0,0.0,0.0,0.0,0.0,0.0,0.0,0.0,0.0,0.0,0.0,0.0,1.6063,1.5744,1.5289,0.0,0.0,0.0,0.0,0.0,0.0,0.0,0.0,0.0,0.0,0.0,0.0,0.0,0.0,0.0,0.0,0.0,0.0,0.0,0.0,0.0,0.0,0.0,0.0,0.0,0.0,0.0,0.0,0.0,0.0,0.0,0.0,0.0,0.0,0.0,0.0,0.0,0.0,0.0,0.0,0.0,0.0,0.0,0.0,0.0,0.0,0.0,0.0,0.0,0.0,0.0,0.0,0.0,0.0,0.0,0.0,0.0,0.0,0.0,0.0,0.0,0.0,0.0,0.0,0.0,0.0,0.0,0.0,0.0,0.0,0.0,0.0,0.0,0.0,0.0,0.0,0.0,0.0,0.0,0.0,0.0,0.0,0.0,0.0,0.0,0.0,0.0,0.0,0.0,0.0,0.0,0.0,0.0,0.0,0.0,0.0,0.0,0.0,0.0,0.0,0.0,0.0,0.0,0.0,0.0,0.0,0.0,0.0,0.0,0.0,1.7005,1.6712,1.6345,0.0,1.5242,0.0,0.0,0.0,0.0,0.0,0.0,0.0,0.0,0.0,0.0,0.0,0.0,0.0,0.0,0.0,0.0,0.0,0.0,0.0,0.0,0.0,0.0,0.0,0.0,0.0,0.0,0.0,0.0,0.0,0.0,0.0,0.0,0.0,0.0,0.0,0.0,0.0,0.0,0.0,0.0,0.0,0.0,0.0,0.0,0.0,0.0,0.0,0.0,0.0,0.0,0.0,0.0,0.0,0.0,0.0,0.0,0.0,0.0,0.0,0.0,0.0,0.0,0.0,0.0,0.0,0.0,0.0,0.0,0.0,0.0,0.0,0.0,0.0,0.0,0.0,0.0,0.0,0.0,0.0,0.0,0.0,0.0,0.0,0.0,0.0,0.0,0.0,0.0,0.0,0.0,0.0,0.0,0.0,0.0,0.0,0.0,0.0,0.0,0.0,0.0,0.0,0.0,0.0,0.0,0.0,0.0,0.0,0.0,0.0,0.0,1.7071,1.6434,1.5906,1.5522,0.0,0.0,0.0,0.0,0.0,0.0,0.0,0.0,0.0,0.0,0.0,0.0,0.0,0.0,0.0,0.0,0.0,0.0,0.0,0.0,0.0,0.0,0.0,0.0,0.0,0.0,0.0,0.0,0.0,0.0,0.0,0.0,0.0,0.0,0.0,0.0,0.0,0.0,0.0,0.0,0.0,0.0,0.0,0.0,0.0,0.0,0.0,0.0,0.0,0.0,0.0,0.0,0.0,0.0,0.0,0.0,0.0,0.0,0.0,0.0,0.0,0.0,0.0,0.0,0.0,0.0,0.0,0.0,0.0,0.0,0.0,0.0,0.0,0.0,0.0,0.0,0.0,0.0,0.0,0.0,0.0,0.0,0.0,0.0,0.0,0.0,0.0,0.0,0.0,0.0,0.0,0.0,0.0,0.0,0.0,0.0,0.0,0.0,0.0,0.0,0.0,0.0,0.0,0.0,0.0,0.0,0.0,0.0,0.0,0.0,1.7564,1.7197,1.6348,1.5638,1.5313,1.541,0.0,0.0,0.0,0.0,0.0,0.0,0.0,0.0,0.0,0.0,0.0,0.0,0.0,0.0,0.0,0.0,0.0,0.0,0.0,0.0,0.0,0.0,0.0,0.0,0.0,0.0,0.0,0.0,0.0,0.0,0.0,0.0,0.0,0.0,0.0,0.0,0.0,0.0,0.0,0.0,0.0,0.0,0.0,0.0,0.0,0.0,0.0,0.0,0.0,0.0,0.0,0.0,0.0,0.0,0.0,0.0,0.0,0.0,0.0,0.0,0.0,0.0,0.0,0.0,0.0,0.0,0.0,0.0,0.0,0.0,0.0,0.0,0.0,0.0,0.0,0.0,0.0,0.0,0.0,0.0,0.0,0.0,0.0,0.0,0.0,0.0,0.0,0.0,0.0,0.0,0.0,0.0,0.0,0.0,0.0,0.0,0.0,0.0,0.0,0.0,0.0,0.0,0.0,0.0,0.0,0.0,0.0,0.0,1.7681,1.7706,1.7378,1.6694,1.5849,1.5381,0.0,0.0,0.0,0.0,0.0,0.0,0.0,0.0,0.0,0.0,0.0,0.0,0.0,0.0,0.0,0.0,0.0,0.0,0.0,0.0,0.0,0.0,0.0,0.0,0.0,0.0,0.0,0.0,0.0,0.0,0.0,0.0,0.0,0.0,0.0,0.0,0.0,0.0,0.0,0.0,0.0,0.0,0.0,0.0,0.0,0.0,0.0,0.0,0.0,0.0,0.0,0.0,0.0,0.0,0.0,0.0,0.0,0.0,0.0,0.0,0.0,0.0,0.0,0.0,0.0,0.0,0.0,0.0,0.0,0.0,0.0,0.0,0.0,0.0,0.0,0.0,0.0,0.0,0.0,0.0,0.0,0.0,0.0,0.0,0.0,0.0,0.0,0.0,0.0,0.0,0.0,0.0,0.0,0.0,0.0,0.0,0.0,0.0,0.0,0.0,0.0,0.0,0.0,0.0,0.0,0.0,0.0,0.0,0.0,1.7886,1.7643,1.7395,1.7139,1.6391,1.5989,0.0,0.0,0.0,0.0,0.0,0.0,0.0,0.0,0.0,0.0,0.0,0.0,0.0,0.0,0.0,0.0,0.0,0.0,0.0,0.0,0.0,0.0,0.0,0.0,0.0,0.0,0.0,0.0,0.0,0.0,0.0,0.0,0.0,0.0,0.0,0.0,0.0,0.0,0.0,0.0,0.0,0.0,0.0,0.0,0.0,0.0,0.0,0.0,0.0,0.0,0.0,0.0,0.0,0.0,0.0,0.0,0.0,0.0,0.0,0.0,0.0,0.0,0.0,0.0,0.0,0.0,0.0,0.0,0.0,0.0,0.0,0.0,0.0,0.0,0.0,0.0,0.0,0.0,0.0,0.0,0.0,0.0,0.0,0.0,0.0,0.0,0.0,0.0,0.0,0.0,0.0,0.0,0.0,0.0,0.0,0.0,0.0,0.0,0.0,0.0,0.0,0.0,0.0,0.0,0.0,0.0,0.0,0.0,0.0,1.7988,0.0,1.7416,1.7452,1.6849,1.6496,0.0,0.0,0.0,0.0,0.0,0.0,0.0,0.0,0.0,0.0,0.0,0.0,0.0,0.0,0.0,0.0,0.0,0.0,0.0,0.0,0.0,0.0,0.0,0.0,0.0,0.0,0.0,0.0,0.0,0.0,0.0,0.0,0.0,0.0,0.0,0.0,0.0,0.0,0.0,0.0,0.0,0.0,0.0,0.0,0.0,0.0,0.0,0.0,0.0,0.0,0.0,0.0,0.0,0.0,0.0,0.0,0.0,0.0,0.0,0.0,0.0,0.0,0.0,0.0,0.0,0.0,0.0,0.0,0.0,0.0,0.0,0.0,0.0,0.0,0.0,0.0,0.0,0.0,0.0,0.0,0.0,0.0,0.0,0.0,0.0,0.0,0.0,0.0,0.0,0.0,0.0,0.0,0.0,0.0,0.0,0.0,0.0,0.0,0.0,0.0,0.0,0.0,0.0,0.0,0.0,0.0,0.0,0.0,1.8027,1.7998,1.765,1.7501,1.7605,1.7241,1.6897,0.0,0.0,0.0,0.0,0.0,0.0,0.0,0.0,0.0,0.0,0.0,0.0,0.0,0.0,0.0,0.0,0.0,0.0,0.0,0.0,0.0,0.0,0.0,0.0,0.0,0.0,0.0,0.0,0.0,0.0,0.0,0.0,0.0,0.0,0.0,0.0,0.0,0.0,0.0,0.0,0.0,0.0,0.0,0.0,0.0,0.0,0.0,0.0,0.0,0.0,0.0,0.0,0.0,0.0,0.0,0.0,0.0,0.0,0.0,0.0,0.0,0.0,0.0,0.0,0.0,0.0,0.0,0.0,0.0,0.0,0.0,0.0,0.0,0.0,0.0,0.0,0.0,0.0,0.0,0.0,0.0,0.0,0.0,0.0,0.0,0.0,0.0,0.0,0.0,0.0,0.0,0.0,0.0,0.0,0.0,0.0,0.0,0.0,0.0,0.0,0.0,0.0,0.0,0.0,0.0,0.0,0.0,0.0,0.0,1.8212,1.8184,1.8181,1.8228,1.7938,1.7731,0.0,0.0,0.0,0.0,0.0,0.0,0.0,0.0,0.0,0.0,0.0,0.0,0.0,0.0,0.0,0.0,0.0,0.0,0.0,0.0,0.0,0.0,0.0,0.0,0.0,0.0,0.0,0.0,0.0,0.0,0.0,0.0,0.0,0.0,0.0,0.0,0.0,0.0,0.0,0.0,0.0,0.0,0.0,0.0,0.0,0.0,0.0,0.0,0.0,0.0,0.0,0.0,0.0,0.0,0.0,0.0,0.0,0.0,0.0,0.0,0.0,0.0,0.0,0.0,0.0,0.0,0.0,0.0,0.0,0.0,0.0,0.0,0.0,0.0,0.0,0.0,0.0,0.0,0.0,0.0,0.0,0.0,0.0,0.0,0.0,0.0,0.0,0.0,0.0,0.0,0.0,0.0,0.0,0.0,0.0,0.0,0.0,0.0,0.0,0.0,0.0,0.0,0.0,0.0,0.0,0.0,0.0,0.0,0.0,1.9028,1.8998,1.9067,1.9111,1.8879,1.8695,1.8532,0.0,0.0,0.0,0.0,0.0,0.0,0.0,0.0,0.0,0.0,0.0,0.0,0.0,0.0,0.0,0.0,0.0,0.0,0.0,0.0,0.0,0.0,0.0,0.0,0.0,0.0,0.0,0.0,0.0,0.0,0.0,0.0,0.0,0.0,0.0,0.0,0.0,0.0,0.0,0.0,0.0,0.0,0.0,0.0,0.0,0.0,0.0,0.0,0.0,0.0,0.0,0.0,0.0,0.0,0.0,0.0,0.0,0.0,0.0,0.0,0.0,0.0,0.0,0.0,0.0,0.0,0.0,0.0,0.0,0.0,0.0,0.0,0.0,0.0,0.0,0.0,0.0,0.0,0.0,0.0,0.0,0.0,0.0,0.0,0.0,0.0,0.0,0.0,0.0,0.0,0.0,0.0,0.0,0.0,0.0,0.0,0.0,0.0,0.0,0.0,0.0,0.0,0.0,0.0,0.0,0.0,0.0,0.0,2.0309,2.0118,2.0088,2.0191,1.9951,1.9698,0.0,0.0,0.0,0.0,0.0,0.0,0.0,0.0,0.0,0.0,0.0,0.0,0.0,0.0,0.0,0.0,0.0,0.0,0.0,0.0,0.0,0.0,0.0,0.0,0.0,0.0,0.0,0.0,0.0,0.0,0.0,0.0,0.0,0.0,0.0,0.0,0.0,0.0,0.0,0.0,0.0,0.0,0.0,0.0,0.0,0.0,0.0,0.0,0.0,0.0,0.0,0.0,0.0,0.0,0.0,0.0,0.0,0.0,0.0,0.0,0.0,0.0,0.0,0.0,0.0,0.0,0.0,0.0,0.0,0.0,0.0,0.0,0.0,0.0,0.0,0.0,0.0,0.0,0.0,0.0,0.0,0.0,0.0,0.0,0.0,0.0,0.0,0.0,0.0,0.0,0.0,0.0,0.0,0.0,0.0,0.0,0.0,0.0,0.0,0.0,0.0,0.0,0.0,0.0,0.0,0.0,0.0,0.0,0.0,2.1584,2.1707,2.1371,2.0594,2.0448,2.0366,0.0,0.0,0.0,0.0,0.0,0.0,0.0,0.0,0.0,0.0,0.0,0.0,0.0,0.0,0.0,0.0,0.0,0.0,0.0,0.0,0.0,0.0,0.0,0.0,0.0,0.0,0.0,0.0,0.0,0.0,0.0,0.0,0.0,0.0,0.0,0.0,0.0,0.0,0.0,0.0,0.0,0.0,0.0,0.0,0.0,0.0,0.0,0.0,0.0,0.0,0.0,0.0,0.0,0.0,0.0,0.0,0.0,0.0,0.0,0.0,0.0,0.0,0.0,0.0,0.0,0.0,0.0,0.0,0.0,0.0,0.0,0.0,0.0,0.0,0.0,0.0,0.0,0.0,0.0,0.0,0.0,0.0,0.0,0.0,0.0,0.0,0.0,0.0,0.0,0.0,0.0,0.0,0.0,0.0,0.0,0.0,0.0,0.0,0.0,0.0,0.0,0.0,0.0,0.0,0.0,0.0,0.0,0.0,2.2311,2.27,2.3084,2.2929,2.2247,2.1623,2.1283,0.0,0.0,0.0,0.0,0.0,0.0,0.0,0.0,0.0,0.0,0.0,0.0,0.0,0.0,0.0,0.0,0.0,0.0,0.0,0.0,0.0,0.0,0.0,0.0,0.0,0.0,0.0,0.0,0.0,0.0,0.0,0.0,0.0,0.0,0.0,0.0,0.0,0.0,0.0,0.0,0.0,0.0,0.0,0.0,0.0,0.0,0.0,0.0,0.0,0.0,0.0,0.0,0.0,0.0,0.0,0.0,0.0,0.0,0.0,0.0,0.0,0.0,0.0,0.0,0.0,0.0,0.0,0.0,0.0,0.0,0.0,0.0,0.0,0.0,0.0,0.0,0.0,0.0,0.0,0.0,0.0,0.0,0.0,0.0,0.0,0.0,0.0,0.0,0.0,0.0,0.0,0.0,0.0,0.0,0.0,0.0,0.0,0.0,0.0,0.0,0.0,0.0,0.0,0.0,0.0,0.0,0.0,0.0,2.3358,2.3633,2.4253,2.4515,2.4336,2.3146,2.238,0.0,0.0,0.0,0.0,0.0,0.0,0.0,0.0,0.0,0.0,0.0,0.0,0.0,0.0,0.0,0.0,0.0,0.0,0.0,0.0,0.0,0.0,0.0,0.0,0.0,0.0,0.0,0.0,0.0,0.0,0.0,0.0,0.0,0.0,0.0,0.0,0.0,0.0,0.0,0.0,0.0,0.0,0.0,0.0,0.0,0.0,0.0,0.0,0.0,0.0,0.0,0.0,0.0,0.0,0.0,0.0,0.0,0.0,0.0,0.0,0.0,0.0,0.0,0.0,0.0,0.0,0.0,0.0,0.0,0.0,0.0,0.0,0.0,0.0,0.0,0.0,0.0,0.0,0.0,0.0,0.0,0.0,0.0,0.0,0.0,0.0,0.0,0.0,0.0,0.0,0.0,0.0,0.0,0.0,0.0,0.0,0.0,0.0,0.0,0.0,0.0,0.0,0.0,0.0,0.0,0.0,0.0,0.0,2.4101,2.4503,2.4954,2.5072,2.4773,2.4118,2.345,0.0,0.0,0.0,0.0,0.0,0.0,0.0,0.0,0.0,0.0,0.0,0.0,0.0,0.0,0.0,0.0,0.0,0.0,0.0,0.0,0.0,0.0,0.0,0.0,0.0,0.0,0.0,0.0,0.0,0.0,0.0,0.0,0.0,0.0,0.0,0.0,0.0,0.0,0.0,0.0,0.0,0.0,0.0,0.0,0.0,0.0,0.0,0.0,1.6277,0.0,0.0,0.0,0.0,0.0,0.0,0.0,0.0,0.0,0.0,0.0,0.0,0.0,0.0,0.0,0.0,0.0,0.0,0.0,0.0,0.0,0.0,0.0,0.0,0.0,0.0,0.0,0.0,0.0,0.0,0.0,0.0,0.0,0.0,0.0,0.0,0.0,0.0,0.0,0.0,0.0,0.0,0.0,0.0,0.0,0.0,0.0,0.0,0.0,0.0,0.0,0.0,0.0,0.0,0.0,0.0,0.0,0.0,0.0,2.5042,2.5701,2.6176,2.622,2.5843,2.5599,2.4895,0.0,0.0,0.0,0.0,0.0,0.0,0.0,0.0,0.0,0.0,0.0,0.0,0.0,0.0,0.0,0.0,0.0,0.0,0.0,0.0,0.0,0.0,0.0,0.0,0.0,0.0,0.0,0.0,0.0,0.0,0.0,0.0,0.0,0.0,0.0,0.0,0.0,0.0,0.0,0.0,0.0,0.0,0.0,0.0,0.0,0.0,0.0,0.0,0.0,0.0,0.0,0.0,0.0,0.0,0.0,0.0,0.0,0.0,0.0,0.0,0.0,0.0,0.0,0.0,0.0,0.0,0.0,0.0,0.0,0.0,0.0,0.0,0.0,0.0,0.0,0.0,0.0,0.0,0.0,0.0,0.0,0.0,0.0,0.0,0.0,0.0,0.0,0.0,0.0,0.0,0.0,0.0,0.0,0.0,0.0,0.0,0.0,0.0,0.0,0.0,0.0,0.0,0.0,0.0,0.0,0.0,0.0,2.5401,2.6088,2.6967,2.741,2.7431,2.6959,2.6961,2.6287,2.4826,0.0,0.0,0.0,0.0,0.0,0.0,0.0,0.0,0.0,0.0,0.0,0.0,0.0,0.0,0.0,0.0,0.0,0.0,0.0,0.0,0.0,0.0,0.0,0.0,0.0,0.0,0.0,0.0,0.0,0.0,0.0,0.0,0.0,0.0,0.0,0.0,0.0,0.0,1.7843,1.8304,0.0,0.0,0.0,0.0,0.0,0.0,0.0,0.0,1.7344,0.0,0.0,0.0,0.0,0.0,0.0,0.0,0.0,0.0,0.0,0.0,0.0,0.0,0.0,0.0,0.0,0.0,0.0,0.0,0.0,0.0,0.0,0.0,0.0,0.0,0.0,0.0,0.0,0.0,0.0,0.0,0.0,0.0,0.0,0.0,0.0,0.0,0.0,0.0,0.0,0.0,0.0,0.0,0.0,0.0,0.0,0.0,0.0,0.0,0.0,0.0,0.0,0.0,0.0,0.0,0.0,2.5773,2.6488,2.7199,2.7945,2.8223,2.7954,2.7184,2.7335,2.6943,2.5928,0.0,0.0,0.0,0.0,0.0,0.0,0.0,0.0,0.0,0.0,0.0,0.0,0.0,0.0,0.0,0.0,0.0,0.0,0.0,0.0,0.0,0.0,0.0,0.0,0.0,0.0,0.0,0.0,0.0,0.0,0.0,0.0,0.0,0.0,0.0,0.0,0.0,0.0,0.0,1.854,1.8551,0.0,0.0,0.0,0.0,0.0,0.0,0.0,0.0,1.8112,0.0,0.0,0.0,0.0,0.0,0.0,0.0,0.0,0.0,0.0,0.0,0.0,0.0,0.0,0.0,0.0,0.0,0.0,0.0,0.0,0.0,0.0,0.0,0.0,0.0,0.0,0.0,0.0,0.0,0.0,0.0,0.0,0.0,0.0,0.0,0.0,0.0,0.0,0.0,0.0,0.0,0.0,0.0,0.0,0.0,0.0,0.0,0.0,0.0,0.0,0.0,0.0,0.0,0.0,0.0,2.6612,2.7275,2.7969,2.8633,2.8776,2.8382,2.7532,2.7594,2.7234,0.0,0.0,0.0,0.0,0.0,0.0,0.0,0.0,0.0,0.0,0.0,0.0,0.0,0.0,0.0,0.0,0.0,0.0,0.0,0.0,0.0,0.0,0.0,0.0,0.0,0.0,0.0,0.0,0.0,0.0,0.0,0.0,0.0,0.0,0.0,0.0,0.0,0.0,0.0,0.0,1.9423,1.9531,1.9875,0.0,0.0,0.0,0.0,0.0,0.0,1.9707,1.9242,0.0,0.0,0.0,0.0,0.0,0.0,0.0,0.0,0.0,0.0,0.0,0.0,0.0,0.0,0.0,0.0,0.0,0.0,0.0,0.0,0.0,0.0,0.0,0.0,0.0,0.0,0.0,0.0,0.0,0.0,0.0,0.0,0.0,0.0,0.0,0.0,0.0,0.0,0.0,0.0,0.0,0.0,0.0,0.0,0.0,0.0,0.0,0.0,0.0,0.0,0.0,0.0,0.0,0.0,0.0,2.7248,2.7931,2.8596,2.9145,2.917,2.8792,2.8077,2.794,2.7513,0.0,0.0,0.0,0.0,0.0,0.0,0.0,0.0,0.0,0.0,0.0,0.0,0.0,0.0,0.0,0.0,0.0,0.0,0.0,0.0,0.0,0.0,0.0,0.0,0.0,0.0,0.0,0.0,0.0,0.0,0.0,0.0,0.0,0.0,0.0,0.0,0.0,0.0,0.0,0.0,0.0,2.0563,2.1034,2.1096,0.0,0.0,0.0,0.0,2.1136,2.0656,0.0,0.0,0.0,0.0,0.0,0.0,0.0,0.0,0.0,0.0,0.0,0.0,0.0,0.0,0.0,0.0,0.0,0.0,0.0,0.0,0.0,0.0,0.0,0.0,0.0,0.0,0.0,0.0,0.0,0.0,0.0,0.0,0.0,0.0,0.0,0.0,0.0,0.0,0.0,0.0,0.0,0.0,0.0,0.0,0.0,0.0,0.0,0.0,0.0,0.0,0.0,0.0,0.0,0.0,0.0,0.0,2.752,2.8451,2.9108,2.9341,2.938,2.9184,2.8762,2.8324,2.7893,0.0,0.0,0.0,0.0,0.0,0.0,0.0,0.0,0.0,0.0,0.0,0.0,0.0,0.0,0.0,0.0,0.0,0.0,0.0,0.0,0.0,0.0,0.0,0.0,0.0,0.0,0.0,0.0,0.0,0.0,0.0,0.0,0.0,0.0,0.0,0.0,0.0,0.0,0.0,0.0,0.0,2.1034,2.1096,2.1096,2.1152,0.0,0.0,2.1124,2.1265,2.0822,0.0,0.0,0.0,0.0,0.0,0.0,0.0,0.0,0.0,0.0,0.0,0.0,0.0,0.0,0.0,0.0,0.0,0.0,0.0,0.0,0.0,0.0,0.0,0.0,0.0,0.0,0.0,0.0,0.0,0.0,0.0,0.0,0.0,0.0,0.0,0.0,0.0,0.0,0.0,0.0,0.0,0.0,0.0,0.0,0.0,0.0,0.0,0.0,0.0,0.0,0.0,0.0,0.0,0.0,0.0,2.773,2.7878,2.8947,2.9546,2.9611,2.965,2.9452,2.9088,2.8545,2.8111,0.0,0.0,0.0,0.0,0.0,0.0,0.0,0.0,0.0,0.0,0.0,0.0,0.0,0.0,0.0,0.0,0.0,0.0,0.0,0.0,0.0,0.0,0.0,0.0,0.0,0.0,0.0,0.0,0.0,0.0,0.0,0.0,0.0,0.0,0.0,0.0,0.0,0.0,0.0,0.0,0.0,0.0,2.2193,2.223,0.0,0.0,0.0,2.2259,2.2318,0.0,0.0,0.0,0.0,0.0,0.0,0.0,0.0,0.0,0.0,0.0,0.0,0.0,0.0,0.0,0.0,0.0,0.0,0.0,0.0,0.0,0.0,0.0,0.0,0.0,0.0,0.0,0.0,0.0,0.0,0.0,0.0,0.0,0.0,0.0,0.0,0.0,0.0,0.0,0.0,0.0,0.0,0.0,0.0,0.0,0.0,0.0,0.0,0.0,0.0,0.0,0.0,0.0,0.0,0.0,0.0,0.0,2.8323,2.9289,2.983,2.9869,2.9869,2.977,2.9503,2.8945,0.0,0.0,0.0,0.0,0.0,0.0,0.0,0.0,0.0,0.0,0.0,0.0,0.0,0.0,0.0,0.0,0.0,0.0,0.0,0.0,0.0,0.0,0.0,0.0,0.0,0.0,0.0,2.0166,0.0,0.0,0.0,0.0,0.0,0.0,0.0,0.0,0.0,0.0,0.0,0.0,0.0,0.0,2.2631,2.3045,2.3095,2.3095,0.0,0.0,2.3095,2.3095,2.2644,2.2171,0.0,0.0,0.0,0.0,0.0,0.0,0.0,0.0,0.0,0.0,0.0,0.0,0.0,0.0,0.0,0.0,0.0,0.0,0.0,0.0,0.0,0.0,0.0,0.0,0.0,0.0,0.0,0.0,0.0,0.0,0.0,0.0,0.0,0.0,0.0,0.0,0.0,0.0,0.0,0.0,0.0,0.0,0.0,0.0,0.0,0.0,0.0,0.0,0.0,0.0,0.0,0.0,0.0,0.0,0.0,2.8838,2.9478,2.9908,3.0075,3.0075,3.0177,3.0304,2.9729,2.9252,0.0,0.0,0.0,0.0,0.0,0.0,0.0,0.0,0.0,0.0,0.0,0.0,0.0,0.0,0.0,0.0,0.0,0.0,0.0,0.0,0.0,0.0,0.0,0.0,0.0,0.0,0.0,0.0,0.0,0.0,0.0,0.0,0.0,0.0,0.0,0.0,0.0,0.0,0.0,0.0,0.0,2.3058,2.3095,2.3095,2.3095,0.0,0.0,2.3095,2.3095,2.2644,2.2297,2.2259,0.0,0.0,0.0,0.0,0.0,0.0,0.0,0.0,0.0,0.0,0.0,0.0,0.0,0.0,0.0,0.0,0.0,0.0,0.0,0.0,0.0,0.0,0.0,0.0,0.0,0.0,0.0,0.0,0.0,0.0,0.0,0.0,0.0,0.0,0.0,0.0,0.0,0.0,0.0,0.0,0.0,0.0,0.0,0.0,0.0,0.0,0.0,0.0,0.0,0.0,0.0,0.0,0.0,2.8447,2.905,2.9682,3.0075,3.0254,3.0305,3.0368,3.0571,3.0004,2.9678,0.0,0.0,0.0,0.0,0.0,0.0,0.0,0.0,0.0,0.0,0.0,0.0,0.0,0.0,0.0,0.0,0.0,0.0,0.0,0.0,0.0,0.0,0.0,0.0,0.0,0.0,0.0,0.0,2.1937,2.1854,2.1731,0.0,0.0,0.0,0.0,0.0,0.0,0.0,0.0,0.0,0.0,2.342,2.342,2.342,0.0,0.0,2.333,2.3271,2.33,2.3034,2.2681,2.2343,2.1958,0.0,0.0,0.0,0.0,0.0,0.0,0.0,0.0,0.0,0.0,0.0,0.0,0.0,0.0,0.0,0.0,0.0,0.0,0.0,0.0,0.0,0.0,0.0,0.0,0.0,0.0,0.0,0.0,0.0,0.0,0.0,0.0,0.0,0.0,0.0,0.0,0.0,0.0,0.0,0.0,0.0,0.0,0.0,0.0,0.0,0.0,0.0,0.0,0.0,0.0,0.0,0.0,2.876,2.9466,2.9948,3.0305,3.0495,3.0495,3.0558,3.0798,3.0396,3.0147,0.0,0.0,0.0,0.0,0.0,0.0,0.0,0.0,0.0,0.0,0.0,0.0,0.0,0.0,0.0,0.0,0.0,0.0,0.0,0.0,0.0,0.0,0.0,0.0,0.0,0.0,0.0,0.0,2.2848,2.2686,2.2308,0.0,0.0,0.0,0.0,0.0,0.0,0.0,0.0,0.0,0.0,2.4098,2.4098,2.4128,2.4098,2.4085,2.3897,2.3722,2.3734,2.3462,2.3119,2.274,0.0,0.0,0.0,0.0,0.0,0.0,0.0,0.0,0.0,0.0,0.0,0.0,0.0,0.0,0.0,0.0,0.0,0.0,0.0,0.0,0.0,0.0,0.0,0.0,0.0,0.0,0.0,0.0,0.0,0.0,2.8426,0.0,0.0,0.0,0.0,0.0,0.0,0.0,0.0,0.0,0.0,0.0,0.0,0.0,0.0,0.0,0.0,0.0,0.0,0.0,0.0,0.0,0.0,2.9466,3.0075,3.0279,3.0495,3.0698,3.0698,3.0773,3.0973,3.0973,3.0699,3.0113,0.0,0.0,0.0,0.0,0.0,0.0,0.0,0.0,0.0,0.0,0.0,0.0,0.0,0.0,0.0,0.0,0.0,0.0,0.0,0.0,0.0,0.0,0.0,0.0,0.0,0.0,2.4796,2.4762,2.4348,0.0,0.0,0.0,0.0,0.0,0.0,0.0,0.0,0.0,0.0,2.491,2.5256,2.5243,2.5243,2.5249,2.5262,2.4813,2.4479,2.4479,2.4,2.3586,0.0,0.0,0.0,0.0,0.0,0.0,0.0,0.0,0.0,0.0,0.0,0.0,0.0,0.0,0.0,0.0,0.0,0.0,0.0,0.0,0.0,0.0,0.0,0.0,0.0,0.0,0.0,3.1136,3.0663,0.0,0.0,0.0,0.0,0.0,0.0,0.0,0.0,0.0,0.0,0.0,3.163,3.1487,0.0,0.0,0.0,0.0,0.0,0.0,0.0,0.0,0.0,0.0,0.0,0.0,2.9767,3.0444,3.0584,3.0685,3.0874,3.0911,3.0911,3.0986,3.1024,3.0712,3.0113,0.0,0.0,0.0,0.0,0.0,0.0,0.0,0.0,0.0,0.0,0.0,0.0,0.0,0.0,0.0,0.0,0.0,0.0,0.0,0.0,0.0,0.0,0.0,0.0,0.0,2.5105,0.0,0.0,0.0,0.0,0.0,0.0,0.0,0.0,0.0,0.0,0.0,2.5226,2.5226,2.5475,2.5636,2.5636,2.5636,2.5623,0.0,0.0,0.0,0.0,0.0,0.0,0.0,0.0,0.0,0.0,0.0,0.0,0.0,0.0,2.1253,2.1253,2.1113,2.0998,2.0985,0.0,0.0,0.0,0.0,0.0,0.0,0.0,0.0,0.0,0.0,0.0,0.0,0.0,0.0,3.2001,0.0,3.1667,0.0,0.0,0.0,0.0,0.0,0.0,0.0,0.0,3.2318,3.2579,3.2685,3.2579,3.2292,0.0,3.1436,3.0803,0.0,0.0,0.0,0.0,0.0,0.0,0.0,0.0,3.0173,3.0685,3.0968,3.1148,3.1287,3.1287,3.1287,3.1274,3.1166,3.0915,3.0548,3.0375,2.9951,0.0,0.0,0.0,0.0,0.0,0.0,0.0,0.0,0.0,0.0,0.0,0.0,0.0,0.0,0.0,0.0,0.0,0.0,0.0,0.0,0.0,0.0,0.0,2.6046,0.0,0.0,0.0,0.0,0.0,0.0,0.0,0.0,0.0,2.5523,2.5773,2.5998,2.5998,2.6244,2.638,2.638,0.0,0.0,0.0,0.0,0.0,0.0,0.0,2.5465,2.5465,2.5497,2.5368,2.5006,2.4335,2.3844,2.3844,0.0,0.0,2.212,2.2005,2.2005,2.2005,2.2005,2.2005,2.2005,2.2005,2.1977,0.0,0.0,0.0,0.0,0.0,0.0,0.0,0.0,3.2498,3.2605,0.0,3.2526,0.0,0.0,0.0,0.0,0.0,3.2619,0.0,0.0,3.2751,3.2751,3.2751,3.2777,3.2738,3.2725,3.2712,3.2672,3.2542,3.0093,0.0,0.0,0.0,0.0,0.0,0.0,3.075,3.0826,3.1486,3.1836,3.1836,3.1823,3.1823,3.1784,3.1489,3.1336,3.1283,3.095,3.0716,3.0663,2.9646,0.0,0.0,0.0,0.0,0.0,0.0,0.0,0.0,0.0,0.0,0.0,0.0,0.0,0.0,0.0,0.0,0.0,0.0,0.0,0.0,2.6418,0.0,0.0,0.0,0.0,0.0,0.0,0.0,0.0,0.0,0.0,2.5963,2.636,2.6732,2.6732,0.0,0.0,0.0,0.0,2.749,2.7477,2.7053,2.6732,2.6732,2.6242,2.5871,2.5871,0.0,0.0,2.5819,2.5793,2.5728,2.578,2.5301,2.4406,2.2523,2.2199,2.2135,2.2108,2.2161,2.2097,2.2097,2.2227,2.2174,3.4881,0.0,0.0,0.0,0.0,3.3736,3.3777,3.3845,3.3819,3.3664,3.3339,3.3298,0.0,0.0,0.0,0.0,0.0,0.0,3.3339,3.3352,3.3731,3.3901,3.3914,3.3914,3.3705,3.3352,3.3339,3.3117,3.2672,3.1915,3.1551,3.1564,0.0,0.0,0.0,0.0,3.2137,3.2137,3.2332,3.245,3.245,3.245,3.2293,3.2028,3.1934,3.1732,3.1498,3.1399,3.1129,3.0703,3.0419,0.0,0.0,0.0,0.0,0.0,0.0,0.0,0.0,0.0,0.0,0.0,0.0,0.0,0.0,0.0,0.0,0.0,0.0,0.0,2.7802,2.8025,2.7985,0.0,0.0,0.0,0.0,0.0,0.0,0.0,0.0,0.0,2.7033,2.715,2.7255,0.0,0.0,2.7503,2.7503,2.7503,2.7503,2.7503,2.7379,0.0,2.7275,2.7111,2.7007,2.7007,2.67,2.6438,2.6425,2.6099,2.578,2.5793,2.5707,2.5362,2.4845,2.4034,2.354,2.3501,2.3501,2.3501,2.3514,2.3514,2.3459,3.6815,3.6292,3.5809,3.5417,3.5077,3.5077,3.5077,3.5077,3.5077,3.4894,3.4567,3.4358,3.4071,3.3718,3.347,0.0,0.0,0.0,3.3914,3.3927,3.4254,3.4397,3.4397,3.4397,3.4228,3.3927,3.3914,3.3718,3.3365,3.3365,3.3365,3.3352,0.0,0.0,3.2672,3.2672,3.2672,3.2698,3.2934,3.3038,3.3051,3.3118,3.2962,3.25,3.2641,3.2528,3.2081,3.2165,3.1921,3.133,3.1075,3.0744,0.0,0.0,0.0,0.0,0.0,0.0,0.0,0.0,0.0,0.0,0.0,2.6506,2.7192,0.0,0.0,0.0,2.816,2.8385,2.9101,2.9167,0.0,0.0,0.0,0.0,0.0,0.0,0.0,2.8216,2.8216,2.8124,2.7902,2.7863,2.7785,2.7529,2.7503,2.7503,2.7503,0.0,2.7503,2.7503,2.7503,2.7503,2.7503,2.7503,2.7503,2.7503,2.7229,2.7027,2.7,2.6694,2.6472,2.6446,2.6289,2.6151,2.6151,2.5406,2.4762,2.4749,2.4596,2.4465,2.4452,2.4282,2.4096,3.8501,3.7939,3.6789,3.6227,3.6109,3.6109,3.6096,3.6109,3.6096,3.6109,3.6057,3.5574,3.5365,3.5325,3.4776,0.0,3.4528,3.4528,3.4541,3.4528,3.4528,3.4528,3.4541,3.4541,3.4502,3.4476,3.4476,3.4437,3.4384,3.4384,3.4397,3.4371,3.3352,3.2829,3.2829,3.2829,3.2816,3.2842,3.3378,3.3666,3.3706,3.3883,3.3727,3.3119,3.355,3.3475,3.2947,3.3016,3.2857,3.23,3.168,3.1284,3.1101,0.0,0.0,0.0,0.0,0.0,0.0,0.0,0.0,0.0,0.0,0.0,0.0,0.0,0.0,0.0,2.9929,0.0,2.9995,2.9995,0.0,0.0,0.0,2.961,2.9394,2.9345,2.9345,2.9345,0.0,0.0,2.8585,2.852,2.8276,2.7667,2.7562,2.7503,2.7503,2.7503,2.7503,2.7503,2.7503,2.7503,2.7503,2.7503,2.7503,2.7503,2.7503,2.7464,2.7464,2.7451,2.7477,2.7425,2.7079,2.6771,2.6771,2.6308,2.5936,2.5923,2.5445,2.507,2.5014,2.4674,2.4347,3.9324,3.9141,3.8397,3.7325,3.6109,3.6109,3.6109,3.6109,3.6109,3.6109,3.6083,3.5966,3.59,3.59,3.577,3.5691,3.5691,3.5704,3.5691,3.5691,3.5704,3.5704,3.5704,3.5691,3.5469,3.5103,3.5077,3.4842,3.441,3.4397,3.4397,3.4384,3.4123,3.3992,3.3992,3.3992,3.4005,3.3992,3.4136,3.4297,3.4517,3.4722,3.4593,3.4165,3.4245,3.408,3.3655,3.3308,3.3033,3.2884,3.2327,3.1965,3.1915,3.119,0.0,0.0,0.0,0.0,0.0,0.0,0.0,0.0,0.0,2.9215,2.9805,0.0,2.9851,0.0,3.0302,3.0408,3.0677,3.073,0.0,0.0,3.0441,3.0281,2.9794,2.9754,2.9754,2.9754,2.9754,2.9701,2.9555,2.9402,2.9087,2.8486,2.7878,2.7503,2.7503,2.7503,2.7503,2.7516,2.7529,2.7503,2.7516,2.7503,2.7516,2.7503,2.7503,2.7503,2.7503,2.7503,2.7503,2.7503,2.7398,2.7327,2.7281,2.7196,2.7098,2.702,2.6289,2.5615,2.5615,2.5454,2.5275,3.9965,3.9913,3.9351,3.8553,3.7625,3.7116,3.6907,3.6907,3.6907,3.6907,3.6881,3.6619,3.6345,3.6109,3.6109,3.6109,3.6109,3.6109,3.6109,3.6109,3.6109,3.6109,3.6109,3.6109,3.594,3.5652,3.5652,3.5495,3.5168,3.5155,3.5211,3.5339,3.5339,3.525,3.5112,3.4653,3.4439,3.4577,3.466,3.4771,3.4921,3.5113,3.5116,3.4929,3.4995,3.4792,3.4328,3.4027,3.3729,3.3457,3.3132,3.2833,3.2612,3.2177,3.1636,0.0,0.0,0.0,0.0,0.0,0.0,0.0,0.0,0.0,0.0,0.0,3.0732,3.1165,3.1205,3.1292,3.151,3.155,3.1465,3.1271,3.1248,3.1078,3.0686,3.0646,3.0646,3.0646,3.0646,3.0552,3.0286,3.0162,2.9878,2.9321,2.8847,2.8315,2.7628,2.7503,2.7581,2.7863,2.7902,2.7902,2.7915,2.7915,2.779,2.7555,2.7503,2.7503,2.7503,2.7503,2.7503,2.7503,2.7503,2.7503,2.7503,2.7503,2.7503,2.7411,2.6994,2.6498,2.6255,2.5963,2.5675,4.0527,4.0474,3.9939,3.9716,3.9638,3.8566,3.8083,3.7991,3.7926,3.79,3.7874,3.7351,3.6828,3.6345,3.6332,3.6332,3.6332,3.6345,3.6332,3.6332,3.6332,3.6332,3.6332,3.6332,3.6292,3.6214,3.6214,3.6175,3.6153,3.6153,3.6297,3.6528,3.6584,3.6406,3.61,3.5176,3.4776,3.4852,3.5044,3.5113,3.5154,3.5331,3.544,3.544,3.5588,3.5439,3.4938,3.4829,3.4558,3.4057,3.3948,3.3677,3.32,3.3142,3.2552,0.0,3.1195,0.0,0.0,0.0,0.0,0.0,0.0,0.0,0.0,3.1409,3.1626,3.2178,3.2205,3.2205,3.2205,3.2205,3.2109,3.1963,3.194,3.1867,3.1706,3.1683,3.1669,3.1669,3.1683,3.1469,3.0998,3.0868,3.0655,3.0156,2.9987,2.9401,2.8189,2.7891,2.8108,2.8541,2.8559,2.8559,2.8572,2.8538,2.8307,2.7798,2.7646,2.7568,2.7516,2.7503,2.7503,2.7503,2.7503,2.7503,2.7503,2.7503,2.7503,2.749,2.7438,2.7268,2.6883,2.6465,2.6046,4.1154,4.1089,4.0501,4.0265,4.02,3.956,3.8998,3.8527,3.8083,3.79,3.7887,3.7782,3.7678,3.7573,3.756,3.756,3.756,3.7573,3.756,3.7573,3.756,3.756,3.756,3.7573,3.7312,3.6841,3.6828,3.6668,3.6428,3.6428,3.6571,3.6814,3.6814,3.6804,3.674,0.0,0.0,0.0,3.5249,3.5358,3.5358,3.5521,3.5642,3.5629,3.5669,0.0,3.5493,3.5046,3.4748,3.4626,3.4165,0.0,0.0,0.0,0.0,0.0,0.0,0.0,0.0,0.0,0.0,0.0,3.1861,3.1848,3.1992,3.2042,3.2083,3.2205,3.2205,3.2205,3.2205,3.2205,3.2182,3.2146,3.2132,3.2146,3.2123,3.2073,3.2073,3.2109,3.2109,3.2032,3.1897,3.1788,3.1437,3.0873,3.0659,3.0286,2.955,2.9382,2.947,2.9603,2.9469,2.9399,2.9372,2.9245,2.893,2.8386,2.8216,2.8033,2.762,2.7503,2.7503,2.7503,2.7503,2.7503,2.7503,2.7503,2.749,2.7503,2.7503,2.7464,2.7359,2.7255,2.7046,4.1311,0.0,4.0984,4.0867,0.0,4.0252,3.9677,3.9115,3.8553,3.8148,3.79,3.79,3.79,3.79,3.79,3.79,3.79,3.8024,3.8044,3.8057,3.8207,3.8266,3.8266,3.8266,3.8107,3.7804,3.7804,3.7677,3.7533,3.7533,3.7652,3.7859,3.7872,3.7826,3.7631,3.7349,3.6849,3.6119,3.6032,3.5994,3.598,3.5791,3.571,3.571,3.571,0.0,0.0,0.0,0.0,0.0,0.0,0.0,0.0,0.0,0.0,3.3512,3.3213,3.305,3.305,3.3162,3.3237,3.3237,3.3074,3.2737,3.2232,3.2205,3.2205,3.2205,3.2205,3.2205,3.2205,3.2205,3.2205,3.2205,3.2205,3.2205,3.2205,3.2205,3.2205,3.2205,3.2205,3.2205,3.2205,3.2109,3.1951,3.1667,3.1492,3.1335,3.1025,3.036,2.9961,3.0246,3.0508,3.0489,3.021,2.9979,2.9639,2.9136,2.8672,2.8315,2.8007,2.7706,2.7503,2.7503,2.7503,2.7503,2.7503,2.7503,2.7536,2.761,2.7656,2.7656,2.7623,2.759,2.7425,4.1311,4.1311,4.1311,4.1311,4.1272,4.0775,4.02,3.956,0.0,0.0,0.0,3.79,3.79,3.79,3.79,3.7959,3.7992,3.8135,3.8213,3.8304,3.8498,3.8615,3.8615,3.8615,3.8615,3.8615,3.8615,3.8602,3.8634,3.8679,3.8756,3.8953,3.8953,3.8813,3.8529,3.8084,3.7711,3.7556,3.705,3.6714,3.6592,3.6117,3.5818,3.5723,3.571,3.571,3.571,3.571,3.571,3.571,3.571,3.5506,3.4978,3.4856,3.4624,3.4202,3.4014,3.3998,3.4023,3.4251,3.4365,3.4365,3.4061,3.3487,3.2518,3.2382,3.2277,3.2314,3.2241,3.2241,3.2241,3.2205,3.2205,3.2205,3.2205,3.2205,3.2205,3.2205,3.2205,3.2205,3.2205,3.2205,3.2205,3.2182,3.2205,3.2169,3.2128,3.2205,3.206,3.1128,3.061,3.0989,3.1292,3.1406,3.1032,3.0755,3.0408,2.9879,2.9271,2.8786,2.8462,2.8095,2.776,2.7649,2.7603,2.7636,2.7603,2.7636,2.7656,2.7822,2.7855,2.7855,2.7822,2.7689,2.7543,4.1311,4.1311,4.1311,4.1311,4.1311,4.1219,4.0592,3.9547,3.8488,3.7978,3.79,3.79,3.79,3.79,3.79,3.7979,3.8167,3.8154,3.8304,3.8557,3.8602,3.8615,3.8615,3.8615,3.8615,3.8615,3.8615,3.8679,3.8832,3.8863,3.9011,3.9203,3.9247,3.9206,3.9183,3.9088,3.9017,3.8976,3.7919,3.7148,3.6619,3.651,3.6225,3.575,3.5723,3.571,3.571,3.571,3.571,3.571,3.571,3.5669,3.5574,3.5113,3.484,3.4993,3.4553,3.4327,3.4479,3.454,3.454,3.454,3.4509,3.4205,3.3537,3.2949,3.2632,3.2646,3.2521,3.2381,3.2345,3.2305,3.2246,3.2205,3.2205,3.2205,3.2205,3.2205,3.2205,3.2205,3.2205,3.2205,3.2205,3.2205,3.2205,3.2205,3.2205,3.2205,3.2141,3.2046,3.1929,3.196,3.1896,3.1813,3.1692,3.1536,3.1146,3.0627,3.0392,2.9918,2.9156,2.8824,2.8525,2.812,2.8007,2.798,2.8013,2.8013,2.8,2.8033,2.8033,2.8046,2.8033,2.7901,2.7689,4.1311,4.1311,4.1311,4.1311,4.1298,4.0971,4.054,3.9978,3.9194,3.8475,3.7913,3.79,3.79,3.79,3.8011,3.8089,3.82,3.8472,3.8652,3.8742,3.8904,3.9007,3.8993,3.9007,3.8993,3.8948,3.8993,3.9038,3.91,3.91,3.9203,3.9305,3.9305,3.9305,3.9305,3.9305,3.9305,3.9292,3.8464,3.7838,3.7582,3.7228,3.6822,3.6212,3.6198,3.6035,3.5723,3.571,3.571,3.571,3.5844,3.5898,3.5898,3.5759,3.5741,3.5819,3.5611,3.5485,3.5587,3.5665,3.5781,3.5868,3.5599,3.5306,3.5041,3.4205,3.3735,3.3749,3.3624,3.3413,3.3015,3.2864,3.2682,3.2232,3.2205,3.2205,3.2205,3.2205,3.2205,3.2205,3.2205,3.2205,3.2205,3.2205,3.2205,3.2205,3.2205,3.2205,3.2205,3.2205,3.2205,3.2169,3.2146,3.2073,3.2036,3.189,3.1659,3.1391,3.0975,3.0539,2.9926,2.9512,2.8925,2.8632,2.8352,2.8139,2.8125,2.8112,2.8131,2.8183,2.8216,2.8216,2.8183,2.7987,2.7756,4.1311,4.1311,4.1311,4.1311,4.1272,4.0814,4.054,4.037,3.9965,3.922,3.8344,3.8148,3.8018,3.79,3.8089,3.8258,3.8349,3.8742,3.8922,3.9011,3.9203,3.9305,3.9305,3.9305,3.9305,3.9305,3.9305,3.9305,3.9305,3.9305,3.9305,3.9305,3.9305,3.9305,3.9305,3.9305,3.9305,3.9278,3.8844,3.8559,3.841,3.7919,3.739,3.6863,3.6659,3.6388,3.594,3.5791,3.571,3.5804,3.5992,3.6112,3.6166,3.6325,3.6405,3.647,3.6484,3.6484,3.6549,3.6668,3.685,3.6978,3.6557,3.6314,3.6248,3.5575,3.5006,3.4798,3.4649,3.4357,3.3872,3.3628,3.3338,3.274,3.2612,3.2599,3.2449,3.2409,3.2341,3.2259,3.2205,3.2205,3.2205,3.2205,3.2205,3.2205,3.2205,3.2205,3.2205,3.2205,3.2205,3.2205,3.2205,3.2169,3.2182,3.2086,3.1986,3.1963,3.1491,3.1056,3.0735,3.0038,2.9516,2.9375,2.8846,2.8551,2.8411,2.8277,2.8289,2.8346,2.8365,2.8365,2.8287,2.8137,2.7829,4.1311,4.1311,4.1311,4.1311,4.1298,4.1246,4.0919,4.0461,4.037,4.0017,3.9403,3.888,3.837,3.7985,3.8103,3.8304,3.8544,3.8774,3.9056,3.9261,3.9305,3.9305,3.9305,3.9305,3.9305,3.9305,3.9332,3.9346,3.9305,3.9305,3.9305,3.9305,3.9305,3.9305,3.9305,3.9305,3.9305,3.9305,3.9251,3.8966,3.845,3.8369,3.8057,3.7418,3.6904,3.6578,3.6483,3.6008,3.5817,3.6032,3.6072,3.6152,3.6351,3.6391,3.6484,3.6682,3.6668,3.6747,3.6915,3.694,3.694,3.6978,3.6922,3.6866,3.6866,3.6785,3.628,3.5466,3.5008,3.4896,3.4734,3.4471,3.419,3.395,3.3775,3.3542,3.3129,3.3006,3.2816,3.2259,3.2318,3.2218,3.23,3.2246,3.2205,3.2205,3.2205,3.2205,3.2205,3.2205,3.2205,3.2205,3.2205,3.2205,3.2205,3.2169,3.2132,3.2132,3.2105,3.1784,3.1343,3.1099,3.0905,3.0186,2.9754,2.9342,2.9145,2.8961,2.8595,2.8522,2.8509,2.8509,2.8365,2.8268,2.8091,4.1311,4.1311,4.1311,4.1311,4.1311,4.1311,4.118,4.0945,4.0945,4.0618,4.0095,3.9821,3.922,3.8417,3.843,3.8498,3.8602,3.8993,3.9203,3.9305,3.9305,3.9305,3.9305,3.9305,3.9305,3.9346,3.9658,3.9644,3.9359,3.9305,3.9305,3.9305,3.9305,3.9305,3.9305,3.9305,3.9305,3.9305,3.9305,3.9183,3.8966,3.8939,3.8667,3.8098,3.7799,3.7311,3.6673,3.6347,3.6171,3.6113,3.6206,3.6365,3.6549,3.6693,3.6797,3.6889,3.6889,3.6915,3.6978,3.6978,3.6978,3.6978,3.6978,3.6978,3.6978,3.6978,3.6792,3.636,3.6196,3.5993,3.5491,3.5284,3.4941,3.4461,3.4213,3.4004,3.3634,3.3542,3.3433,3.3216,3.3213,3.305,3.2775,3.2422,3.2232,3.2205,3.2205,3.2205,3.2205,3.2205,3.2205,3.2205,3.2205,3.2205,3.2205,3.2205,3.2205,3.2205,3.2205,3.2055,3.187,3.1477,3.1178,3.0961,3.0418,2.9889,2.9496,2.9352,2.9081,2.8804,2.8587,2.8554,2.8476,2.8411,2.8203,4.1311,4.1311,4.1311,4.1311,4.1311,4.1311,4.1311,4.1311,4.1311,4.1063,4.0671,4.0488,3.9965,3.9202,3.8932,3.8762,3.8647,3.9083,3.9305,3.9305,3.9305,3.9305,3.9305,3.9481,3.9549,3.9644,4.016,4.0214,3.9807,3.9604,3.9536,3.9536,3.9386,3.9305,3.9305,3.9305,3.9305,3.9305,3.9305,3.9305,3.9305,3.9305,3.9102,3.8681,3.8491,3.7921,3.6904,3.6742,3.6538,3.6207,3.6351,3.6589,3.6786,3.6915,3.6978,3.6978,3.6978,3.6978,3.6978,3.6978,3.6978,3.6978,3.6978,3.6978,3.6978,3.6978,3.6978,3.695,3.6978,3.6701,3.6277,3.6088,3.57,3.5005,3.4835,3.4626,3.4231,3.4151,3.4084,3.3948,3.3786,3.3758,3.3335,3.2833,3.249,3.2504,3.2327,3.2205,3.2205,3.2205,3.2205,3.2205,3.2205,3.2205,3.2205,3.2205,3.2205,3.2205,3.2205,3.2205,3.2205,3.1762,3.1558,3.149,3.0988,3.0595,3.0228,2.9977,2.9339,2.8817,2.8614,2.8627,2.8554,2.8476,2.8314,4.1311,4.1311,4.1311,4.1311,4.1311,4.1311,4.1311,4.1311,4.1311,4.1285,4.1154,4.0684,4.0383,4.02,3.9627,3.9108,3.8714,3.9083,3.9305,3.9305,3.9305,3.9305,3.9332,3.9861,4.0146,4.0201,4.0784,4.1042,4.096,4.0431,4.016,4.0106,3.9617,3.9332,3.9305,3.9305,3.9305,3.9305,3.9305,3.9305,3.9305,3.9305,3.9278,3.9183,3.8722,3.8152,3.7514,3.7084,3.6769,3.6379,3.6563,3.6786,3.6954,3.6978,3.6978,3.6978,3.6978,3.6978,3.6978,3.6978,3.6978,3.6978,3.6978,3.6978,3.6978,3.6978,3.6978,3.6978,3.6978,3.6936,3.6869,3.6657,3.6489,3.6198,3.6081,3.5622,3.4855,3.4761,3.4477,3.4124,3.4016,3.3962,3.3867,3.339,3.3115,3.2952,3.2585,3.2259,3.23,3.2259,3.2205,3.2205,3.2205,3.2205,3.2205,3.2205,3.2205,3.2205,3.2205,3.2205,3.2205,3.2178,3.2114,3.2006,3.1572,3.1232,3.1002,3.0405,2.9543,2.8994,2.879,2.8722,2.8627,2.86,2.8457,4.1311,4.1311,4.1311,4.1311,4.1311,4.1311,4.1311,4.1311,4.1311,4.1311,4.1285,4.1089,4.0775,4.0383,4.0342,3.9853,3.9148,3.9051,3.9145,3.9305,3.9305,3.9509,3.9875,4.0106,4.0431,4.0825,4.1408,4.1693,4.1612,4.1082,4.0567,4.0214,3.9983,3.9699,3.9373,3.9305,3.9305,3.9305,3.9305,3.9305,3.9305,3.9305,3.9305,3.9305,3.9102,3.8695,3.8068,3.7698,3.7318,3.7013,3.6825,3.6772,3.6954,3.6978,3.6978,3.6978,3.6978,3.6978,3.6978,3.6978,3.6978,3.6978,3.6978,3.6978,3.6978,3.6978,3.6978,3.6978,3.6978,3.6978,3.6978,3.6915,3.6733,3.6431,3.6312,3.603,3.5546,3.5358,3.5263,3.5032,3.4748,3.4477,3.4368,3.3962,3.3647,3.358,3.3118,3.283,3.2707,3.2504,3.2246,3.2218,3.2205,3.2205,3.2205,3.2205,3.2205,3.2205,3.2205,3.2205,3.2205,3.2205,3.2128,3.2128,3.1857,3.1612,3.13,3.0758,2.9862,2.9374,2.917,2.9021,2.8701,2.8858,2.8666,4.1311,4.1311,4.1311,4.1311,4.1311,4.1311,4.1311,4.1311,4.1311,4.1311,4.1311,4.1311,4.1076,4.071,4.0674,4.043,3.9847,3.9585,3.9604,3.9726,3.983,4.0106,4.0458,4.0675,4.0987,4.1449,4.2005,4.229,4.2222,4.1693,4.1205,4.0798,4.0594,4.0187,3.9685,3.9576,3.9522,3.9359,3.9305,3.9305,3.9305,3.9305,3.9305,3.9305,3.9305,3.9034,3.8437,3.8302,3.8019,3.7606,3.7294,3.706,3.7021,3.6978,3.6978,3.6978,3.6978,3.6978,3.6978,3.6978,3.6978,3.6978,3.6978,3.6978,3.6978,3.6978,3.6978,3.6978,3.6978,3.6978,3.6978,3.6978,3.6836,3.647,3.6405,3.6192,3.5804,3.571,3.5696,3.5615,3.5303,3.51,3.5045,3.4531,3.426,3.4192,3.3715,3.3363,3.3281,3.2898,3.249,3.2463,3.2341,3.2246,3.2218,3.2218,3.2218,3.2218,3.2205,3.2205,3.2205,3.2205,3.2205,3.2205,3.2096,3.1829,3.1477,3.0988,3.0473,2.993,2.9781,2.9699,2.9455,2.9279,2.9179,4.1311,4.1311,4.1311,4.1311,4.1311,4.1311,4.1311,4.1311,4.1311,4.1311,4.1311,4.1311,4.1285,4.1167,4.0736,4.0582,4.0667,4.0655,4.0629,4.0581,4.0808,4.1015,4.109,4.1584,4.1869,4.2032,4.2588,4.2846,4.2778,4.2276,4.1964,4.1842,4.134,4.0811,4.0201,4.0173,3.9916,3.9509,3.9414,3.9359,3.9305,3.9305,3.9305,3.9305,3.9305,3.9047,3.8477,3.8827,3.8724,3.8256,3.7974,3.7639,3.7231,3.7147,3.7077,3.7147,3.7077,3.7049,3.7035,3.7049,3.7077,3.6978,3.6978,3.6978,3.6978,3.6978,3.6978,3.6978,3.6978,3.6978,3.6978,3.6978,3.6836,3.647,3.6405,3.6192,3.5844,3.571,3.571,3.571,3.5628,3.5696,3.5588,3.5154,3.4816,3.4694,3.4301,3.3908,3.3867,3.3444,3.3156,3.302,3.2806,3.263,3.2399,3.2246,3.2246,3.2232,3.2218,3.2205,3.2205,3.2205,3.2205,3.2205,3.2205,3.2001,3.1775,3.1327,3.1056,3.0622,3.0527,3.031,3.0052,2.9876,2.9957,4.1311,4.1311,4.1311,4.1311,4.1311,4.1311,4.1311,4.1311,4.1311,4.1311,4.1311,4.1311,4.1311,4.1285,4.1102,4.1073,4.1172,4.144,4.1346,4.0844,4.0997,4.1381,4.1707,4.1924,4.2222,4.2575,4.2792,4.29,4.286,4.2697,4.2426,4.2032,4.1829,4.1408,4.0865,4.0798,4.0526,3.9983,3.9916,3.9726,3.9359,3.9305,3.9305,3.9305,3.9305,3.9197,3.9034,3.8888,3.8802,3.8808,3.8491,3.8305,3.8313,3.8325,3.8311,3.8325,3.8325,3.806,3.7667,3.7597,3.7428,3.7105,3.7007,3.6978,3.6978,3.6993,3.6978,3.6978,3.6978,3.6978,3.6978,3.6978,3.6797,3.6431,3.6405,3.6232,3.5804,3.571,3.571,3.571,3.571,3.571,3.5696,3.5452,3.5358,3.5303,3.487,3.4531,3.4423,3.4002,3.3688,3.3634,3.3352,3.3132,3.2915,3.2725,3.2643,3.2463,3.23,3.2218,3.2205,3.2205,3.2205,3.2205,3.2205,3.2137,3.1947,3.1734,3.1463,3.126,3.107,3.0798,3.05,3.0479,3.0607,4.1311,4.1311,4.1311,4.1311,4.1311,4.1311,4.1311,4.1311,4.1311,4.1311,4.1311,4.1311,4.1311,4.1311,4.1311,4.1311,4.1361,4.1832,4.179,4.1354,4.1619,4.2005,4.2317,4.2331,4.2493,4.2819,4.2887,4.29,4.29,4.2887,4.2697,4.2385,4.2331,4.2032,4.1517,4.1435,4.115,4.0594,4.0296,3.9997,3.9658,3.9414,3.9305,3.9305,3.9305,3.9305,3.9278,3.9057,3.9084,3.9333,3.9145,3.9004,3.8917,3.8888,3.8916,3.8916,3.8888,3.8664,3.8299,3.8243,3.8131,3.7737,3.7456,3.7344,3.7288,3.7175,3.6978,3.6978,3.6978,3.6978,3.6993,3.6929,3.6733,3.6445,3.6405,3.6178,3.5804,3.571,3.571,3.571,3.571,3.571,3.571,3.571,3.571,3.5655,3.5371,3.5114,3.5005,3.4612,3.4382,3.4151,3.388,3.3675,3.3457,3.3281,3.3118,3.2738,3.2395,3.2286,3.2205,3.2205,3.2205,3.2205,3.2205,3.2205,3.2055,3.2096,3.1947,3.1748,3.1558,3.149,3.1314,3.1246,3.1319,4.1311,4.1311,4.1311,4.1311,4.1311,4.1311,4.1311,4.1311,4.1311,4.1311,4.1311,4.1311,4.1311,4.1311,4.1311,4.1311,4.1424,4.1845,4.2101,4.2204,4.2496,4.2765,4.2778,4.2778,4.2819,4.2887,4.29,4.29,4.29,4.29,4.29,4.2819,4.2778,4.2616,4.2141,4.2046,4.1747,4.1177,4.0648,4.0377,4.0228,3.9671,3.94,3.94,3.9346,3.9305,3.9292,3.9282,3.9516,3.9913,3.9801,3.9578,3.9142,3.9029,3.9141,3.9183,3.9057,3.9057,3.8986,3.8944,3.8874,3.8691,3.8215,3.792,3.7779,3.7414,3.7091,3.6993,3.6978,3.6978,3.6954,3.685,3.6628,3.6445,3.6325,3.6098,3.5804,3.571,3.571,3.571,3.571,3.571,3.571,3.571,3.571,3.5696,3.5655,3.5601,3.552,3.5194,3.4924,3.4707,3.4517,3.426,3.4095,3.3973,3.3783,3.3295,3.2847,3.2589,3.2277,3.2218,3.2205,3.2205,3.2205,3.2205,3.2205,3.2205,3.2205,3.2055,3.2042,3.2178,3.2096,3.1857,3.1775,4.1311,4.1311,4.1311,4.1311,4.1311,4.1311,4.1311,4.1311,4.1311,4.1311,4.1311,4.1311,4.1311,4.1311,4.1324,4.1424,4.166,4.1944,4.2239,4.2449,4.2741,4.2887,4.29,4.29,4.29,4.29,4.29,4.29,4.29,4.29,4.29,4.29,4.2887,4.2819,4.267,4.2629,4.2344,4.1842,4.1625,4.1259,4.0825,4.0268,3.997,3.9916,3.9549,3.9346,3.9363,3.9496,3.9716,4.0009,4.0145,4.025,4.0168,4.014,4.0097,4.0112,4.014,3.9985,3.9634,3.9591,3.9394,3.8958,3.8804,3.8412,3.7934,3.7765,3.7428,3.7133,3.6978,3.6978,3.6954,3.6811,3.6563,3.6246,3.6018,3.5884,3.575,3.571,3.571,3.571,3.571,3.571,3.571,3.571,3.571,3.571,3.571,3.571,3.5642,3.5615,3.529,3.5438,3.5303,3.5018,3.4748,3.4612,3.4341,3.3867,3.3433,3.3067,3.2657,3.2259,3.2232,3.2205,3.2205,3.2205,3.2205,3.2205,3.2205,3.2205,3.2205,3.2205,3.2205,3.2083,3.2069,4.1311,4.1311,4.1311,4.1311,4.1311,4.1311,4.1311,4.1311,4.1311,4.1311,4.1311,4.1311,4.1361,4.1461,4.1461,4.1597,4.1881,4.2141,4.2351,4.2498,4.279,4.29,4.29,4.29,4.29,4.29,4.29,4.29,4.29,4.29,4.29,4.29,4.29,4.29,4.2873,4.2887,4.2738,4.2385,4.2141,4.1802,4.1462,4.0892,4.0621,4.0458,3.9997,3.959,3.9404,3.9452,3.9672,3.9966,4.0241,4.0515,4.0659,4.0702,4.0702,4.0702,4.0702,4.0505,4.0266,4.0168,4.0013,3.9718,3.9493,3.91,3.8678,3.8271,3.7681,3.7456,3.7161,3.7007,3.6954,3.6747,3.6391,3.6018,3.5804,3.571,3.571,3.571,3.571,3.571,3.571,3.571,3.571,3.571,3.571,3.571,3.571,3.571,3.5696,3.571,3.571,3.571,3.571,3.5411,3.5262,3.5167,3.4883,3.4423,3.3935,3.3569,3.3105,3.2544,3.23,3.2273,3.2232,3.2205,3.2205,3.2205,3.2205,3.2205,3.2205,3.2205,3.2205,3.2205,3.2205,4.1259,4.1311,4.1246,4.1259,4.1298,4.1311,4.1311,4.1311,4.1311,4.1311,4.1311,4.1311,4.1461,4.1696,4.1647,4.1832,4.2128,4.2351,4.2498,4.2595,4.2803,4.29,4.29,4.29,4.29,4.29,4.29,4.29,4.29,4.29,4.29,4.29,4.29,4.29,4.29,4.29,4.29,4.2751,4.2412,4.2195,4.1991,4.153,4.1218,4.1123,4.0608,4.0011,3.9617,3.9485,3.9636,3.9922,4.0198,4.0414,4.063,4.0673,4.0702,4.0702,4.0702,4.0674,4.0674,4.0617,4.0659,4.0477,4.0097,3.9831,3.9507,3.8805,3.8173,3.7807,3.7386,3.7122,3.6836,3.6589,3.6232,3.5844,3.571,3.571,3.571,3.571,3.571,3.571,3.571,3.571,3.571,3.571,3.571,3.571,3.571,3.571,3.571,3.571,3.571,3.571,3.571,3.571,3.5655,3.5642,3.5317,3.4951,3.4409,3.3975,3.3593,3.3064,3.2599,3.2368,3.2354,3.2286,3.2205,3.2205,3.2205,3.2205,3.2205,3.2205,3.2205,3.2205,3.2205,4.0893,4.1285,4.0814,4.088,4.1272,4.1311,4.1311,4.1311,4.1311,4.1311,4.1311,4.1311,4.1448,4.1696,4.1746,4.1944,4.24,4.2498,4.2609,4.2803,4.2852,4.29,4.29,4.29,4.29,4.29,4.29,4.29,4.29,4.29,4.29,4.29,4.29,4.29,4.29,4.29,4.29,4.2873,4.2738,4.267,4.2548,4.2127,4.1802,4.172,4.1218,4.0621,4.0133,3.9997,3.9915,3.9854,4.0007,4.031,4.0485,4.0616,4.0702,4.0702,4.0702,4.0702,4.0702,4.0702,4.0702,4.0674,4.0533,4.0308,3.9816,3.9564,3.8847,3.8201,3.7765,3.7312,3.6658,3.6325,3.6072,3.5804,3.571,3.571,3.571,3.571,3.571,3.571,3.571,3.571,3.571,3.571,3.571,3.571,3.571,3.571,3.571,3.571,3.571,3.571,3.571,3.571,3.571,3.571,3.5574,3.5344,3.4897,3.4585,3.4217,3.3647,3.3159,3.2789,3.249,3.2395,3.2286,3.2205,3.2205,3.2205,3.2205,3.2205,3.2205,3.2205,3.2205,4.0605,4.0853,4.0553,4.0762,4.1259,4.1311,4.1311,4.1311,4.1311,4.1311,4.1311,4.1411,4.1647,4.1881,4.2043,4.2302,4.2595,4.2693,4.2755,4.29,4.29,4.29,4.29,4.29,4.29,4.29,4.29,4.29,4.29,4.29,4.29,4.29,4.29,4.29,4.29,4.29,4.29,4.29,4.29,4.29,4.2819,4.2602,4.2222,4.2046,4.1679,4.1245,4.0703,4.0621,4.0355,4.0127,4.0261,4.0387,4.0441,4.0587,4.0716,4.0702,4.0702,4.0702,4.0702,4.0702,4.0702,4.0702,4.0702,4.0533,4.0196,3.9999,3.9535,3.8833,3.8136,3.7348,3.6408,3.6206,3.5978,3.5764,3.571,3.571,3.571,3.571,3.571,3.571,3.571,3.571,3.571,3.571,3.571,3.571,3.571,3.571,3.571,3.571,3.571,3.571,3.571,3.571,3.571,3.571,3.571,3.5588,3.5385,3.5222,3.5086,3.4434,3.377,3.3322,3.2884,3.2504,3.2381,3.23,3.2218,3.2205,3.2205,3.2205,3.2205,3.2205,3.2205,4.0344,4.0409,4.0409,4.0762,4.1272,4.1311,4.1311,4.1311,4.1311,4.1311,4.1424,4.1597,4.1845,4.2141,4.2351,4.2644,4.2838,4.29,4.29,4.29,4.29,4.29,4.29,4.29,4.29,4.29,4.29,4.29,4.29,4.29,4.29,4.29,4.29,4.29,4.29,4.29,4.29,4.29,4.29,4.29,4.29,4.2833,4.2588,4.2304,4.2168,4.1842,4.1381,4.1205,4.0974,4.0423,4.0731,4.0772,4.062,4.0615,4.0702,4.0702,4.0702,4.0702,4.0702,4.0702,4.0702,4.0702,4.0702,4.0702,4.0561,4.0266,3.9915,3.9326,3.8586,3.7438,3.6495,3.6278,3.6116,3.5913,3.5818,3.5723,3.571,3.571,3.571,3.571,3.571,3.571,3.571,3.571,3.571,3.571,3.571,3.571,3.571,3.571,3.571,3.571,3.571,3.571,3.571,3.571,3.571,3.5696,3.5655,3.5642,3.5588,3.5181,3.4475,3.3742,3.3292,3.2898,3.2517,3.2354,3.2286,3.2232,3.2205,3.2205,3.2205,3.2205,3.2205,4.0004,4.0409,4.0409,4.0762,4.1259,4.1311,4.1311,4.1311,4.1311,4.1411,4.166,4.171,4.1993,4.2351,4.2462,4.2658,4.2852,4.29,4.29,4.29,4.29,4.29,4.29,4.29,4.29,4.29,4.29,4.29,4.29,4.29,4.29,4.29,4.29,4.29,4.29,4.29,4.29,4.29,4.29,4.29,4.29,4.2887,4.286,4.2656,4.2643,4.2371,4.2005,4.1829,4.1571,4.1042,4.1177,4.1095,4.0927,4.0836,4.0785,4.0702,4.0702,4.0702,4.0702,4.0702,4.0702,4.0702,4.0702,4.0702,4.0674,4.0561,4.0238,3.9592,3.8825,3.7924,3.7551,3.6893,3.6579,3.6361,3.6117,3.5832,3.5791,3.5791,3.575,3.5723,3.5723,3.571,3.571,3.571,3.571,3.571,3.571,3.571,3.571,3.571,3.571,3.571,3.571,3.571,3.571,3.571,3.571,3.571,3.5696,3.5696,3.5683,3.5683,3.5181,3.4489,3.377,3.3251,3.2898,3.2544,3.2327,3.2273,3.2246,3.2218,3.2205,3.2205,3.2205,3.9926,4.0409,4.0409,4.0762,4.1246,4.1311,4.1311,4.1311,4.1474,4.156,4.1746,4.2007,4.2253,4.2511,4.2658,4.2803,4.29,4.29,4.29,4.29,4.29,4.29,4.29,4.29,4.29,4.29,4.29,4.29,4.29,4.29,4.29,4.29,4.29,4.29,4.29,4.29,4.29,4.29,4.29,4.29,4.29,4.29,4.29,4.29,4.2887,4.2724,4.2561,4.2453,4.2168,4.1754,4.1731,4.1654,4.1473,4.1369,4.1245,4.0855,4.0744,4.0702,4.0702,4.0702,4.0702,4.0702,4.0702,4.0702,4.0702,4.0645,4.0349,3.9577,3.9144,3.8349,3.7683,3.7285,3.7121,3.7011,3.674,3.6497,3.6266,3.6185,3.6035,3.5845,3.5778,3.5764,3.571,3.571,3.571,3.571,3.571,3.571,3.571,3.571,3.571,3.571,3.571,3.571,3.571,3.571,3.571,3.571,3.571,3.571,3.571,3.5696,3.5642,3.5289,3.4543,3.381,3.321,3.2843,3.2572,3.2314,3.2259,3.2218,3.2218,3.2205,3.2205,3.9926,4.0422,4.054,4.0867,4.1272,4.1311,4.1311,4.1411,4.161,4.1746,4.1895,4.2253,4.2511,4.2658,4.2803,4.29,4.29,4.29,4.29,4.29,4.29,4.29,4.29,4.29,4.29,4.29,4.29,4.29,4.29,4.29,4.29,4.29,4.29,4.29,4.29,4.29,4.29,4.29,4.29,4.29,4.29,4.29,4.29,4.29,4.29,4.2873,4.2819,4.2806,4.2616,4.2351,4.229,4.2293,4.2063,4.2195,4.192,4.1248,4.0969,4.0842,4.0702,4.0702,4.0702,4.0702,4.0702,4.0702,4.0702,4.0631,4.0391,3.9573,3.9277,3.9025,3.8353,3.7799,3.7718,3.7607,3.7512,3.7351,3.6958,3.6714,3.6469,3.6252,3.5981,3.5832,3.5805,3.571,3.571,3.571,3.571,3.571,3.571,3.571,3.571,3.571,3.571,3.571,3.571,3.571,3.571,3.571,3.571,3.571,3.571,3.571,3.5642,3.5588,3.5317,3.4624,3.3878,3.3183,3.287,3.2599,3.2368,3.2232,3.2218,3.2205,3.2205,3.9926,4.0474,4.0984,4.1259,4.1311,4.1311,4.1461,4.1647,4.1696,4.1993,4.2364,4.2449,4.2644,4.279,4.2852,4.29,4.29,4.29,4.29,4.29,4.29,4.29,4.29,4.29,4.29,4.29,4.29,4.29,4.29,4.29,4.29,4.29,4.29,4.29,4.29,4.29,4.29,4.29,4.29,4.29,4.29,4.29,4.29,4.29,4.29,4.29,4.29,4.29,4.2792,4.2778,4.2786,4.2753,4.2631,4.2587,4.2578,4.2237,4.184,4.1278,4.0898,4.0814,4.0744,4.0744,4.0702,4.0702,4.0702,4.0702,4.0531,4.0329,4.0015,3.9702,3.9193,3.8703,3.8426,3.8179,3.8003,3.7745,3.739,3.7379,3.7079,3.6768,3.6537,3.6144,3.5927,3.5805,3.571,3.571,3.571,3.571,3.571,3.571,3.571,3.571,3.571,3.571,3.571,3.571,3.571,3.571,3.5764,3.5764,3.5804,3.5844,3.579,3.5722,3.556,3.545,3.481,3.4102,3.3383,3.2884,3.264,3.2409,3.2218,3.2205,3.2205,4.0653,4.0945,4.1356,4.1498,4.1547,4.1696,4.1796,4.1944,4.2092,4.2253,4.2511,4.2658,4.279,4.2887,4.29,4.29,4.29,4.29,4.29,4.29,4.29,4.29,4.29,4.29,4.29,4.29,4.29,4.29,4.29,4.29,4.29,4.29,4.29,4.29,4.29,4.29,4.29,4.29,4.29,4.29,4.29,4.29,4.29,4.29,4.29,4.29,4.29,4.29,4.29,4.2949,4.3032,4.3163,4.3216,4.3308,4.3366,4.3115,4.2865,4.2247,4.1418,4.125,4.1039,4.0772,4.0716,4.0702,4.0702,4.0702,4.063,4.0385,4.0284,4.011,3.9892,3.944,3.9226,3.8992,3.8662,3.8331,3.8127,3.7973,3.7797,3.746,3.708,3.6755,3.6402,3.6157,3.594,3.571,3.571,3.571,3.571,3.571,3.571,3.571,3.571,3.571,3.571,3.571,3.5723,3.5764,3.5938,3.5938,3.5992,3.5978,3.5978,3.6058,3.607,3.5891,3.5579,3.4915,3.4061,3.3451,3.2898,3.2649,3.24,3.2241,3.2241,4.1448,4.1498,4.171,4.1796,4.1796,4.2029,4.2128,4.2226,4.24,4.256,4.2644,4.279,4.2887,4.29,4.29,4.29,4.29,4.29,4.29,4.29,4.29,4.29,4.29,4.29,4.29,4.29,4.29,4.29,4.29,4.29,4.29,4.29,4.29,4.29,4.29,4.29,4.29,4.29,4.29,4.29,4.29,4.29,4.29,4.29,4.29,4.29,4.29,4.29,4.29,4.2949,4.3128,4.3314,4.3545,4.3707,4.3817,4.3732,4.3638,4.3202,4.2345,4.1826,4.1418,4.1053,4.073,4.0702,4.0702,4.0702,4.0659,4.0515,4.0399,4.0298,4.011,3.9878,3.9736,3.9621,3.9492,3.9172,3.891,3.8774,3.8599,3.8288,3.7933,3.7631,3.7221,3.6716,3.628,3.5845,3.571,3.571,3.5764,3.5764,3.5844,3.5858,3.5844,3.5884,3.5938,3.5884,3.5858,3.5898,3.6032,3.6152,3.6192,3.6246,3.6272,3.6365,3.6445,3.6296,3.5984,3.536,3.4712,3.408,3.3498,3.2946,3.2645,3.2423,3.2314,4.2039,4.2029,4.2079,4.2092,4.2079,4.2079,4.2239,4.2449,4.2511,4.2644,4.2838,4.2887,4.29,4.29,4.29,4.29,4.29,4.29,4.29,4.29,4.29,4.29,4.29,4.29,4.29,4.29,4.29,4.29,4.29,4.29,4.29,4.29,4.29,4.29,4.29,4.29,4.29,4.29,4.29,4.29,4.29,4.29,4.29,4.29,4.29,4.29,4.29,4.29,4.2935,4.2935,4.3225,4.3451,4.3675,4.3926,4.405,4.4149,4.42,4.3821,4.3245,4.2416,4.1727,4.1418,4.1123,4.0786,4.0702,4.0702,4.0702,4.0659,4.0515,4.0442,4.0298,4.0154,4.0023,3.9966,3.9878,3.9752,3.9557,3.9628,3.9424,3.9109,3.882,3.8472,3.8184,3.7689,3.6893,3.6429,3.5912,3.5924,3.5938,3.5978,3.6032,3.6072,3.6072,3.6152,3.6286,3.6246,3.6112,3.6152,3.6286,3.6351,3.6351,3.6445,3.6589,3.6589,3.6668,3.6563,3.6443,3.6053,3.554,3.4772,3.4089,3.3468,3.2909,3.2593,3.2561,4.2582,4.2582,4.2582,4.2484,4.2351,4.2533,4.2631,4.2755,4.2741,4.2803,4.29,4.29,4.29,4.29,4.29,4.29,4.29,4.29,4.29,4.29,4.29,4.29,4.29,4.29,4.29,4.29,4.29,4.29,4.29,4.29,4.29,4.29,4.29,4.29,4.29,4.29,4.29,4.29,4.29,4.29,4.29,4.29,4.29,4.29,4.29,4.29,4.29,4.29,4.2984,4.3163,4.3341,4.358,4.3818,4.4068,4.427,4.4364,4.4411,4.4256,4.3989,4.3174,4.25,4.1671,4.1376,4.1123,4.0885,4.073,4.0716,4.0659,4.0659,4.063,4.0544,4.0371,4.0255,4.0198,4.0198,4.014,4.014,4.0227,4.0172,3.9798,3.96,3.9345,3.9041,3.8697,3.7827,3.7016,3.6509,3.6126,3.6181,3.6166,3.6246,3.6286,3.6272,3.6312,3.6431,3.6405,3.6325,3.6445,3.6563,3.6642,3.6707,3.6929,3.7046,3.7007,3.7007,3.7046,3.7028,3.6912,3.6346,3.5436,3.4635,3.3854,3.3353,3.2858,3.2832,4.29,4.29,4.29,4.2803,4.2644,4.2838,4.29,4.29,4.2887,4.29,4.29,4.29,4.29,4.29,4.29,4.29,4.29,4.29,4.29,4.29,4.29,4.29,4.29,4.29,4.29,4.29,4.29,4.29,4.29,4.29,4.29,4.29,4.29,4.29,4.29,4.29,4.29,4.29,4.29,4.29,4.29,4.29,4.29,4.29,4.29,4.29,4.2935,4.2984,4.3115,4.3307,4.3533,4.377,4.4021,4.4209,4.4364,4.4411,4.4457,4.4504,4.4349,4.3825,4.302,4.2149,4.2026,4.166,4.1295,4.1127,4.1298,4.0958,4.0915,4.093,4.0901,4.0801,4.0773,4.0759,4.0716,4.0659,4.0659,4.0702,4.0616,4.049,4.0333,4.0292,3.9997,3.9662,3.8727,3.7786,3.7056,3.6726,3.6697,3.6613,3.6484,3.6484,3.647,3.6549,3.6575,3.6549,3.6603,3.6825,3.6943,3.6982,3.7084,3.7264,3.738,3.7303,3.7394,3.7534,3.7491,3.7291,3.6749,3.6083,3.5227,3.4351,3.4026,3.36,3.3304,4.29,4.29,4.29,4.29,4.29,4.2887,4.29,4.29,4.29,4.29,4.29,4.29,4.29,4.29,4.29,4.29,4.29,4.29,4.29,4.29,4.29,4.29,4.29,4.29,4.29,4.29,4.29,4.29,4.29,4.29,4.29,4.29,4.29,4.29,4.29,4.29,4.29,4.29,4.29,4.29,4.29,4.29,4.29,4.29,4.2949,4.2984,4.3032,4.3163,4.3307,4.3451,4.3737,4.3974,4.4082,4.427,4.4411,4.4457,4.4644,4.4737,4.4741,4.3959,4.3336,4.2817,4.2826,4.2587,4.2163,4.2066,4.2038,4.1725,4.1582,4.1482,4.1439,4.1354,4.1369,4.1227,4.1142,4.11,4.1043,4.1043,4.0972,4.093,4.1185,4.1269,4.0985,4.0561,3.9592,3.8699,3.7758,3.7371,3.7326,3.7237,3.7116,3.6864,3.685,3.6889,3.6968,3.6825,3.6864,3.7123,3.7278,3.7278,3.7356,3.751,3.7572,3.761,3.7687,3.7787,3.7725,3.7596,3.7182,3.6774,3.5699,3.4953,3.4626,3.4305,3.3966,4.29,4.29,4.29,4.29,4.29,4.29,4.29,4.29,4.29,4.29,4.29,4.29,4.29,4.29,4.29,4.29,4.29,4.29,4.29,4.29,4.29,4.29,4.29,4.29,4.29,4.29,4.29,4.29,4.29,4.29,4.29,4.29,4.29,4.29,4.29,4.29,4.29,4.29,4.29,4.29,4.29,4.29,4.29,4.2949,4.308,4.3128,4.3163,4.3389,4.3533,4.3689,4.3988,4.4068,4.4223,4.4397,4.4504,4.4597,4.4783,4.4876,4.494,4.4609,4.4311,4.393,4.3659,4.3507,4.3009,4.2909,4.2796,4.2682,4.2553,4.241,4.2124,4.2024,4.1896,4.1453,4.1326,4.1326,4.1311,4.1311,4.1326,4.1269,4.141,4.1438,4.1281,4.1181,4.0433,3.9941,3.9183,3.848,3.8305,3.8156,3.799,3.7526,3.7341,3.7341,3.7341,3.7162,3.7162,3.7394,3.7471,3.751,3.7625,3.7763,3.7839,3.7877,3.7938,3.7962,3.7976,3.7976,3.7904,3.7428,3.6612,3.5863,3.5468,3.5046,3.454,4.29,4.29,4.29,4.29,4.29,4.29,4.29,4.29,4.29,4.29,4.29,4.29,4.29,4.29,4.29,4.29,4.29,4.29,4.29,4.29,4.29,4.29,4.29,4.29,4.29,4.29,4.29,4.29,4.29,4.29,4.29,4.29,4.29,4.29,4.29,4.29,4.29,4.29,4.29,4.29,4.29,4.2949,4.2949,4.308,4.3225,4.3307,4.3437,4.3628,4.3818,4.3988,4.4129,4.4209,4.4364,4.4504,4.4597,4.4737,4.5014,4.5198,4.5398,4.552,4.5277,4.5136,4.4854,4.4359,4.3916,4.3846,4.3703,4.3602,4.3602,4.3372,4.3041,4.2883,4.2625,4.2208,4.1992,4.2007,4.1719,4.1761,4.1732,4.1691,4.1662,4.1606,4.1549,4.1493,4.1223,4.0939,4.0667,3.9979,3.9318,3.9047,3.8785,3.8302,3.792,3.7843,3.7705,3.7495,3.7548,3.7663,3.7687,3.7725,3.7953,3.8142,3.8142,3.8179,3.8277,3.8375,3.8389,3.836,3.8331,3.8221,3.7878,3.7142,3.6475,3.5885,3.5353,4.29,4.29,4.29,4.29,4.29,4.29,4.29,4.29,4.29,4.29,4.29,4.29,4.29,4.29,4.29,4.29,4.29,4.29,4.29,4.29,4.29,4.29,4.29,4.29,4.29,4.29,4.29,4.29,4.29,4.29,4.29,4.29,4.29,4.29,4.29,4.29,4.29,4.29,4.29,4.29,4.29,4.2949,4.308,4.3225,4.3369,4.3499,4.3675,4.3865,4.3974,4.4115,4.4256,4.4364,4.4504,4.469,4.4751,4.4982,4.5336,4.573,4.6046,4.609,4.6165,4.6049,4.5795,4.528,4.4947,4.4864,4.4807,4.4589,4.4502,4.4298,4.4066,4.392,4.3775,4.3426,4.3121,4.2816,4.238,4.225,4.2206,4.2177,4.2133,4.2063,4.1924,4.1868,4.1868,4.1794,4.1522,4.1293,4.0628,3.9923,3.9564,3.8964,3.8624,3.837,3.8212,3.8079,3.7949,3.8077,3.8005,3.8028,3.8254,3.8427,3.8464,3.8538,3.8671,3.8745,3.8634,3.8634,3.8694,3.8583,3.8399,3.8164,3.7405,3.683,3.6351,4.29,4.29,4.29,4.29,4.29,4.29,4.29,4.29,4.29,4.29,4.29,4.29,4.29,4.29,4.29,4.29,4.29,4.29,4.29,4.29,4.29,4.29,4.29,4.29,4.29,4.29,4.29,4.29,4.29,4.29,4.29,4.29,4.29,4.29,4.2928,4.2914,4.2955,4.2968,4.2982,4.29,4.2984,4.308,4.3177,4.3321,4.3608,4.377,4.3974,4.4162,4.4256,4.4364,4.4551,4.4705,4.4705,4.4908,4.5092,4.5578,4.5866,4.6121,4.6403,4.6491,4.655,4.6594,4.6358,4.6343,4.6094,4.5947,4.5903,4.561,4.5434,4.5317,4.5112,4.4951,4.4673,4.4322,4.4043,4.3751,4.3341,4.3106,4.3019,4.2623,4.2579,4.2392,4.2281,4.2281,4.2322,4.2363,4.2319,4.212,4.1834,4.1079,4.0423,3.9859,3.9599,3.9411,3.9064,3.89,3.8638,3.8452,3.8452,3.8454,3.8538,3.8686,3.876,3.8819,3.8892,3.8855,3.8782,3.8819,3.8943,3.8819,3.8686,3.8591,3.8377,3.7761,3.7308,4.29,4.29,4.29,4.29,4.29,4.29,4.29,4.29,4.29,4.29,4.29,4.29,4.29,4.29,4.29,4.29,4.29,4.29,4.29,4.29,4.29,4.29,4.29,4.2914,4.29,4.29,4.2914,4.29,4.2941,4.2914,4.29,4.29,4.29,4.3063,4.3199,4.3321,4.347,4.3389,4.3253,4.2982,4.3046,4.319,4.3307,4.3499,4.3832,4.4068,4.4303,4.4504,4.4551,4.4644,4.4876,4.4922,4.5014,4.523,4.5535,4.597,4.6225,4.6447,4.6683,4.6712,4.6771,4.6858,4.6858,4.6858,4.6756,4.6564,4.6476,4.6373,4.6403,4.6417,4.6182,4.5916,4.5504,4.5106,4.4914,4.4722,4.4413,4.4118,4.3691,4.3189,4.2939,4.2721,4.2648,4.2688,4.2688,4.2607,4.2566,4.2522,4.2368,4.2052,4.1445,4.0865,4.0689,4.0529,4.0149,3.9731,3.9487,3.927,3.9147,3.9104,3.9062,3.8943,3.8995,3.9017,3.9053,3.9017,3.9017,3.9068,3.9104,3.9017,3.898,3.8972,3.884,3.8538,3.8186,4.29,4.29,4.29,4.29,4.29,4.29,4.29,4.29,4.29,4.29,4.29,4.29,4.29,4.29,4.29,4.29,4.29,4.29,4.29,4.29,4.29,4.2941,4.3063,4.2995,4.3226,4.3104,4.3145,4.3402,4.3185,4.3267,4.3348,4.3036,4.3172,4.3443,4.3796,4.385,4.4013,4.4176,4.3715,4.3329,4.3209,4.3307,4.3451,4.3662,4.396,4.4256,4.4644,4.483,4.4908,4.5032,4.5124,4.5124,4.5413,4.57,4.6015,4.6269,4.6491,4.6712,4.6887,4.6931,4.7077,4.7164,4.7309,4.7222,4.7092,4.6946,4.6858,4.6815,4.6829,4.6829,4.6636,4.6562,4.628,4.6043,4.588,4.5569,4.5198,4.4798,4.4279,4.382,4.3464,4.3201,4.289,4.293,4.293,4.2809,4.2809,4.2809,4.2795,4.268,4.2305,4.1779,4.1641,4.141,4.0955,4.0588,4.04,4.0212,3.9999,3.969,3.9594,3.9379,3.9192,3.9228,3.9213,3.9301,3.9301,3.9301,3.9265,3.9265,3.9265,3.9352,3.9235,3.8994,3.881,4.29,4.29,4.29,4.29,4.29,4.29,4.29,4.29,4.29,4.29,4.29,4.29,4.29,4.29,4.29,4.29,4.29,4.29,4.29,4.2914,4.2928,4.3199,4.3533,4.3601,4.3769,4.4149,4.4271,4.4122,4.4081,4.4135,4.423,4.423,4.4162,4.4244,4.4447,4.4488,4.461,4.4881,4.4488,4.4107,4.4045,4.3678,4.3662,4.3988,4.4345,4.464,4.4918,4.5014,4.5046,4.5124,4.5307,4.558,4.5941,4.6269,4.6491,4.6712,4.6756,4.6931,4.7077,4.7149,4.7207,4.7266,4.7309,4.7309,4.7266,4.7164,4.7121,4.7121,4.7121,4.7077,4.7077,4.7062,4.7017,4.6883,4.6764,4.6332,4.5915,4.5409,4.4914,4.4471,4.4069,4.3681,4.3339,4.3175,4.313,4.317,4.317,4.317,4.313,4.3061,4.286,4.2455,4.2448,4.2187,4.177,4.1523,4.1311,4.1092,4.0825,4.0531,4.0136,3.9928,3.9748,3.9471,3.9388,3.9448,3.9463,3.9388,3.9388,3.9388,3.9388,3.9388,3.9388,3.9235,3.9126,4.2656,4.2873,4.29,4.29,4.29,4.29,4.29,4.29,4.29,4.29,4.29,4.29,4.29,4.29,4.29,4.29,4.29,4.29,4.29,4.2914,4.3172,4.3519,4.3791,4.4117,4.4298,4.4664,4.4691,4.4651,4.48,4.4678,4.4651,4.4759,4.4759,4.4868,4.5031,4.5112,4.5234,4.5492,4.5221,4.5097,4.5001,4.4739,4.4456,4.4735,4.4945,4.5142,4.5181,4.5321,4.5504,4.564,4.5911,4.6046,4.6358,4.658,4.6756,4.6887,4.7019,4.7164,4.7266,4.7309,4.7309,4.7309,4.7309,4.7309,4.7309,4.7222,4.7222,4.7207,4.7207,4.7222,4.7222,4.7207,4.7207,4.7118,4.7088,4.6864,4.652,4.6132,4.5774,4.5505,4.4997,4.4385,4.4071,4.3762,4.3683,4.325,4.329,4.3305,4.3305,4.3305,4.3145,4.3025,4.293,4.29,4.2664,4.2396,4.2272,4.1998,4.1656,4.13,4.0943,4.0621,4.0307,4.0053,3.9828,3.9642,3.9627,3.9538,3.9418,3.9388,3.9388,3.9388,3.9388,3.9388,3.9316,4.2358,4.286,4.29,4.29,4.29,4.29,4.29,4.29,4.29,4.29,4.29,4.29,4.29,4.29,4.29,4.29,4.29,4.29,4.29,4.305,4.3519,4.3782,4.4149,4.4515,4.4881,4.5071,4.5139,4.5126,4.5153,4.5153,4.5153,4.4963,4.5031,4.5193,4.5546,4.575,4.5858,4.6087,4.6095,4.6096,4.6022,4.5901,4.5532,4.5481,4.5609,4.5702,4.576,4.5805,4.6044,4.6225,4.6403,4.655,4.6683,4.6844,4.6931,4.7062,4.7149,4.7251,4.7309,4.7309,4.7309,4.7309,4.7309,4.7309,4.7309,4.7309,4.7309,4.7309,4.7309,4.7309,4.7309,4.7309,4.7309,4.7309,4.7294,4.7294,4.6995,4.6726,4.6531,4.6322,4.5768,4.511,4.4751,4.4481,4.4082,4.3633,4.3394,4.3349,4.3334,4.3305,4.3225,4.3185,4.3145,4.318,4.3175,4.3056,4.2807,4.2688,4.2369,4.2034,4.1707,4.119,4.0831,4.0651,4.0427,4.0262,3.9948,3.9783,3.9649,3.9478,3.9388,3.9388,3.9388,3.9388,3.9388,4.2344,4.2887,4.29,4.29,4.29,4.29,4.29,4.29,4.29,4.29,4.29,4.29,4.29,4.29,4.29,4.29,4.29,4.29,4.29,4.2995,4.362,4.4067,4.4556,4.5085,4.5655,4.5845,4.594,4.6075,4.5804,4.5926,4.6089,4.6007,4.6048,4.613,4.6184,4.6345,4.6331,4.644,4.6649,4.6665,4.6661,4.6417,4.607,4.6039,4.6177,4.6311,4.6379,4.6248,4.6342,4.6491,4.6697,4.6844,4.6931,4.7077,4.7121,4.7164,4.7251,4.7251,4.7309,4.7309,4.7309,4.7309,4.7309,4.7309,4.7309,4.7309,4.7309,4.7309,4.7309,4.7309,4.7309,4.7309,4.7309,4.7309,4.7309,4.7309,4.716,4.704,4.6905,4.6636,4.6219,4.5708,4.5259,4.502,4.4811,4.4407,4.4122,4.3977,4.3514,4.3424,4.3364,4.3305,4.3305,4.3305,4.3275,4.3275,4.3086,4.3095,4.303,4.2656,4.2192,4.1654,4.1339,4.1272,4.11,4.095,4.0606,4.0142,3.9873,3.9723,3.9478,3.9388,3.9388,3.9388,3.9388]}]]